Date StartTime U_cm/s V_cm/s W_cm/s Ustd_cm/s Vstd_cm/s Wstd_cm/s Uvar_(cm/s)^2 Vvar_(cm/s)^2 Wvar_(cm/s)^2 KE_(m/s)^2 TurbulentKE_(m/s)^2 HorizWindSpeed_cm/s FrictionSpeec_cm/s DragCoef SpeedOfSound_m/s SonicTemperature_C Pressure_mb 
07/23/2013  00:00:00     -385.089      -11.099      -17.133      191.817      130.265       78.393    36793.644    16968.962     6145.509       10.430        2.995      385.249       87.020        0.051      348.101       27.549      862.640
07/23/2013  00:01:00     -349.439     -120.707       -3.402      172.000      120.770       70.284    29583.931    14585.422     4939.861        9.289        2.455      369.699       80.404        0.047      348.107       27.558      862.634
07/23/2013  00:02:00     -268.184      -92.578       -4.569      175.887       99.930       64.636    30936.186     9986.007     4177.848        6.280        2.255      283.714       71.435        0.063      348.089       27.527      862.675
07/23/2013  00:03:00     -290.692      -63.910      -17.707      134.561       95.365       64.033    18106.694     9094.453     4100.220        6.009        1.565      297.635       59.136        0.039      348.121       27.582      862.692
07/23/2013  00:04:00     -408.847     -115.457       -9.088      155.152      106.874       69.241    24072.034    11421.957     4794.304       11.042        2.014      424.837       70.580        0.028      348.089       27.526      862.707
07/23/2013  00:05:00     -346.955      -43.542      -26.817      135.876      107.992       60.412    18462.401    11662.223     3649.611        7.838        1.689      349.677       64.311        0.034      348.056       27.468      862.734
07/23/2013  00:06:00     -461.492     -162.449      -15.672      218.742      125.839       77.905    47847.924    15835.462     6069.157       15.467        3.488      489.249      101.932        0.043      348.070       27.494      862.723
07/23/2013  00:07:00     -363.057      -25.817      -13.943      178.700      137.956       68.265    31933.533    19031.885     4660.157        9.414        2.781      363.974       77.312        0.045      348.042       27.445      862.710
07/23/2013  00:08:00     -377.678      -90.292      -26.765      156.309      164.831       86.818    24432.435    27169.194     7537.409       10.531        2.957      388.321       76.343        0.039      348.062       27.479      862.702
07/23/2013  00:09:00     -322.207      -38.657      -11.928      152.814      140.857       64.370    23352.162    19840.594     4143.523        7.639        2.367      324.518       69.082        0.045      348.037       27.437      862.715
07/23/2013  00:10:00     -319.317      -71.321        1.179      185.683      146.170       69.149    34478.349    21365.612     4781.534        8.383        3.031      327.185       83.878        0.066      348.030       27.425      862.700
07/23/2013  00:11:00     -335.689     -118.968      -18.502      199.497      139.227       95.865    39799.142    19384.275     9190.073        9.776        3.419      356.146      105.114        0.087      348.045       27.451      862.666
07/23/2013  00:12:00     -353.677      -52.649       -9.926      166.503      123.010       79.970    27723.160    15131.458     6395.182        8.859        2.462      357.574       89.224        0.062      348.032       27.428      862.657
07/23/2013  00:13:00     -437.708      -63.080      -14.389      170.362      161.160       80.816    29023.185    25972.586     6531.170       12.864        3.076      442.230       81.292        0.034      348.026       27.418      862.667
07/23/2013  00:14:00     -411.654     -130.996      -15.974      160.799      152.791       79.824    25856.341    23345.169     6371.832       12.121        2.779      431.994       71.922        0.028      348.016       27.401      862.673
07/23/2013  00:15:00     -355.292     -129.342        2.136      159.574      110.502       68.116    25464.002    12210.789     4639.766        9.263        2.116      378.102       78.199        0.043      347.975       27.331      862.644
07/23/2013  00:16:00     -289.548      -80.100        5.346      115.523      110.487       64.864    13345.514    12207.448     4207.286        6.002        1.488      300.423       67.341        0.050      347.965       27.314      862.598
07/23/2013  00:17:00     -553.204     -194.346      -11.018      277.165      191.489       92.813    76820.638    36668.047     8614.246       23.299        6.105      586.349      122.463        0.044      347.949       27.286      862.541
07/23/2013  00:18:00     -508.377      -70.858      -28.830      267.912      160.085       90.789    71776.787    25627.149     8242.658       18.495        5.282      513.292      102.615        0.040      347.920       27.236      862.561
07/23/2013  00:19:00     -477.534       16.924      -29.615      159.134      135.650       78.133    25323.496    18400.844     6104.700       13.951        2.491      477.834       82.976        0.030      347.941       27.271      862.591
07/23/2013  00:20:00     -258.297       -3.125       -7.560      178.887      121.448       71.352    32000.705    14749.648     5091.178        5.930        2.592      258.315       75.864        0.086      347.913       27.223      862.577
07/23/2013  00:21:00     -337.633      -69.898       -4.888      129.253      138.509       68.077    16706.220    19184.710     4634.514        7.971        2.026      344.792       52.059        0.023      347.908       27.214      862.547
07/23/2013  00:22:00     -521.581      -82.005      -11.245      253.369      184.766       89.679    64195.859    34138.393     8042.246       19.262        5.319      527.989      104.819        0.039      347.921       27.238      862.519
07/23/2013  00:23:00     -548.210     -113.197      -23.150      202.118      178.771       91.999    40851.864    31959.170     8463.903       19.756        4.064      559.775       95.322        0.029      347.927       27.247      862.518
07/23/2013  00:24:00     -581.106      -64.786      -27.649      288.944      147.840      107.672    83488.875    21856.569    11593.177       22.977        5.847      584.706      140.415        0.058      347.936       27.261      862.513
07/23/2013  00:25:00     -415.490      -71.995      -22.061      250.085      139.037       74.845    62542.398    19331.423     5601.802       13.287        4.374      421.681       91.738        0.047      347.881       27.169      862.530
07/23/2013  00:26:00     -523.787     -129.764      -34.103      178.718      177.361       91.117    31939.986    31456.821     8302.259       18.201        3.585      539.622       81.527        0.023      347.885       27.175      862.487
07/23/2013  00:27:00     -467.750     -126.246      -25.472      179.478      151.859       85.173    32212.314    23061.286     7254.472       14.894        3.126      484.487       85.590        0.031      347.874       27.157      862.487
07/23/2013  00:28:00     -449.009      -71.590      -19.408      197.371      200.157       98.854    38955.452    40062.813     9772.066       14.793        4.440      454.681       93.026        0.042      347.884       27.175      862.482
07/23/2013  00:29:00     -506.300     -142.612      -38.611      169.130      194.023       94.141    28604.882    37644.904     8862.512       17.663        3.756      526.002       75.173        0.020      347.871       27.152      862.452
07/23/2013  00:30:00     -542.563     -128.301      -26.648      160.476      164.376       82.502    25752.556    27019.318     6806.552       18.555        2.979      557.526       75.692        0.018      347.853       27.120      862.460
07/23/2013  00:31:00     -507.919     -127.705      -32.820      262.727      187.205       82.588    69025.430    35045.536     6820.823       19.311        5.545      523.727       90.757        0.030      347.846       27.107      862.448
07/23/2013  00:32:00     -421.133      -62.827      -13.350      262.636      213.271       90.424    68977.828    45484.491     8176.550       15.203        6.132      425.793      104.069        0.060      347.822       27.066      862.416
07/23/2013  00:33:00     -601.956      -69.676       -7.981      213.423      202.104      103.523    45549.280    40846.226    10717.020       23.217        4.856      605.975      106.242        0.031      347.834       27.086      862.394
07/23/2013  00:34:00     -467.255      -24.371      -32.242      212.236      156.380       98.256    45044.325    24454.615     9654.263       14.954        3.958      467.890      102.242        0.048      347.817       27.056      862.392
07/23/2013  00:35:00     -632.300     -110.596      -29.393      248.326      201.906      110.005    61665.750    40766.144    12101.057       26.369        5.727      641.899      112.031        0.030      347.833       27.085      862.385
07/23/2013  00:36:00     -486.859     -112.253      -17.581      275.719      195.316      114.825    76020.795    38148.373    13184.832       18.862        6.368      499.632      137.116        0.075      347.801       27.029      862.394
07/23/2013  00:37:00     -558.387     -134.862      -27.142      206.957      170.789       98.414    42831.109    29168.873     9685.246       20.619        4.084      574.442      104.411        0.033      347.768       26.975      862.374
07/23/2013  00:38:00     -493.514     -135.192       -7.642      204.808      179.094       92.085    41946.155    32074.702     8479.672       17.218        4.125      511.696      103.965        0.041      347.739       26.922      862.356
07/23/2013  00:39:00     -480.167      -84.198      -25.249      178.921      162.279       85.737    32012.801    26334.597     7350.860       15.198        3.285      487.493       91.432        0.035      347.741       26.927      862.346
07/23/2013  00:40:00     -478.352     -118.888      -19.755      227.415      166.146       95.577    51717.464    27604.583     9135.057       16.588        4.423      492.905      114.316        0.054      347.724       26.896      862.355
07/23/2013  00:41:00     -486.213      -97.108       -7.567      212.786      155.996       86.944    45277.887    24334.827     7559.339       16.152        3.859      495.816       95.329        0.037      347.706       26.865      862.328
07/23/2013  00:42:00     -342.143      -31.469        7.405      161.086      142.441       86.494    25948.742    20289.517     7481.263        8.590        2.686      343.587       73.392        0.046      347.675       26.812      862.333
07/23/2013  00:43:00     -334.411      -88.574       -5.141      207.718      158.710       81.924    43146.911    25188.765     6711.572        9.736        3.752      345.943       94.027        0.074      347.675       26.812      862.293
07/23/2013  00:44:00     -411.161      -57.561      -13.583      188.595      180.988       86.747    35568.208    32756.490     7524.992       12.419        3.792      415.171       90.811        0.048      347.681       26.824      862.321
07/23/2013  00:45:00     -442.258      -24.764      -28.459      180.247      169.201       76.232    32489.044    28629.012     5811.350       13.196        3.346      442.951       77.258        0.030      347.669       26.801      862.308
07/23/2013  00:46:00     -545.323     -187.617      -32.652      170.916      156.577       82.832    29212.422    24516.248     6861.107       19.710        3.029      576.695       77.489        0.018      347.713       26.879      862.264
07/23/2013  00:47:00     -546.462     -125.675      -29.641      202.951      143.392       83.966    41189.036    20561.382     7050.303       19.203        3.440      560.728       95.944        0.029      347.702       26.859      862.291
07/23/2013  00:48:00     -367.415      -54.416       -2.562      147.444      118.363       72.875    21739.639    14009.790     5310.795        8.950        2.053      371.422       77.259        0.043      347.663       26.791      862.306
07/23/2013  00:49:00     -442.405      -83.894      -10.208      121.305      125.108       77.095    14715.023    15651.956     5943.709       11.958        1.816      450.289       71.530        0.025      347.643       26.757      862.299
07/23/2013  00:50:00     -467.415      -77.656      -33.336      202.278      147.501       81.046    40916.295    21756.654     6568.423       14.742        3.462      473.822       86.366        0.033      347.652       26.772      862.304
07/23/2013  00:51:00     -418.849      -48.951      -31.865      163.633      145.077       71.710    26775.611    21047.330     5142.262       11.589        2.648      421.700       62.836        0.022      347.696       26.846      862.292
07/23/2013  00:52:00     -338.135      -45.399      -25.945      160.540      113.891       62.463    25773.230    12971.256     3901.607        7.985        2.132      341.169       62.825        0.034      347.675       26.811      862.257
07/23/2013  00:53:00     -506.406     -113.552      -28.498      276.532      171.760       99.685    76469.942    29501.357     9937.132       19.301        5.795      518.981      121.375        0.055      347.673       26.809      862.245
07/23/2013  00:54:00     -553.321     -160.359      -34.790      196.607      152.472       87.636    38654.308    23247.828     7680.038       20.132        3.479      576.089       95.470        0.027      347.722       26.894      862.285
07/23/2013  00:55:00     -278.432       -6.399       -5.840      181.476      149.783       78.810    32933.498    22434.956     6210.976        6.958        3.079      278.506       82.372        0.087      347.737       26.920      862.268
07/23/2013  00:56:00     -312.437      -44.272      -37.130      141.597      127.482       65.016    20049.775    16251.651     4227.133        7.073        2.026      315.558       56.438        0.032      347.710       26.872      862.251
07/23/2013  00:57:00     -412.688      -23.282      -30.309      194.464      169.141       72.365    37816.279    28608.520     5236.761       12.170        3.583      413.344       87.087        0.044      347.734       26.914      862.256
07/23/2013  00:58:00     -456.201      -94.060      -29.155      227.807      185.278       87.929    51896.192    34327.974     7731.428       15.587        4.698      465.797      110.017        0.056      347.760       26.961      862.268
07/23/2013  00:59:00     -412.612      -37.336      -20.875      224.495      156.497       93.970    50397.867    24491.167     8830.390       12.788        4.186      414.298      109.560        0.070      347.781       26.996      862.273
07/23/2013  01:00:00     -396.942      -76.344       -7.569      172.892      153.859       61.792    29891.752    23672.574     3818.228       11.040        2.869      404.217       70.407        0.030      347.796       27.022      862.237
07/23/2013  01:01:00     -297.613      -68.030        4.337      178.011      126.953       78.036    31688.088    16117.039     6089.548        7.355        2.695      305.289       94.496        0.096      347.779       26.993      862.245
07/23/2013  01:02:00     -470.300      -58.061      -38.473      139.891      124.511       70.552    19569.385    15503.048     4977.535       13.303        2.002      473.870       64.754        0.019      347.784       27.001      862.241
07/23/2013  01:03:00     -382.821     -102.394      -18.575      134.767      113.748       61.878    18162.071    12938.564     3828.854        9.615        1.746      396.278       58.290        0.022      347.758       26.956      862.237
07/23/2013  01:04:00     -248.809      -71.787        0.815      167.083      113.052       72.114    27916.578    12780.763     5200.419        5.647        2.295      258.958       75.403        0.085      347.783       27.000      862.221
07/23/2013  01:05:00     -456.606      -67.998      -30.507      174.803       96.305       65.871    30556.169     9274.749     4339.017       12.910        2.208      461.642       79.187        0.029      347.798       27.024      862.228
07/23/2013  01:06:00     -440.881      -71.265      -22.758      204.215      155.226       83.168    41703.879    24095.076     6916.865       13.633        3.636      446.603       77.364        0.030      347.820       27.063      862.215
07/23/2013  01:07:00     -471.485     -105.161      -28.929      158.984      140.826       89.805    25275.925    19831.930     8064.905       14.367        2.659      483.070       89.373        0.034      347.844       27.104      862.229
07/23/2013  01:08:00     -394.409     -105.439       -6.636      149.068      151.135       72.236    22221.276    22841.911     5217.992       10.849        2.514      408.260       65.238        0.026      347.843       27.102      862.233
07/23/2013  01:09:00     -306.408      -97.723      -14.534      147.417      106.930       68.449    21731.851    11433.923     4685.311        7.074        1.893      321.614       68.892        0.046      347.841       27.098      862.235
07/23/2013  01:10:00     -524.782      -53.699      -31.682      165.313      143.055       84.152    27328.364    20464.817     7081.575       16.707        2.744      527.522       86.409        0.027      347.878       27.161      862.244
07/23/2013  01:11:00     -474.233     -101.907      -17.792      179.429      134.706       78.916    32194.786    18145.657     6227.704       14.607        2.828      485.058       89.883        0.034      347.897       27.194      862.258
07/23/2013  01:12:00     -428.378     -121.554      -17.936      184.175      145.297       74.958    33920.430    21111.359     5618.664       12.962        3.033      445.290       85.625        0.037      347.889       27.181      862.255
07/23/2013  01:13:00     -356.806      -47.126      -25.539      113.391      104.750       60.760    12857.595    10972.650     3691.762        7.885        1.376      359.905       44.636        0.015      347.874       27.154      862.264
07/23/2013  01:14:00     -338.794      -30.389      -23.429      137.190      117.342       61.172    18821.114    13769.122     3742.044        7.629        1.817      340.154       63.039        0.034      347.878       27.162      862.251
07/23/2013  01:15:00     -510.351      -14.244      -21.010      238.186      150.780       82.175    56732.792    22734.557     6752.722       17.364        4.311      510.550       96.417        0.036      347.901       27.202      862.227
07/23/2013  01:16:00     -424.725      -40.955      -28.207      156.057      108.069       70.789    24353.914    11678.889     5011.153       11.195        2.052      426.695       74.321        0.030      347.878       27.162      862.225
07/23/2013  01:17:00     -297.857      -29.074       -3.636      199.678      121.438       65.479    39871.131    14747.075     4287.494        7.423        2.945      299.272       82.817        0.077      347.858       27.129      862.222
07/23/2013  01:18:00     -298.292      -72.232       -5.646      110.417      138.229       55.326    12192.016    19107.206     3060.919        6.429        1.718      306.913       48.172        0.025      347.835       27.087      862.216
07/23/2013  01:19:00     -294.711     -149.686       12.598      247.611      167.589       96.461    61311.369    28086.088     9304.717       10.404        4.935      330.546      119.172        0.130      347.832       27.083      862.213
07/23/2013  01:20:00     -311.529     -116.163       -2.072      214.065      180.456       88.983    45823.909    32564.452     7917.926        9.841        4.315      332.482       81.764        0.060      347.830       27.079      862.227
07/23/2013  01:21:00     -309.904     -121.229      -17.509      145.978      153.139       75.525    21309.692    23451.608     5704.029        8.074        2.523      332.772       69.497        0.044      347.829       27.077      862.244
07/23/2013  01:22:00     -398.942      -62.832      -26.139      157.233      102.107       55.080    24722.186    10425.837     3033.828       10.098        1.909      403.860       50.361        0.016      347.860       27.131      862.267
07/23/2013  01:23:00     -250.475      -23.033       -7.041      157.210       79.942       58.798    24714.886     6390.749     3457.262        4.893        1.728      251.532       68.322        0.074      347.822       27.066      862.274
07/23/2013  01:24:00     -301.025      -71.414       -6.472      176.062      127.441       75.484    30997.882    16241.146     5697.853        7.434        2.647      309.380       86.966        0.079      347.808       27.042      862.276
07/23/2013  01:25:00     -236.969     -135.042       -2.031      159.788      139.217       76.004    25532.124    19381.329     5776.619        6.253        2.535      272.746       72.620        0.071      347.825       27.070      862.289
07/23/2013  01:26:00     -191.101      -94.681       -2.225      115.928      145.121       68.145    13439.289    21060.168     4643.786        4.231        1.957      213.270       67.160        0.099      347.818       27.058      862.301
07/23/2013  01:27:00     -225.697      -37.699        6.198      148.259      110.101       69.020    21980.850    12122.151     4763.725        4.562        1.943      228.824       76.988        0.113      347.837       27.092      862.318
07/23/2013  01:28:00     -448.790      -50.612      -36.325      128.074      104.253       65.279    16402.854    10868.739     4261.362       11.841        1.577      451.635       58.194        0.017      347.835       27.087      862.334
07/23/2013  01:29:00     -382.082     -148.885      -14.058      198.272      108.940       69.262    39311.757    11868.028     4797.174       11.215        2.799      410.065       55.379        0.018      347.853       27.119      862.340
07/23/2013  01:30:00     -386.402      -27.135      -27.616      137.447      164.712       81.294    18891.603    27129.995     6608.701       10.171        2.632      387.354       77.470        0.040      347.841       27.097      862.326
07/23/2013  01:31:00     -331.125      -20.656      -18.885      138.189      152.961       70.562    19096.067    23397.037     4979.064        7.894        2.374      331.769       69.099        0.043      347.812       27.048      862.331
07/23/2013  01:32:00     -335.505      -17.072      -22.153      147.128      151.100       68.873    21646.769    22831.128     4743.539        8.127        2.461      335.939       52.722        0.025      347.804       27.035      862.332
07/23/2013  01:33:00     -318.397      -91.336      -13.041      165.604       87.781       57.762    27424.629     7705.584     3336.435        7.417        1.923      331.239       71.311        0.046      347.806       27.038      862.334
07/23/2013  01:34:00     -293.889      -28.974      -31.491      116.688      120.076       54.623    13616.023    14418.201     2983.719        5.960        1.551      295.314       43.099        0.021      347.819       27.060      862.331
07/23/2013  01:35:00      -80.477       -1.440        6.573      120.290       50.873       49.039    14469.773     2588.070     2404.801        1.299        0.973       80.490       63.801        0.628      347.758       26.957      862.326
07/23/2013  01:36:00     -109.072       11.355       -6.042      115.858       48.051       39.767    13423.042     2308.864     1581.424        1.468        0.866      109.661       47.090        0.184      347.745       26.934      862.308
07/23/2013  01:37:00     -286.258       32.439      -22.857      166.594       89.410       50.449    27753.423     7994.225     2545.052        6.090        1.915      288.090       57.857        0.040      347.756       26.953      862.325
07/23/2013  01:38:00     -141.645      -40.711      -14.588       76.737       87.303       46.522     5888.605     7621.755     2164.318        1.880        0.784      147.380       39.062        0.070      347.738       26.923      862.326
07/23/2013  01:39:00      -99.640      -29.598       16.830       99.193       61.493       46.891     9839.190     3781.330     2198.812        1.345        0.791      103.943       52.941        0.259      347.721       26.896      862.296
07/23/2013  01:40:00     -203.354      -14.461      -14.591      142.033       74.731       49.773    20173.437     5584.707     2477.322        3.500        1.412      203.868       59.747        0.086      347.729       26.907      862.261
07/23/2013  01:41:00     -176.086       26.367      -13.314       86.364      107.667       50.224     7458.785    11592.171     2522.447        2.672        1.079      178.049       52.289        0.086      347.709       26.872      862.277
07/23/2013  01:42:00     -270.698      -49.837      -23.756       97.923      113.498       48.451     9588.889    12881.855     2347.473        5.057        1.241      275.248       39.655        0.021      347.713       26.878      862.283
07/23/2013  01:43:00     -238.477        4.165      -22.121       82.951       79.798       39.773     6880.933     6367.691     1581.929        3.610        0.742      238.514       31.443        0.017      347.703       26.863      862.290
07/23/2013  01:44:00     -273.167       40.807      -23.832      110.077       78.485       44.843    12116.914     6159.830     2010.935        4.857        1.014      276.198       39.307        0.020      347.702       26.860      862.282
07/23/2013  01:45:00     -259.534      125.598       -8.241      147.460       90.659       60.638    21744.573     8219.028     3676.941        5.841        1.682      288.327       45.742        0.025      347.681       26.824      862.285
07/23/2013  01:46:00     -162.129      -24.768      -11.590      106.279       74.140       46.982    11295.193     5496.780     2207.280        2.301        0.950      164.010       55.853        0.116      347.662       26.792      862.355
07/23/2013  01:47:00      -47.286        0.376        3.187       76.254       56.475       34.404     5814.608     3189.439     1183.641        0.621        0.509       47.288       42.011        0.789      347.552       26.603      862.389
07/23/2013  01:48:00       48.440       73.718        0.608       40.482       31.814       27.471     1638.815     1012.118      754.667        0.559        0.170       88.209       24.683        0.078      347.616       26.715      862.312
07/23/2013  01:49:00      -95.430      -13.113        0.333       85.544       69.496       33.394     7317.693     4829.737     1115.190        1.127        0.663       96.327       43.166        0.201      347.631       26.740      862.333
07/23/2013  01:50:00     -149.316       15.562      -21.100       71.101      150.655       38.638     5055.401    22696.805     1492.907        2.611        1.462      150.125       45.996        0.094      347.585       26.657      862.364
07/23/2013  01:51:00      -80.069      139.346       -0.831       87.523       92.329       57.229     7660.314     8524.629     3275.156        2.264        0.973      160.713       37.980        0.056      347.525       26.556      862.368
07/23/2013  01:52:00      -91.493       69.544       17.913      120.455       98.812       70.712    14509.296     9763.900     5000.240        2.140        1.464      114.923       75.266        0.429      347.557       26.610      862.419
07/23/2013  01:53:00     -111.711       86.443      -18.823       54.743       79.743       38.416     2996.824     6359.001     1475.767        1.557        0.542      141.251       24.145        0.029      347.593       26.674      862.393
07/23/2013  01:54:00     -105.223      130.553       -8.719       79.432       91.719       47.295     6309.444     8412.389     2236.785        2.257        0.848      167.678       40.521        0.058      347.564       26.623      862.370
07/23/2013  01:55:00     -131.348      117.721      -26.873      128.242       91.023       48.611    16446.138     8285.215     2363.041        2.946        1.355      176.382       59.060        0.112      347.597       26.679      862.389
07/23/2013  01:56:00     -149.150       -2.344       -9.406      109.394       99.523       36.685    11966.995     9904.815     1345.767        2.277        1.161      149.169       43.597        0.085      347.526       26.558      862.424
07/23/2013  01:57:00     -160.040      -29.247      -11.451      147.893      112.664       48.709    21872.450    12693.203     2372.554        3.176        1.847      162.690       60.162        0.137      347.616       26.712      862.470
07/23/2013  01:58:00       -1.884      -17.611        7.480       52.958       76.626       46.677     2804.570     5871.564     2178.699        0.561        0.543       17.712       45.153        6.499      347.568       26.634      862.500
07/23/2013  01:59:00      -45.225       48.200       -3.785       43.273       77.937       29.525     1872.569     6074.147      871.717        0.660        0.441       66.095       18.024        0.074      347.543       26.586      862.529
07/23/2013  02:00:00      -37.600       92.905       -0.623       60.739       94.712       36.901     3689.272     8970.379     1361.694        1.203        0.701      100.225       48.136        0.231      347.532       26.570      862.515
07/23/2013  02:01:00      -91.519       23.111       -0.293       53.463       54.664       35.474     2858.260     2988.176     1258.435        0.801        0.355       94.392       18.381        0.038      347.509       26.528      862.537
07/23/2013  02:02:00     -147.645       -4.429      -17.263       86.943       54.602       32.985     7559.155     2981.331     1088.028        1.687        0.581      147.712       41.229        0.078      347.561       26.618      862.556
07/23/2013  02:03:00     -115.855      -43.262        2.782       62.255       49.317       34.220     3875.703     2432.182     1170.991        1.139        0.374      123.669       29.005        0.055      347.520       26.546      862.583
07/23/2013  02:04:00      -31.476       82.290        0.574       45.998       78.337       30.788     2115.837     6136.662      947.901        0.848        0.460       88.104       39.989        0.206      347.437       26.404      862.583
07/23/2013  02:05:00      -58.304      102.242      -11.339       44.467       58.525       33.597     1977.317     3425.135     1128.777        1.025        0.327      117.698       30.038        0.065      347.449       26.426      862.569
07/23/2013  02:06:00     -123.666      156.295      -26.027       82.294      148.716       48.880     6772.345    22116.458     2389.225        3.583        1.564      199.303       66.133        0.110      347.488       26.491      862.557
07/23/2013  02:07:00     -148.445      264.675      -41.579       99.856      119.238       46.977     9971.246    14217.596     2206.806        6.010        1.320      303.461       47.375        0.024      347.490       26.494      862.521
07/23/2013  02:08:00      -37.146      162.908      -15.620       82.711      102.780       56.916     6841.028    10563.778     3239.464        2.440        1.032      167.089       56.637        0.115      347.379       26.301      862.512
07/23/2013  02:09:00     -175.759       20.893      -16.974      109.010      122.017       44.196    11883.133    14888.065     1953.243        3.016        1.436      176.997       38.738        0.048      347.405       26.348      862.544
07/23/2013  02:10:00     -141.390      -64.404       -5.797      110.724       72.404       44.307    12259.859     5242.282     1963.118        2.182        0.973      155.368       37.402        0.058      347.402       26.342      862.556
07/23/2013  02:11:00      -91.384      -32.920       11.084       65.326       75.716       31.471     4267.477     5732.916      990.414        1.027        0.550       97.133       15.579        0.026      347.337       26.231      862.549
07/23/2013  02:12:00      -34.185       19.385        6.063       73.735       28.014       32.013     5436.797      784.768     1024.830        0.441        0.362       39.299       39.463        1.008      347.314       26.195      862.502
07/23/2013  02:13:00     -108.936       46.924      -19.229       44.643       35.287       30.343     1992.992     1245.190      920.712        0.930        0.208      118.613       22.568        0.036      347.397       26.337      862.488
07/23/2013  02:14:00      -99.360       81.815       -2.780       73.818       69.635       43.166     5449.032     4849.013     1863.325        1.437        0.608      128.709       42.552        0.109      347.282       26.138      862.481
07/23/2013  02:15:00     -135.820       47.677      -18.127       67.810       60.429       32.370     4598.261     3651.663     1047.807        1.517        0.465      143.946       31.435        0.048      347.285       26.144      862.483
07/23/2013  02:16:00     -112.510      -34.995       -0.648       70.111       73.708       35.299     4915.575     5432.843     1246.021        1.274        0.580      117.827       35.041        0.088      347.295       26.159      862.477
07/23/2013  02:17:00     -272.900      -57.290      -11.662       97.136       96.954       42.941     9435.344     9400.059     1843.918        4.928        1.034      278.848       43.686        0.025      347.318       26.198      862.457
07/23/2013  02:18:00     -131.299      157.843      -30.854       55.907      122.234       48.294     3125.573    14941.145     2332.332        3.175        1.020      205.314       47.451        0.053      347.203       25.999      862.475
07/23/2013  02:19:00     -201.204      227.400      -44.274       80.980       85.424       44.823     6557.768     7297.226     2009.126        5.501        0.793      303.635       44.276        0.021      347.363       26.273      862.505
07/23/2013  02:20:00     -199.415      103.160      -35.307      119.896       44.017       34.549    14375.098     1937.535     1193.628        3.458        0.875      224.518       31.144        0.019      347.396       26.333      862.521
07/23/2013  02:21:00     -108.518      103.627      -23.146       67.743       67.792       41.137     4589.167     4595.768     1692.225        1.696        0.544      150.049       41.926        0.078      347.301       26.169      862.526
07/23/2013  02:22:00      -83.269       69.654      -16.788       67.321       84.992       42.244     4532.101     7223.571     1784.535        1.280        0.677      108.561       31.534        0.084      347.315       26.194      862.513
07/23/2013  02:23:00        2.487      114.187       -2.024       38.896       61.074       34.496     1512.871     3730.020     1189.946        0.974        0.322      114.214       35.164        0.095      347.121       25.861      862.533
07/23/2013  02:24:00      -12.763      171.718      -22.177       47.935       37.861       25.348     2297.777     1433.474      642.509        1.726        0.219      172.191       16.753        0.009      347.036       25.714      862.554
07/23/2013  02:25:00      -34.227      119.370      -17.735       24.404       36.293       18.508      595.537     1317.146      342.536        0.899        0.113      124.181       18.542        0.022      347.019       25.685      862.565
07/23/2013  02:26:00      -60.091       90.847      -12.475       22.218       41.077       21.884      493.639     1687.321      478.931        0.734        0.133      108.923       16.831        0.024      346.990       25.635      862.570
07/23/2013  02:27:00      -57.360       58.163      -14.048       31.870       33.223       18.315     1015.687     1103.765      335.446        0.466        0.123       81.689       15.491        0.036      347.069       25.772      862.580
07/23/2013  02:28:00      -76.536      -12.632       -5.441       31.907       24.811       18.151     1018.039      615.562      329.474        0.400        0.098       77.572       18.130        0.055      347.090       25.806      862.588
07/23/2013  02:29:00      -42.895      -18.399       15.215       47.815       34.834       25.132     2286.289     1213.431      631.619        0.327        0.207       46.674       26.935        0.333      346.996       25.645      862.598
07/23/2013  02:30:00      -25.337      -19.025        5.394       29.842       29.066       19.851      890.525      844.810      394.061        0.158        0.106       31.685       17.263        0.297      347.005       25.662      862.582
07/23/2013  02:31:00       11.577       24.270       11.744       15.667       48.244       18.427      245.453     2327.456      339.549        0.189        0.146       26.890       16.602        0.381      346.942       25.551      862.558
07/23/2013  02:32:00       -4.577       99.124      -10.872       30.309       22.100       18.344      918.646      488.416      336.496        0.585        0.087       99.230       10.050        0.010      347.001       25.654      862.551
07/23/2013  02:33:00      -41.198      103.535       -7.701       32.168       39.459       23.028     1034.769     1557.044      530.310        0.780        0.156      111.431       19.116        0.029      346.954       25.573      862.576
07/23/2013  02:34:00      -76.270       31.272      -13.198       31.635       50.233       20.965     1000.779     2523.345      439.550        0.547        0.198       82.432       27.209        0.109      346.726       25.180      862.598
07/23/2013  02:35:00      -65.020       -5.048       11.935       40.466       31.128       26.998     1637.526      968.972      728.902        0.386        0.167       65.216       20.862        0.102      346.777       25.268      862.595
07/23/2013  02:36:00       13.229       -6.231        4.128       41.387       32.416       20.561     1712.853     1050.822      422.737        0.171        0.159       14.623       13.063        0.798      346.779       25.272      862.558
07/23/2013  02:37:00      -26.764       30.313       -8.617       34.837       27.684       14.367     1213.596      766.409      206.425        0.195        0.109       40.438       11.332        0.079      346.789       25.290      862.546
07/23/2013  02:38:00      -62.229       26.600       -9.573       24.158       23.448       11.764      583.606      549.825      138.398        0.297        0.064       67.676       16.273        0.058      346.810       25.327      862.554
07/23/2013  02:39:00      -86.969       41.848      -14.295       41.732       29.075       15.873     1741.524      845.370      251.953        0.618        0.142       96.513       17.368        0.032      346.824       25.350      862.572
07/23/2013  02:40:00      -37.317      112.896      -15.355       45.735       59.467       17.403     2091.704     3536.359      302.872        1.015        0.297      118.904       20.332        0.029      346.866       25.421      862.580
07/23/2013  02:41:00      -87.170      143.341      -23.198       42.827       34.702       28.535     1834.111     1204.255      814.234        1.627        0.193      167.766       23.838        0.020      346.716       25.163      862.593
07/23/2013  02:42:00      -43.083      221.056      -23.176       34.639       67.817       25.209     1199.858     4599.184      635.512        2.885        0.322      225.215       30.249        0.018      346.655       25.056      862.564
07/23/2013  02:43:00      -93.900      131.669      -23.489       37.891       81.383       27.638     1435.705     6623.157      763.844        1.776        0.441      161.722       25.194        0.024      346.584       24.936      862.549
07/23/2013  02:44:00      -45.232       83.807        1.802       59.163       96.672       31.743     3500.207     9345.461     1007.650        1.146        0.693       95.234       44.419        0.218      346.577       24.925      862.535
07/23/2013  02:45:00      -99.129      131.119      -15.524       62.257       67.771       35.467     3875.920     4592.868     1257.904        1.849        0.486      164.374       27.262        0.028      346.530       24.842      862.537
07/23/2013  02:46:00     -134.843      149.514      -36.069       77.245       77.832       38.537     5966.754     6057.824     1485.077        2.767        0.675      201.338       51.948        0.067      346.541       24.862      862.522
07/23/2013  02:47:00     -186.244      257.076      -48.260       53.054       61.987       41.910     2814.735     3842.436     1756.407        5.576        0.421      317.451       36.497        0.013      346.571       24.909      862.493
07/23/2013  02:48:00     -131.721      191.208      -24.882       61.074       61.467       38.696     3730.006     3778.138     1497.385        3.177        0.450      232.188       35.934        0.024      346.652       25.049      862.480
07/23/2013  02:49:00     -177.676      222.601      -43.066       60.795       87.506       38.709     3695.993     7657.273     1498.395        4.791        0.643      284.816       38.573        0.018      346.514       24.812      862.467
07/23/2013  02:50:00     -152.886      202.865      -40.300       75.731       68.702       47.197     5735.140     4719.945     2227.517        3.941        0.634      254.024       46.578        0.034      346.444       24.692      862.445
07/23/2013  02:51:00      -89.877      179.692       -9.582       61.145       92.980       41.620     3738.702     8645.260     1732.231        2.728        0.706      200.915       38.579        0.037      346.373       24.571      862.426
07/23/2013  02:52:00     -123.933      118.710      -21.569       53.093       93.200       42.242     2818.825     8686.218     1784.350        2.160        0.664      171.614       40.960        0.057      346.452       24.709      862.399
07/23/2013  02:53:00      -72.448       68.890      -16.844       45.243       67.859       27.149     2046.895     4604.847      737.089        0.883        0.369       99.973       21.527        0.046      346.391       24.606      862.405
07/23/2013  02:54:00     -108.951       71.822      -30.897       45.105       59.203       29.243     2034.482     3504.999      855.167        1.219        0.320      130.494       12.795        0.010      346.417       24.648      862.438
07/23/2013  02:55:00      -93.021       90.555      -16.386       53.024       56.261       29.317     2811.494     3165.252      859.489        1.198        0.342      129.820       30.851        0.056      346.449       24.703      862.423
07/23/2013  02:56:00      -70.894      101.489      -12.889       62.156       54.291       30.030     3863.414     2947.567      901.822        1.160        0.386      123.798       29.730        0.058      346.593       24.951      862.382
07/23/2013  02:57:00      -63.361      143.080      -20.182       37.043       57.861       21.954     1372.166     3347.906      481.963        1.505        0.260      156.482       19.499        0.016      346.469       24.739      862.408
07/23/2013  02:58:00     -110.749      117.026      -17.221       47.122       53.157       29.359     2220.455     2825.620      861.942        1.608        0.295      161.123       24.066        0.022      346.541       24.861      862.411
07/23/2013  02:59:00      -87.677       56.282      -13.673       40.896       37.275       22.540     1672.455     1389.444      508.040        0.731        0.178      104.187       18.517        0.032      346.543       24.866      862.396
07/23/2013  03:00:00      -55.518       35.294       -0.211       29.450       42.338       21.071      867.301     1792.501      443.971        0.372        0.155       65.786       22.083        0.113      346.597       24.961      862.406
07/23/2013  03:01:00      -25.719       95.699      -11.960       23.627       34.332       21.840      558.237     1178.700      476.974        0.609        0.111       99.094       19.775        0.040      346.633       25.020      862.416
07/23/2013  03:02:00      -45.110      214.072      -32.436       25.699       38.080       25.895      660.430     1450.104      670.526        2.585        0.139      218.773       20.412        0.009      346.543       24.863      862.408
07/23/2013  03:03:00      -51.648      244.913      -31.639       70.560       78.515       32.227     4978.671     6164.616     1038.561        3.791        0.609      250.299       36.966        0.022      346.479       24.752      862.414
07/23/2013  03:04:00      -81.126       55.020        5.286       49.549       81.374       39.076     2455.119     6621.801     1526.913        1.012        0.530       98.024       44.124        0.203      346.448       24.702      862.455
07/23/2013  03:05:00      -90.981       95.012      -14.572       47.587       59.834       30.601     2264.529     3580.071      936.418        1.215        0.339      131.548       25.506        0.038      346.370       24.568      862.471
07/23/2013  03:06:00     -141.745      143.936      -36.219       55.574      115.481       48.521     3088.484    13335.871     2354.251        3.045        0.939      202.013       46.164        0.052      346.403       24.623      862.485
07/23/2013  03:07:00     -148.639      162.480      -38.807       42.211       54.817       33.951     1781.773     3004.910     1152.662        2.797        0.297      220.212       26.395        0.014      346.401       24.620      862.498
07/23/2013  03:08:00     -119.450      222.186      -36.792       88.423       95.599       53.417     7818.624     9139.244     2853.392        4.240        0.991      252.260       52.908        0.044      346.357       24.543      862.485
07/23/2013  03:09:00     -137.940      231.035      -36.479       76.359      106.070       55.963     5830.771    11250.857     3131.901        4.697        1.011      269.081       64.590        0.058      346.294       24.436      862.470
07/23/2013  03:10:00      -85.607      252.878      -28.082       73.255      102.928       42.651     5366.257    10594.138     1819.125        4.492        0.889      266.976       48.333        0.033      346.254       24.365      862.444
07/23/2013  03:11:00      -87.976      139.315      -15.263       63.349       77.686       37.017     4013.064     6035.046     1370.242        1.940        0.571      164.768       29.418        0.032      346.239       24.342      862.434
07/23/2013  03:12:00     -118.787      170.727      -34.254       57.455       66.153       35.365     3301.122     4376.221     1250.708        2.668        0.446      207.986       32.156        0.024      346.287       24.423      862.393
07/23/2013  03:13:00      -83.598      161.583      -19.309       61.488       97.944       42.480     3780.734     9592.966     1804.573        2.432        0.759      181.928       47.682        0.069      346.295       24.437      862.351
07/23/2013  03:14:00     -149.677      233.429      -31.850       69.289       79.774       47.527     4801.002     6363.970     2258.788        4.566        0.671      277.295       42.401        0.023      346.309       24.461      862.347
07/23/2013  03:15:00     -169.946      205.362      -43.290       67.464       69.523       45.155     4551.403     4833.415     2038.962        4.217        0.571      266.561       43.649        0.027      346.314       24.468      862.353
07/23/2013  03:16:00     -134.597      150.268      -25.279       65.248       80.287       45.611     4257.294     6446.019     2080.400        2.706        0.639      201.734       42.250        0.044      346.318       24.476      862.345
07/23/2013  03:17:00      -50.045       98.040       -9.120       50.208       42.206       25.497     2520.886     1781.339      650.121        0.857        0.248      110.074       25.661        0.054      346.303       24.453      862.346
07/23/2013  03:18:00      -87.253       39.412      -11.947       43.994       40.537       24.147     1935.488     1643.244      583.064        0.673        0.208       95.741       19.921        0.043      346.308       24.464      862.358
07/23/2013  03:19:00     -141.924       49.090      -13.173       57.068       58.279       41.437     3256.787     3396.483     1717.037        1.555        0.419      150.174       31.150        0.043      346.376       24.579      862.390
07/23/2013  03:20:00      -61.474      110.946      -20.636       60.597       43.648       32.355     3672.019     1905.190     1046.870        1.157        0.331      126.839       28.120        0.049      346.405       24.629      862.417
07/23/2013  03:21:00      -51.158       99.525       -9.524       36.730       53.577       22.453     1349.126     2870.525      504.134        0.867        0.236      111.903       10.334        0.009      346.436       24.681      862.442
07/23/2013  03:22:00      -34.423      124.050      -18.463       37.777       39.582       15.250     1427.123     1566.763      232.575        1.007        0.161      128.737       11.792        0.008      346.472       24.743      862.475
07/23/2013  03:23:00      -34.219       86.473       -9.500       14.522       17.432       14.227      210.890      303.891      202.396        0.473        0.036       92.997       11.405        0.015      346.399       24.618      862.538
07/23/2013  03:24:00      -72.572       78.496      -19.877       24.956       30.359       15.347      622.825      921.696      235.526        0.680        0.089      106.903       18.363        0.030      346.389       24.601      862.572
07/23/2013  03:25:00      -16.964      123.758      -11.307       32.894       42.390       23.201     1082.028     1796.882      538.301        0.957        0.171      124.915       21.503        0.030      346.469       24.740      862.586
07/23/2013  03:26:00      -29.266      124.030      -10.500       34.060       31.892       23.392     1160.063     1017.074      547.189        0.954        0.136      127.436       19.150        0.023      346.435       24.680      862.618
07/23/2013  03:27:00      -25.339      111.517      -13.600       36.170       41.943       21.271     1308.255     1759.209      452.468        0.839        0.176      114.359       19.544        0.029      346.415       24.646      862.638
07/23/2013  03:28:00      -71.505      104.907      -14.590       46.888       61.465       26.641     2198.446     3777.928      709.753        1.151        0.334      126.959       22.691        0.032      346.272       24.400      862.655
07/23/2013  03:29:00      -52.878       54.398       -8.073       26.224       34.349       16.414      687.687     1179.858      269.408        0.398        0.107       75.863       14.397        0.036      346.358       24.548      862.653
07/23/2013  03:30:00      -44.219      122.279      -14.705       44.356       63.122       25.243     1967.459     3984.328      637.196        1.185        0.329      130.028       29.586        0.052      346.453       24.711      862.659
07/23/2013  03:31:00      -78.097      105.210      -18.578       56.754       34.967       21.146     3221.006     1222.666      447.137        1.120        0.245      131.028       20.896        0.025      346.511       24.811      862.662
07/23/2013  03:32:00      -65.411      118.541      -23.314       48.137       41.005       19.860     2317.134     1681.427      394.425        1.163        0.220      135.391       18.475        0.019      346.485       24.767      862.661
07/23/2013  03:33:00     -132.335       55.796      -13.699       51.239       46.769       36.362     2625.482     2187.325     1322.218        1.347        0.307      143.616       28.928        0.041      346.476       24.752      862.661
07/23/2013  03:34:00      -85.931      123.452      -26.042       48.704       50.560       29.218     2372.106     2556.346      853.707        1.454        0.289      150.415       30.317        0.041      346.450       24.704      862.648
07/23/2013  03:35:00      -95.871      117.106      -20.665       51.770       61.003       37.469     2680.088     3721.424     1403.953        1.557        0.390      151.344       25.265        0.028      346.420       24.654      862.633
07/23/2013  03:36:00     -109.516      185.871      -30.641       70.924       84.512       38.918     5030.170     7142.238     1514.629        3.058        0.684      215.736       33.930        0.025      346.414       24.641      862.625
07/23/2013  03:37:00     -116.422      270.461      -32.197       66.245      105.552       47.264     4388.438    11141.253     2233.887        5.275        0.888      294.454       50.148        0.029      346.386       24.593      862.602
07/23/2013  03:38:00     -141.989      299.922      -39.951       81.329       91.096       49.944     6614.395     8298.447     2494.417        6.456        0.870      331.835       48.671        0.022      346.407       24.628      862.579
07/23/2013  03:39:00      -91.512      208.917      -22.814       68.138       78.987       34.848     4642.787     6238.962     1214.378        3.232        0.605      228.080       38.631        0.029      346.431       24.671      862.560
07/23/2013  03:40:00      -91.424       77.927      -12.847       60.087       68.724       37.265     3610.446     4723.000     1388.673        1.216        0.486      120.130       26.022        0.047      346.463       24.727      862.540
07/23/2013  03:41:00     -108.561      104.801      -18.392       48.970       55.761       30.945     2398.088     3109.303      957.619        1.478        0.323      150.893       30.481        0.041      346.436       24.683      862.520
07/23/2013  03:42:00      -94.665      131.028      -17.118       58.422       72.307       33.604     3413.137     5228.287     1129.233        1.809        0.489      161.647       27.112        0.028      346.472       24.743      862.516
07/23/2013  03:43:00     -152.206      138.425      -29.126       72.866       54.175       52.978     5309.474     2934.980     2806.616        2.711        0.553      205.739       42.029        0.042      346.420       24.651      862.514
07/23/2013  03:44:00     -113.247      229.471      -19.896       66.900      104.238       55.433     4475.558    10865.594     3072.766        4.214        0.921      255.894       65.334        0.065      346.407       24.631      862.505
07/23/2013  03:45:00     -142.690      211.288      -33.698       65.039       95.226       45.855     4230.136     9068.066     2102.651        4.077        0.770      254.958       38.596        0.023      346.429       24.667      862.511
07/23/2013  03:46:00     -171.351      218.828      -44.066       81.649      114.189       49.888     6666.536    13039.205     2488.778        5.069        1.110      277.933       45.945        0.027      346.497       24.783      862.532
07/23/2013  03:47:00     -128.259      228.267      -23.439       77.758       72.170       47.823     6046.302     5208.482     2287.028        4.132        0.677      261.832       43.397        0.027      346.461       24.720      862.558
07/23/2013  03:48:00      -82.966      184.924      -15.133       45.679       98.179       40.748     2086.545     9639.153     1660.427        2.735        0.669      202.683       46.267        0.052      346.409       24.633      862.568
07/23/2013  03:49:00     -124.449      147.957      -32.679       60.383       65.972       45.817     3646.070     4352.290     2099.182        2.427        0.505      193.336       37.846        0.038      346.447       24.699      862.586
07/23/2013  03:50:00     -123.335      199.507      -24.519       46.388       55.914       37.793     2151.816     3126.387     1428.326        3.116        0.335      234.552       31.865        0.018      346.425       24.658      862.605
07/23/2013  03:51:00     -151.475       97.473      -15.050       48.452       51.710       35.786     2347.594     2673.953     1280.642        1.949        0.315      180.127       26.547        0.022      346.457       24.718      862.629
07/23/2013  03:52:00     -146.751      118.537      -26.115       49.167       42.514       30.853     2417.430     1807.440      951.882        2.072        0.259      188.645       26.160        0.019      346.442       24.690      862.633
07/23/2013  03:53:00      -92.817       67.867       -8.245       46.848       45.845       30.450     2194.692     2101.729      927.207        0.926        0.261      114.982       26.564        0.053      346.398       24.616      862.622
07/23/2013  03:54:00      -98.328       47.140      -16.185       54.472       37.416       27.082     2967.234     1399.925      733.419        0.863        0.255      109.044       23.144        0.045      346.383       24.592      862.623
07/23/2013  03:55:00     -144.949       65.462      -24.213       52.795       49.870       36.537     2787.284     2487.058     1334.943        1.624        0.330      159.046       28.464        0.032      346.411       24.639      862.626
07/23/2013  03:56:00     -153.179       27.900       -8.150       46.756       51.898       32.852     2186.170     2693.436     1079.225        1.513        0.298      155.699       19.332        0.015      346.376       24.578      862.620
07/23/2013  03:57:00     -169.055       54.892      -21.408       67.658       77.729       44.080     4577.573     6041.772     1943.022        2.230        0.628      177.744       39.851        0.050      346.357       24.545      862.621
07/23/2013  03:58:00      -44.284       19.923        8.210       74.777       61.168       38.358     5591.585     3741.548     1471.338        0.661        0.540       48.559       44.069        0.824      346.283       24.420      862.615
07/23/2013  03:59:00     -154.892      165.751      -41.934       77.915       69.157       39.910     6070.743     4782.627     1592.827        3.283        0.622      226.859       31.751        0.020      346.317       24.474      862.643
07/23/2013  04:00:00     -145.339      134.351      -30.832       81.274       87.440       46.474     6605.441     7645.676     2159.827        2.826        0.821      197.923       61.314        0.096      346.303       24.451      862.647
07/23/2013  04:01:00     -145.134      158.385      -26.076       76.631       78.060       51.456     5872.354     6093.296     2647.734        3.072        0.731      214.825       43.197        0.040      346.285       24.418      862.648
07/23/2013  04:02:00     -210.106      163.443      -57.093       77.233       73.101       39.966     5964.918     5343.789     1597.307        4.351        0.645      266.192       30.082        0.013      346.321       24.482      862.641
07/23/2013  04:03:00      -87.007      101.405      -25.132       39.506       64.916       30.741     1560.688     4214.096      945.023        1.260        0.336      133.616       19.420        0.021      346.272       24.400      862.627
07/23/2013  04:04:00      -80.999       79.938       -9.582       37.670       40.848       25.254     1419.063     1668.538      637.759        0.838        0.186      113.802       17.567        0.024      346.231       24.328      862.620
07/23/2013  04:05:00     -124.096       28.718      -14.899       36.434       60.252       24.004     1327.442     3630.284      576.203        1.099        0.277      127.376       25.448        0.040      346.285       24.422      862.612
07/23/2013  04:06:00      -98.913       55.329       -7.490       45.065       42.088       35.401     2030.887     1771.398     1253.254        0.898        0.253      113.337       27.291        0.058      346.301       24.451      862.597
07/23/2013  04:07:00      -80.178       82.994      -11.661       32.299       43.630       29.731     1043.222     1903.614      883.929        0.864        0.192      115.397       23.130        0.040      346.302       24.451      862.582
07/23/2013  04:08:00      -89.518       74.487      -17.066       28.841       33.749       21.114      831.799     1138.998      445.802        0.813        0.121      116.455       14.563        0.016      346.262       24.384      862.592
07/23/2013  04:09:00      -97.855       41.117       -7.505       38.667       47.749       29.054     1495.147     2280.006      844.144        0.797        0.231      106.142       12.292        0.013      346.236       24.339      862.592
07/23/2013  04:10:00     -131.707      122.827      -20.260       66.551       86.388       43.055     4429.036     7462.967     1853.715        2.329        0.687      180.092       41.255        0.052      346.227       24.320      862.578
07/23/2013  04:11:00      -94.755      195.372      -28.914       68.248       72.624       46.283     4657.723     5274.257     2142.072        3.003        0.604      217.138       29.739        0.019      346.237       24.336      862.569
07/23/2013  04:12:00      -89.940       86.200      -18.148       34.444       59.280       25.273     1186.372     3514.104      638.707        1.059        0.267      124.578       22.026        0.031      346.201       24.278      862.560
07/23/2013  04:13:00      -78.931      145.062      -18.286       51.124       81.240       35.880     2613.648     6599.958     1287.343        1.905        0.525      165.146       20.656        0.016      346.211       24.293      862.551
07/23/2013  04:14:00     -192.820      115.253      -32.298       65.901       75.190       39.701     4342.950     5653.553     1576.157        3.154        0.579      224.639       28.502        0.016      346.256       24.368      862.551
07/23/2013  04:15:00      -64.823       66.758       -7.005       48.798       44.236       37.938     2381.289     1956.845     1439.258        0.724        0.289       93.052       28.572        0.094      346.211       24.296      862.544
07/23/2013  04:16:00      -85.629       90.117       -7.068       55.146       69.593       33.088     3041.051     4843.151     1094.822        1.224        0.449      124.311       20.377        0.027      346.214       24.301      862.516
07/23/2013  04:17:00     -117.061       99.641      -21.785       55.304       70.658       31.334     3058.554     4992.592      981.808        1.657        0.452      153.726       25.483        0.027      346.275       24.404      862.503
07/23/2013  04:18:00     -175.395      139.411      -37.925       64.935       77.632       38.595     4216.580     6026.767     1489.565        3.168        0.587      224.051       37.701        0.028      346.443       24.691      862.498
07/23/2013  04:19:00     -148.453       69.791       -9.538       50.745       60.985       36.444     2575.033     3719.149     1328.170        1.731        0.381      164.040       29.438        0.032      346.308       24.460      862.490
07/23/2013  04:20:00     -214.545       68.728      -23.187       92.412       61.481       39.066     8540.034     3779.881     1526.136        3.257        0.692      225.284       32.574        0.021      346.326       24.491      862.478
07/23/2013  04:21:00     -203.775      164.425      -27.172      107.281       89.925       70.010    11509.212     8086.440     4901.462        4.689        1.225      261.839       73.859        0.080      346.292       24.431      862.480
07/23/2013  04:22:00     -211.757      259.744      -53.982       72.062      100.191       52.157     5192.931    10038.321     2720.347        6.658        0.898      335.124       43.909        0.017      346.278       24.406      862.471
07/23/2013  04:23:00     -228.659      244.473      -46.822       89.695      137.174       46.561     8045.243    18816.579     2167.923        7.163        1.451      334.742       45.157        0.018      346.305       24.452      862.467
07/23/2013  04:24:00     -152.299      165.887      -19.770       77.038       98.609       53.441     5934.824     9723.755     2855.906        3.481        0.926      225.196       54.755        0.059      346.230       24.325      862.474
07/23/2013  04:25:00     -224.257      213.362      -39.800      103.319      103.798       64.826    10674.769    10774.012     4202.469        6.152        1.283      309.539       66.379        0.046      346.281       24.411      862.475
07/23/2013  04:26:00     -186.039      210.375      -45.752       80.127       67.472       42.469     6420.390     4552.490     1803.610        4.687        0.639      280.835       41.205        0.022      346.301       24.444      862.462
07/23/2013  04:27:00     -213.118      169.073      -46.111       99.826       69.377       51.716     9965.326     4813.146     2674.569        4.679        0.873      272.039       52.983        0.038      346.294       24.435      862.454
07/23/2013  04:28:00     -142.740      160.680      -30.281       73.296       51.226       36.340     5372.272     2624.075     1320.612        2.821        0.466      214.926       38.467        0.032      346.269       24.392      862.430
07/23/2013  04:29:00     -109.843       91.975      -14.558       84.567       55.248       37.046     7151.637     3052.342     1372.420        1.615        0.579      143.266       40.234        0.079      346.154       24.196      862.403
07/23/2013  04:30:00     -133.588      160.658      -26.917       54.868       67.568       45.929     3010.541     4565.421     2109.436        2.703        0.484      208.942       34.759        0.028      346.295       24.436      862.386
07/23/2013  04:31:00     -169.057      154.485      -30.378       93.714       79.462       44.788     8782.351     6314.191     2005.979        3.523        0.855      229.010       43.047        0.035      346.329       24.495      862.369
07/23/2013  04:32:00     -126.633      195.515      -17.361       71.724       77.293       51.868     5144.278     5974.228     2690.297        3.418        0.690      232.942       46.259        0.039      346.316       24.472      862.345
07/23/2013  04:33:00     -204.891      234.943      -55.683       76.573       68.225       52.478     5863.423     4654.627     2753.947        5.677        0.664      311.735       50.773        0.027      346.357       24.541      862.322
07/23/2013  04:34:00     -173.670      259.102      -41.860       64.930       81.092       50.344     4215.895     6575.832     2534.529        5.618        0.666      311.922       41.265        0.018      346.311       24.463      862.314
07/23/2013  04:35:00     -211.174      219.953      -51.702       72.329       76.850       45.352     5231.415     5905.968     2056.772        5.442        0.660      304.916       39.559        0.017      346.298       24.440      862.298
07/23/2013  04:36:00     -161.279      184.890      -37.249       77.914       78.108       49.850     6070.541     6100.847     2484.979        3.812        0.733      245.347       50.963        0.043      346.310       24.460      862.284
07/23/2013  04:37:00      -82.314      129.472      -18.779       47.918       77.564       31.234     2296.181     6016.146      975.548        1.659        0.464      153.423       25.707        0.028      346.265       24.388      862.267
07/23/2013  04:38:00     -101.463      154.788      -26.516       54.321       78.172       32.636     2950.734     6110.857     1065.123        2.254        0.506      185.079       33.329        0.032      346.251       24.361      862.269
07/23/2013  04:39:00     -128.657      104.801       -7.901       65.784       61.982       37.384     4327.473     3841.819     1397.539        1.858        0.478      165.940       37.792        0.052      346.361       24.553      862.260
07/23/2013  04:40:00     -189.315      175.953      -34.568       65.972       77.271       41.817     4352.250     5970.733     1748.658        4.003        0.604      258.456       41.824        0.026      346.397       24.612      862.256
07/23/2013  04:41:00     -136.856       64.131      -24.202       68.765      118.809       47.369     4728.647    14115.659     2243.810        2.225        1.054      151.137       46.968        0.097      346.450       24.704      862.256
07/23/2013  04:42:00     -135.802       76.878      -17.797       61.955       42.324       31.704     3838.481     1791.335     1005.170        1.565        0.332      156.053       28.289        0.033      346.515       24.818      862.258
07/23/2013  04:43:00     -117.956       98.548      -14.548       80.493       99.378       43.354     6479.202     9876.086     1879.574        2.103        0.912      153.705       42.841        0.078      346.565       24.903      862.253
07/23/2013  04:44:00     -142.786      115.118      -14.327       74.349       94.290       52.460     5527.820     8890.636     2752.084        2.550        0.859      183.412       44.310        0.058      346.646       25.041      862.253
07/23/2013  04:45:00     -117.960      134.479      -23.820       51.560       68.641       38.704     2658.451     4711.539     1498.000        2.072        0.443      178.884       32.463        0.033      346.725       25.177      862.262
07/23/2013  04:46:00      -40.176      126.464       -6.564       54.688       79.896       36.589     2990.761     6383.435     1338.748        1.418        0.536      132.692       41.028        0.096      346.604       24.970      862.273
07/23/2013  04:47:00      -51.240      302.798      -29.097       42.362       65.576       39.693     1794.522     4300.233     1575.562        5.141        0.384      307.102       33.128        0.012      346.291       24.430      862.293
07/23/2013  04:48:00      -47.960      289.487      -38.070       46.108       61.070       25.665     2125.949     3729.534      658.670        4.703        0.326      293.433       17.421        0.004      346.267       24.387      862.303
07/23/2013  04:49:00      -45.697      185.633      -20.392       41.939       56.376       30.839     1758.917     3178.290      951.022        2.142        0.294      191.175       29.018        0.023      346.180       24.239      862.315
07/23/2013  04:50:00      -15.802      226.411      -31.053       54.783       42.119       31.256     3001.181     1774.026      976.941        2.911        0.288      226.961       23.700        0.011      346.096       24.093      862.319
07/23/2013  04:51:00      -47.240      215.348      -23.407       48.873       69.059       32.985     2388.523     4769.104     1087.995        2.870        0.412      220.469       36.731        0.028      346.082       24.070      862.327
07/23/2013  04:52:00      -27.169      190.328      -22.835       51.449       80.612       32.701     2646.949     6498.350     1069.382        2.385        0.511      192.257       38.447        0.040      346.084       24.074      862.328
07/23/2013  04:53:00      -89.860      188.196      -28.938       75.606       75.747       48.970     5716.234     5737.615     2398.070        2.909        0.693      208.549       46.212        0.049      346.156       24.197      862.324
07/23/2013  04:54:00      -94.255      214.992      -30.734       60.373       59.568       37.990     3644.905     3548.363     1443.229        3.234        0.432      234.746       23.674        0.010      346.158       24.199      862.327
07/23/2013  04:55:00      -74.727      296.899      -28.809       56.051       74.877       36.754     3141.687     5606.546     1350.846        5.233        0.505      306.159       36.334        0.014      346.155       24.193      862.320
07/23/2013  04:56:00     -108.028      197.942      -31.108       55.758       49.457       34.943     3108.978     2445.979     1220.991        2.930        0.339      225.502       32.117        0.020      346.119       24.133      862.329
07/23/2013  04:57:00      -78.558      119.758      -24.861       47.672       44.128       27.669     2272.648     1947.312      765.572        1.306        0.249      143.225       26.086        0.033      346.087       24.082      862.328
07/23/2013  04:58:00      -57.170      180.648      -19.783       42.073       46.548       28.944     1770.104     2166.758      837.753        2.053        0.239      189.479       15.349        0.007      346.062       24.038      862.313
07/23/2013  04:59:00      -78.821      184.099      -15.141       62.571      118.540       39.764     3915.069    14051.697     1581.196        2.994        0.977      200.263       41.112        0.042      346.083       24.074      862.296
07/23/2013  05:00:00      -74.881      188.791      -16.514       58.633       87.120       33.275     3437.846     7589.947     1107.243        2.683        0.607      203.099       38.086        0.035      346.046       24.008      862.292
07/23/2013  05:01:00      -49.239      272.113      -30.967       45.525       75.064       32.704     2072.504     5634.622     1069.525        4.310        0.439      276.532       30.708        0.012      346.108       24.113      862.291
07/23/2013  05:02:00     -109.061      151.493      -21.538       54.949       52.901       34.643     3019.354     2798.558     1200.141        2.116        0.351      186.667       25.785        0.019      346.069       24.047      862.275
07/23/2013  05:03:00     -121.171      196.107      -28.740       47.943       52.077       32.461     2298.546     2712.023     1053.698        3.001        0.303      230.522       27.606        0.014      346.110       24.117      862.277
07/23/2013  05:04:00     -105.328      141.483      -15.179       66.114       66.180       31.161     4371.075     4379.744      971.000        2.053        0.486      176.384       34.715        0.039      346.080       24.069      862.281
07/23/2013  05:05:00      -87.719      132.515      -20.028       41.919       46.676       25.481     1757.186     2178.692      649.265        1.512        0.229      158.918       20.973        0.017      346.040       24.001      862.290
07/23/2013  05:06:00      -45.360      112.213       -4.697       32.687       68.776       24.016     1068.434     4730.205      576.785        1.052        0.319      121.034       20.983        0.030      346.021       23.968      862.304
07/23/2013  05:07:00      -98.898       97.363      -23.609       52.832       49.464       25.076     2791.254     2446.675      628.797        1.284        0.293      138.782       31.586        0.052      346.115       24.131      862.333
07/23/2013  05:08:00     -119.790      100.122      -22.243       70.436       69.843       38.093     4961.218     4878.030     1451.067        1.808        0.565      156.122       41.440        0.070      346.132       24.158      862.367
07/23/2013  05:09:00      -66.643       78.885      -12.430       33.187       41.160       24.151     1101.377     1694.178      583.280        0.710        0.169      103.267       21.825        0.045      346.109       24.120      862.380
07/23/2013  05:10:00      -84.080       88.774      -17.642       31.829       42.153       21.594     1013.067     1776.870      466.296        0.926        0.163      122.271       23.300        0.036      346.124       24.146      862.390
07/23/2013  05:11:00      -99.575       91.070      -22.469       31.003       36.534       25.804      961.169     1334.717      665.841        1.084        0.148      134.940       19.942        0.022      346.115       24.128      862.389
07/23/2013  05:12:00      -77.893       83.649      -14.237       31.030       37.749       18.416      962.842     1424.991      339.135        0.800        0.136      114.300       17.915        0.025      346.108       24.119      862.396
07/23/2013  05:13:00      -83.974       56.704      -15.081       22.610       52.410       17.607      511.205     2746.853      309.989        0.703        0.178      101.326       16.962        0.028      346.085       24.078      862.416
07/23/2013  05:14:00      -56.483      -23.576       -4.249       22.099       20.555       15.203      488.344      422.489      231.139        0.245        0.057       61.206       12.178        0.040      345.916       23.789      862.418
07/23/2013  05:15:00      -28.237      -57.165       -2.121       35.539       30.222       17.168     1263.025      913.344      294.745        0.327        0.124       63.758       15.900        0.062      345.904       23.767      862.427
07/23/2013  05:16:00        7.357      -39.040       -7.701       10.643       21.919       11.190      113.273      480.452      125.209        0.118        0.036       39.728        9.371        0.056      345.815       23.617      862.431
07/23/2013  05:17:00      -11.147      -63.660      -15.518       26.279       21.224       13.834      690.596      450.456      191.384        0.287        0.067       64.628       15.570        0.058      345.865       23.701      862.422
07/23/2013  05:18:00       -9.032      -46.809       -0.567       28.198       24.813       16.381      795.133      615.667      268.325        0.198        0.084       47.673       15.139        0.101      345.872       23.712      862.425
07/23/2013  05:19:00      -73.804      -40.245        3.287       30.210       22.747       14.508      912.618      517.423      210.489        0.436        0.082       84.064       15.025        0.032      345.880       23.726      862.439
07/23/2013  05:20:00      -53.078      -47.720       -2.623       34.767       36.946       20.662     1208.748     1364.982      426.916        0.405        0.150       71.376       23.494        0.108      345.887       23.740      862.449
07/23/2013  05:21:00      -45.306      -50.589       -9.377       24.417       19.861       13.676      596.177      394.466      187.045        0.294        0.059       67.910        9.580        0.020      345.934       23.819      862.457
07/23/2013  05:22:00      -16.009      -73.502      -17.689       32.712       30.363       15.509     1070.063      921.899      240.529        0.410        0.112       75.225       16.653        0.049      345.930       23.813      862.450
07/23/2013  05:23:00      -19.472      -93.402        0.860       15.517       12.884       14.715      240.765      165.985      216.523        0.486        0.031       95.410       10.564        0.012      346.035       23.992      862.457
07/23/2013  05:24:00       -2.729      -50.135       -4.819       21.797       30.924       16.041      475.109      956.295      257.330        0.212        0.084       50.209       12.689        0.064      345.927       23.808      862.473
07/23/2013  05:25:00        9.520        7.318       17.702        9.886       11.411        8.050       97.732      130.216       64.801        0.038        0.015       12.008        5.499        0.210      345.683       23.388      862.487
07/23/2013  05:26:00       -3.369       21.556       29.749       10.877       13.674        9.637      118.301      186.984       92.881        0.088        0.020       21.817        8.663        0.158      345.590       23.228      862.500
07/23/2013  05:27:00       -0.595       15.576       26.515        9.034       14.486        8.738       81.616      209.848       76.354        0.066        0.018       15.588        7.620        0.239      345.592       23.233      862.522
07/23/2013  05:28:00        2.184      -17.341       18.223       10.965       16.670       11.095      120.241      277.874      123.100        0.058        0.026       17.478        7.790        0.199      345.615       23.272      862.552
07/23/2013  05:29:00       44.033      -74.659       -8.033       32.106       31.626       15.236     1030.818     1000.229      232.139        0.492        0.113       86.677       17.264        0.040      345.746       23.499      862.575
07/23/2013  05:30:00       84.407      -89.945      -11.341       24.299       27.455       14.526      590.442      753.791      210.991        0.845        0.078      123.348        9.379        0.006      345.810       23.607      862.603
07/23/2013  05:31:00       75.486      -81.169       -6.971       42.091       38.473       29.084     1771.624     1480.145      845.903        0.822        0.205      110.845       27.229        0.060      345.769       23.538      862.629
07/23/2013  05:32:00       14.381       -7.162       42.804       34.647       47.345       34.464     1200.421     2241.502     1187.746        0.336        0.231       16.066       30.785        3.672      345.725       23.462      862.655
07/23/2013  05:33:00       48.259      -43.639       12.752       51.744       59.991       47.330     2677.470     3598.888     2240.093        0.645        0.426       65.063       41.507        0.407      345.741       23.489      862.672
07/23/2013  05:34:00       22.033       -1.901       26.492       37.943       47.219       34.304     1439.674     2229.621     1176.773        0.302        0.242       22.115       25.967        1.379      345.554       23.165      862.689
07/23/2013  05:35:00       33.093      -41.051       35.877       41.588       59.087       42.692     1729.569     3491.316     1822.624        0.555        0.352       52.728       33.479        0.403      345.642       23.319      862.699
07/23/2013  05:36:00       58.491     -103.951       -4.344       43.253       54.738       38.450     1870.855     2996.196     1478.424        1.029        0.317      119.277       25.396        0.045      345.718       23.449      862.710
07/23/2013  05:37:00       35.706      -70.132       22.785       45.113       45.378       38.343     2035.221     2059.144     1470.222        0.614        0.278       78.698       30.099        0.146      345.665       23.359      862.711
07/23/2013  05:38:00       -3.512      -48.187       33.402       22.364       51.688       29.896      500.157     2671.625      893.789        0.376        0.203       48.315       27.325        0.320      345.669       23.364      862.721
07/23/2013  05:39:00       -8.573        4.921       39.594       21.737       30.313       20.649      472.505      918.869      426.390        0.174        0.091        9.885        9.587        0.941      345.597       23.241      862.734
07/23/2013  05:40:00       42.829      -20.698       18.713       46.489       45.429       29.049     2161.254     2063.780      843.858        0.384        0.253       47.569       30.847        0.421      345.619       23.278      862.754
07/23/2013  05:41:00       26.155       -3.802       22.935       33.067       31.373       19.254     1093.451      984.271      370.734        0.184        0.122       26.430       14.979        0.321      345.577       23.207      862.775
07/23/2013  05:42:00        6.413        0.427       13.082       20.218       17.972       12.090      408.757      322.999      146.162        0.055        0.044        6.427        8.431        1.721      345.510       23.092      862.787
07/23/2013  05:43:00       42.090      -17.615       26.990       35.418       27.826       20.953     1254.466      774.281      439.035        0.264        0.123       45.628       15.826        0.120      345.598       23.242      862.779
07/23/2013  05:44:00        8.777      -24.126       22.145       31.774       40.046       32.096     1009.557     1603.690     1030.135        0.240        0.182       25.673       31.553        1.511      345.651       23.334      862.770
07/23/2013  05:45:00      -43.945      -80.167        8.600       53.879       58.754       30.913     2902.993     3452.055      955.615        0.787        0.366       91.421       17.846        0.038      345.673       23.371      862.749
07/23/2013  05:46:00      -23.179      -36.626        2.777       29.102       30.885       25.950      846.945      953.866      673.423        0.218        0.124       43.344       22.527        0.270      345.628       23.295      862.748
07/23/2013  05:47:00      -45.142       -3.184       -8.433       37.186       34.267       12.679     1382.790     1174.257      160.751        0.242        0.136       45.255       10.567        0.055      345.615       23.271      862.767
07/23/2013  05:48:00      -71.701       -3.489        1.617       45.166       24.566       17.681     2039.994      603.496      312.608        0.406        0.148       71.786       19.939        0.077      345.509       23.090      862.796
07/23/2013  05:49:00     -110.163      -20.309       -0.534       47.709       33.492       24.687     2276.193     1121.687      609.457        0.828        0.200      112.019       22.963        0.042      345.447       22.984      862.804
07/23/2013  05:50:00      -99.235        0.253        7.355       49.230       45.330       29.251     2423.553     2054.818      855.634        0.762        0.267       99.235       29.633        0.089      345.403       22.908      862.802
07/23/2013  05:51:00     -131.393      -40.583       -6.702       50.221       40.780       22.483     2522.176     1663.019      505.479        1.182        0.235      137.518       23.082        0.028      345.241       22.630      862.794
07/23/2013  05:52:00     -119.002       16.355       -3.865       52.478       41.204       28.507     2753.889     1697.741      812.651        0.985        0.263      120.120       24.853        0.043      345.101       22.391      862.799
07/23/2013  05:53:00     -175.387        3.000       -5.721       40.528       37.114       24.662     1642.507     1377.468      608.211        1.721        0.181      175.412       20.163        0.013      345.151       22.477      862.826
07/23/2013  05:54:00     -108.628       -3.297        1.683       67.835       29.167       27.773     4601.652      850.714      771.350        0.902        0.311      108.678       35.869        0.109      345.095       22.380      862.855
07/23/2013  05:55:00      -76.579      -39.920        1.458       42.083       35.420       17.954     1770.990     1254.590      322.354        0.540        0.167       86.360       18.471        0.046      345.115       22.415      862.876
07/23/2013  05:56:00      -74.033      -29.642       -2.920       27.010       26.370       15.133      729.516      695.352      229.015        0.401        0.083       79.746       11.520        0.021      345.174       22.516      862.887
07/23/2013  05:57:00      -41.547      -27.076       -1.397       25.214       20.016        8.840      635.761      400.649       78.140        0.179        0.056       49.591        8.455        0.029      345.148       22.473      862.882
07/23/2013  05:58:00       22.374      -38.865        0.957       16.821       21.746        9.387      282.961      472.884       88.123        0.143        0.042       44.845        7.317        0.027      345.316       22.759      862.876
07/23/2013  05:59:00       -0.641      -36.640       19.770       18.913       32.320       16.008      357.690     1044.602      256.264        0.170        0.083       36.645       11.733        0.103      345.391       22.887      862.877
07/23/2013  06:00:00      -37.063      -18.204       -3.534       26.823       33.797       13.668      719.465     1142.220      186.813        0.188        0.102       41.292       16.532        0.160      345.360       22.833      862.889
07/23/2013  06:01:00      -78.027      -52.926        3.450       36.965       23.968       19.822     1366.419      574.476      392.911        0.562        0.117       94.283       20.204        0.046      345.294       22.722      862.905
07/23/2013  06:02:00      -85.078      -30.547        1.253       22.475       17.229       12.921      505.141      296.853      166.960        0.457        0.048       90.396       12.157        0.018      345.278       22.694      862.915
07/23/2013  06:03:00      -28.935      -27.122        0.177       20.782       16.746       14.075      431.890      280.420      198.101        0.124        0.046       39.659        9.588        0.058      345.278       22.695      862.908
07/23/2013  06:04:00      -11.116       -2.811       -1.172       12.953        9.453        8.196      167.772       89.367       67.173        0.023        0.016       11.466        8.690        0.575      345.223       22.598      862.879
07/23/2013  06:05:00       -5.865       10.101       -1.165       12.239       11.488       10.116      149.805      131.969      102.333        0.026        0.019       11.680        7.339        0.395      345.215       22.586      862.855
07/23/2013  06:06:00        5.404       -4.596        2.520       10.977       12.055       12.382      120.487      145.322      153.320        0.024        0.021        7.094        6.687        0.889      345.069       22.337      862.847
07/23/2013  06:07:00      -25.754      -10.253        0.976       15.666       15.833        4.978      245.427      250.682       24.782        0.065        0.026       27.720        4.725        0.029      345.093       22.375      862.858
07/23/2013  06:08:00      -97.958       13.401      -10.513       21.241       16.240        8.217      451.167      263.740       67.516        0.533        0.039       98.871        1.887        0.000      345.021       22.254      862.867
07/23/2013  06:09:00      -53.415      -10.245       -1.229       27.545       24.355       18.636      758.711      593.185      347.312        0.233        0.085       54.388       17.848        0.108      344.917       22.075      862.884
07/23/2013  06:10:00      -70.545        9.505        3.197       25.755       28.190       17.707      663.306      794.660      313.530        0.342        0.089       71.183       16.449        0.053      344.982       22.186      862.908
07/23/2013  06:11:00      -22.536      -13.074       -1.896       24.672       16.860       13.201      608.685      284.266      174.266        0.087        0.053       26.054        7.127        0.075      344.991       22.203      862.914
07/23/2013  06:12:00       -8.545      -18.984      -12.974       20.314       12.039       11.355      412.664      144.941      128.944        0.064        0.034       20.818        5.526        0.070      344.945       22.124      862.936
07/23/2013  06:13:00       -6.836      -11.231        8.732       15.922       14.196       10.420      253.523      201.536      108.576        0.041        0.028       13.148        9.328        0.503      344.974       22.174      862.962
07/23/2013  06:14:00      -80.229      -33.112      -11.207       12.812       11.887        9.966      164.153      141.300       99.317        0.403        0.020       86.794        6.317        0.005      344.948       22.129      862.999
07/23/2013  06:15:00      -55.295      -25.372       -4.381       25.020       11.244       13.441      625.993      126.421      180.651        0.233        0.047       60.838       12.332        0.041      344.878       22.010      863.042
07/23/2013  06:16:00      -69.374      -17.849       -8.334       14.187       13.025        8.705      201.266      169.644       75.785        0.282        0.022       71.633        4.520        0.004      344.857       21.972      863.079
07/23/2013  06:17:00      -59.260      -16.882       -7.438       10.212       10.389        7.943      104.286      107.926       63.095        0.206        0.014       61.618        5.120        0.007      344.861       21.980      863.105
07/23/2013  06:18:00      -52.780      -21.821       -7.151       12.532       11.502        9.573      157.057      132.296       91.634        0.185        0.019       57.113        7.494        0.017      344.896       22.040      863.119
07/23/2013  06:19:00      -66.850      -26.033       -3.055       15.677       17.552       13.463      245.771      308.059      181.240        0.295        0.037       71.740        8.701        0.015      344.880       22.014      863.126
07/23/2013  06:20:00      -87.212      -25.663       -8.045       13.558       19.272       12.592      183.822      371.418      158.549        0.452        0.036       90.910        9.126        0.010      344.865       21.987      863.129
07/23/2013  06:21:00     -129.685      -30.353       -8.159       23.219       15.938       12.795      539.108      254.023      163.723        0.938        0.048      133.190       11.405        0.007      344.774       21.830      863.134
07/23/2013  06:22:00     -113.540      -23.909       -9.612       21.144       23.322       16.361      447.069      543.926      267.682        0.741        0.063      116.030       10.694        0.008      344.785       21.851      863.145
07/23/2013  06:23:00      -72.592      -14.521       -0.093       34.712       17.573       12.608     1204.912      308.824      158.974        0.358        0.084       74.030       11.841        0.026      344.769       21.822      863.155
07/23/2013  06:24:00      -65.080      -19.107        0.964       38.860       19.784       16.089     1510.063      391.395      258.870        0.338        0.108       67.827       15.525        0.052      344.754       21.795      863.164
07/23/2013  06:25:00      -46.852        7.289        6.258       28.898       21.283       16.122      835.123      452.986      259.916        0.192        0.077       47.416        9.531        0.040      344.771       21.827      863.178
07/23/2013  06:26:00      -45.589       -2.638       -0.666       20.937       15.583       10.060      438.339      242.827      101.207        0.143        0.039       45.665        8.978        0.039      344.835       21.934      863.184
07/23/2013  06:27:00      -29.745      -12.661        3.865       18.217       14.675       14.086      331.852      215.365      198.422        0.090        0.037       32.328       10.676        0.109      344.901       22.049      863.179
07/23/2013  06:28:00      -52.948       -4.923       -4.552       20.825       13.783        9.218      433.666      189.958       84.963        0.178        0.035       53.176        4.099        0.006      345.052       22.308      863.181
07/23/2013  06:29:00      -30.878       32.097       -8.813        9.757       19.731        9.429       95.195      389.329       88.913        0.132        0.029       44.538        7.165        0.026      344.986       22.195      863.173
07/23/2013  06:30:00      -35.279       36.961       -9.975       16.648       17.550       12.416      277.172      307.990      154.147        0.172        0.037       51.095       10.072        0.039      345.027       22.265      863.177
07/23/2013  06:31:00      -46.906       26.754       -2.325       30.304       30.082       15.256      918.361      904.900      232.750        0.249        0.103       53.999       18.705        0.120      344.983       22.189      863.176
07/23/2013  06:32:00      -30.608       35.758       -7.066       19.333       11.749        9.489      373.758      138.048       90.035        0.143        0.030       47.069        5.098        0.012      344.941       22.117      863.177
07/23/2013  06:33:00      -60.989        2.221      -10.090       19.751       17.074        9.485      390.109      291.519       89.957        0.230        0.039       61.029        9.386        0.024      344.953       22.139      863.171
07/23/2013  06:34:00      -72.441      -11.675      -11.033       24.808       19.395       12.827      615.445      376.180      164.534        0.333        0.058       73.375       10.347        0.020      344.970       22.169      863.163
07/23/2013  06:35:00      -59.411       -7.145       -0.679       25.972       16.433       14.649      674.559      270.057      214.591        0.237        0.058       59.839       15.773        0.069      344.871       21.999      863.140
07/23/2013  06:36:00      -69.396      -27.127       -8.156       11.123       12.715        9.557      123.713      161.663       91.337        0.300        0.019       74.510        8.018        0.012      344.783       21.846      863.125
07/23/2013  06:37:00      -83.646        8.920       -7.344       28.969       16.220       13.547      839.204      263.091      183.513        0.421        0.064       84.120       15.373        0.033      344.814       21.901      863.106
07/23/2013  06:38:00     -105.052        9.044       -3.974       27.674       30.578       15.664      765.850      934.992      245.364        0.654        0.097      105.440       16.803        0.025      344.837       21.940      863.089
07/23/2013  06:39:00     -110.983       -3.360       -5.557       27.911       30.968       20.414      779.027      958.998      416.721        0.726        0.108      111.033       18.566        0.028      344.869       21.995      863.067
07/23/2013  06:40:00      -50.511      -13.148       -3.211       31.202       21.130       16.276      973.536      446.466      264.892        0.221        0.084       52.194       15.789        0.092      344.782       21.844      863.051
07/23/2013  06:41:00      -94.862      -37.521        0.330       18.444       15.783       13.624      340.182      249.090      185.611        0.559        0.039      102.012       11.034        0.012      344.822       21.911      863.029
07/23/2013  06:42:00      -75.991      -18.424       -0.902       54.371       27.806       19.856     2956.215      773.148      394.244        0.512        0.206       78.193       21.361        0.075      344.849       21.960      863.011
07/23/2013  06:43:00     -189.121      -49.418       -9.300       46.589       34.331       24.531     2170.560     1178.610      601.787        2.112        0.198      195.471       17.215        0.008      344.908       22.059      863.004
07/23/2013  06:44:00     -142.994      -34.990        0.973       54.367       37.047       24.296     2955.809     1372.478      590.284        1.329        0.246      147.212       27.785        0.036      344.818       21.907      862.990
07/23/2013  06:45:00     -131.453      -64.909        3.090       57.685       49.208       28.075     3327.557     2421.415      788.195        1.402        0.327      146.605       33.243        0.051      344.821       21.911      862.966
07/23/2013  06:46:00     -133.561      -42.432       -0.655       60.706       52.704       32.435     3685.188     2777.702     1052.048        1.358        0.376      140.139       33.718        0.058      344.831       21.929      862.948
07/23/2013  06:47:00     -161.954      -58.796        1.456       78.146       53.233       30.733     6106.873     2833.775      944.511        1.978        0.494      172.296       32.175        0.035      344.813       21.897      862.938
07/23/2013  06:48:00     -217.625      -66.734       -8.437       70.618       54.087       31.789     4986.838     2925.435     1010.520        3.040        0.446      227.627       37.469        0.027      344.831       21.925      862.927
07/23/2013  06:49:00     -167.251      -85.814       -2.885       71.876       51.958       29.637     5166.131     2699.682      878.344        2.204        0.437      187.981       29.013        0.024      344.841       21.945      862.929
07/23/2013  06:50:00     -154.978      -46.974        1.126       59.874       50.327       35.788     3584.925     2532.834     1280.796        1.681        0.370      161.941       32.769        0.041      344.860       21.978      862.930
07/23/2013  06:51:00     -175.946      -14.975       -4.125       63.698       52.692       36.002     4057.421     2776.425     1296.151        1.966        0.406      176.582       38.690        0.048      344.936       22.108      862.949
07/23/2013  06:52:00     -127.536      -18.184        1.686       67.169       45.715       33.650     4511.658     2089.824     1132.309        1.216        0.387      128.826       35.362        0.075      344.917       22.076      862.964
07/23/2013  06:53:00     -128.372      -44.802       -2.580       62.897       49.826       31.210     3955.973     2482.679      974.071        1.295        0.371      135.966       33.416        0.060      345.028       22.266      862.987
07/23/2013  06:54:00     -108.280      -46.942       -1.183       45.693       40.285       23.708     2087.832     1622.920      562.060        0.910        0.214      118.018       21.410        0.033      344.970       22.168      863.007
07/23/2013  06:55:00     -119.516       -6.639       -8.668       32.870       20.768       18.998     1080.411      431.300      360.928        0.814        0.094      119.700       15.791        0.017      344.879       22.011      863.015
07/23/2013  06:56:00     -101.579      -16.805      -12.945       29.983       15.868       14.903      898.977      251.802      222.085        0.607        0.069      102.959       14.086        0.019      344.852       21.965      863.015
07/23/2013  06:57:00      -98.580       -9.304       -3.077       28.112       28.912       18.417      790.281      835.927      339.200        0.589        0.098       99.019       14.910        0.023      344.836       21.937      863.025
07/23/2013  06:58:00      -82.137      -18.103       -0.493       26.555       23.170       21.342      705.162      536.870      455.486        0.439        0.085       84.108       19.591        0.054      344.898       22.043      863.026
07/23/2013  06:59:00      -91.174      -39.516       -3.589       18.642       20.231       16.516      347.528      409.308      272.783        0.546        0.051       99.369       10.353        0.011      344.947       22.127      863.035
07/23/2013  07:00:00      -50.043      -31.154        4.406       31.004       31.070       16.704      961.279      965.375      279.019        0.285        0.110       58.948       14.090        0.057      345.058       22.319      863.039
07/23/2013  07:01:00      -84.107      -45.683       -2.321       34.778       50.507       22.724     1209.507     2550.927      516.375        0.672        0.214       95.713       24.332        0.065      345.003       22.222      863.046
07/23/2013  07:02:00      -53.161      -23.422        3.566       31.470       40.011       15.415      990.371     1600.849      237.636        0.311        0.141       58.092       16.161        0.077      345.071       22.340      863.041
07/23/2013  07:03:00      -60.917      -16.899        7.545       49.913       34.629       22.464     2491.285     1199.153      504.630        0.412        0.210       63.218       23.591        0.139      345.038       22.285      863.036
07/23/2013  07:04:00      -68.976      -21.265        2.174       47.132       29.863       20.029     2221.441      891.791      401.154        0.436        0.176       72.179       20.037        0.077      345.036       22.281      863.034
07/23/2013  07:05:00      -67.544      -11.736       -0.743       34.202       33.804       18.280     1169.786     1142.709      334.149        0.367        0.132       68.556       16.187        0.056      344.989       22.199      863.022
07/23/2013  07:06:00      -66.019      -34.758        4.721       23.774       35.302       19.841      565.184     1246.203      393.650        0.390        0.110       74.610       11.633        0.024      345.036       22.280      863.010
07/23/2013  07:07:00      -68.546      -19.319        2.829       31.530       33.341       15.847      994.124     1111.612      251.125        0.372        0.118       71.216       17.302        0.059      345.092       22.376      863.001
07/23/2013  07:08:00      -50.847      -35.199        4.054       35.020       25.751       13.816     1226.423      663.138      190.883        0.296        0.104       61.841        9.541        0.024      345.184       22.533      862.999
07/23/2013  07:09:00      -88.093      -25.661       -8.608       33.252       33.165       17.305     1105.678     1099.921      299.479        0.550        0.125       91.755       13.202        0.021      345.096       22.382      863.002
07/23/2013  07:10:00      -78.390      -37.330       -0.080       26.401       23.343       14.225      697.023      544.918      202.354        0.449        0.072       86.825       13.994        0.026      345.072       22.344      862.994
07/23/2013  07:11:00     -103.363      -26.649       -4.886       33.017       25.496       17.587     1090.136      650.062      309.294        0.673        0.102      106.743        7.658        0.005      345.069       22.337      862.976
07/23/2013  07:12:00     -109.234      -64.654        1.242       52.310       36.301       26.091     2736.298     1317.783      680.755        1.042        0.237      126.934       25.830        0.041      345.106       22.399      862.953
07/23/2013  07:13:00     -153.564      -63.806       -7.524       38.848       42.179       22.338     1509.166     1779.075      499.003        1.575        0.189      166.292       21.461        0.017      345.051       22.307      862.944
07/23/2013  07:14:00     -149.171      -44.927       -4.024       65.466       50.052       23.480     4285.761     2505.195      551.315        1.581        0.367      155.790       26.445        0.029      345.014       22.242      862.936
07/23/2013  07:15:00     -164.629      -62.574       -0.825       49.952       44.343       29.978     2495.212     1966.336      898.690        1.819        0.268      176.120       25.569        0.021      344.962       22.152      862.935
07/23/2013  07:16:00     -160.867      -67.463       -3.526       49.651       51.887       31.840     2465.221     2692.273     1013.797        1.831        0.309      174.440       31.873        0.033      344.983       22.186      862.928
07/23/2013  07:17:00     -146.407      -31.978        1.074       73.394       42.020       33.003     5386.651     1765.650     1089.194        1.535        0.412      149.859       37.881        0.064      344.995       22.207      862.911
07/23/2013  07:18:00     -158.297      -51.074       -4.545       60.786       40.132       22.942     3694.882     1610.596      526.358        1.676        0.292      166.333       23.377        0.020      344.974       22.173      862.903
07/23/2013  07:19:00     -136.829       15.906      -11.303       58.437       43.486       23.640     3414.937     1891.068      558.847        1.248        0.293      137.751       20.116        0.021      344.945       22.124      862.901
07/23/2013  07:20:00     -199.051       38.440      -17.561       29.552       31.874       21.729      873.343     1015.970      472.139        2.188        0.118      202.729       15.048        0.006      344.893       22.033      862.902
07/23/2013  07:21:00     -187.995       20.990      -14.188       31.616       31.129       15.342      999.600      968.999      235.366        1.909        0.110      189.163        7.206        0.001      344.821       21.911      862.897
07/23/2013  07:22:00     -153.916       -6.667      -12.740       58.493       40.824       28.826     3421.417     1666.582      830.920        1.491        0.296      154.060       28.153        0.033      344.866       21.989      862.898
07/23/2013  07:23:00     -177.611       -3.247      -19.795       50.326       31.083       25.224     2532.672      966.122      636.238        1.804        0.207      177.641       22.266        0.016      344.912       22.065      862.910
07/23/2013  07:24:00     -147.488       -1.492       -9.240       37.502       38.078       22.120     1406.378     1449.918      489.278        1.259        0.167      147.496       10.781        0.005      344.863       21.986      862.915
07/23/2013  07:25:00      -88.269        4.963       -8.128       44.039       38.989       24.444     1939.454     1520.133      597.501        0.597        0.203       88.409       17.386        0.039      344.888       22.027      862.919
07/23/2013  07:26:00      -73.970        7.700       -7.086       44.019       36.388       29.235     1937.678     1324.051      854.706        0.485        0.206       74.370       26.512        0.127      344.964       22.157      862.914
07/23/2013  07:27:00      -77.004       15.411       -1.100       54.056       31.346       32.519     2922.008      982.556     1057.499        0.556        0.248       78.531       35.773        0.208      345.070       22.339      862.899
07/23/2013  07:28:00      -56.570       40.410       -7.748       29.920       23.352       18.819      895.227      545.293      354.163        0.334        0.090       69.521       18.012        0.067      345.095       22.382      862.894
07/23/2013  07:29:00      -56.396       27.381       -8.514       20.774       18.781       13.379      431.552      352.743      178.997        0.248        0.048       62.692        7.099        0.013      345.117       22.417      862.897
07/23/2013  07:30:00      -49.658        9.424       -2.420       25.250       22.411       17.313      637.559      502.235      299.747        0.200        0.072       50.544       13.935        0.076      345.183       22.531      862.909
07/23/2013  07:31:00      -53.997       28.791       -4.713       30.190       23.688       16.344      911.411      561.111      267.133        0.275        0.087       61.193       15.272        0.062      345.253       22.651      862.933
07/23/2013  07:32:00      -28.260       51.123        3.280       24.528       30.804       20.084      601.628      948.915      403.382        0.269        0.098       58.414       16.079        0.076      345.427       22.948      862.956
07/23/2013  07:33:00       -2.361       13.922       18.006       26.535       11.502       10.836      704.127      132.302      117.417        0.074        0.048       14.121        7.429        0.277      345.620       23.282      862.964
07/23/2013  07:34:00       -4.053       32.900        2.055       19.726       16.285       13.915      389.110      265.210      193.640        0.098        0.042       33.149       12.781        0.149      345.541       23.144      862.974
07/23/2013  07:35:00       12.595       48.820       -3.793       14.448       19.211       13.677      208.754      369.078      187.070        0.166        0.038       50.419       14.242        0.080      345.564       23.183      862.979
07/23/2013  07:36:00       27.116       32.917        4.323       16.600       23.439       16.542      275.552      549.406      273.624        0.147        0.055       42.647       15.359        0.130      345.618       23.279      862.994
07/23/2013  07:37:00       27.965       34.031        0.481       12.516       20.815       12.362      156.650      433.262      152.826        0.134        0.037       44.047       11.670        0.070      345.594       23.235      863.005
07/23/2013  07:38:00       54.200       39.656       -0.219       18.071       14.070       11.853      326.560      197.968      140.489        0.259        0.033       67.159        9.110        0.018      345.580       23.213      863.008
07/23/2013  07:39:00       55.759       36.438        0.044       28.348       20.134       16.367      803.626      405.371      267.895        0.296        0.074       66.609       11.606        0.030      345.581       23.213      863.015
07/23/2013  07:40:00       54.126       34.576       -7.354       22.331       15.148       15.103      498.675      229.453      228.106        0.257        0.048       64.227       10.483        0.027      345.556       23.171      863.021
07/23/2013  07:41:00        9.611       29.533        5.894       16.006       16.778       14.493      256.202      281.489      210.036        0.087        0.037       31.058       10.412        0.112      345.662       23.352      863.019
07/23/2013  07:42:00        6.924       28.288        0.556       13.172       10.065       11.915      173.496      101.295      141.962        0.063        0.021       29.123       10.230        0.123      345.685       23.394      863.028
07/23/2013  07:43:00        9.877       25.374        5.949        9.428       12.425       13.042       88.882      154.387      170.101        0.059        0.021       27.228       10.869        0.159      345.749       23.502      863.046
07/23/2013  07:44:00        9.785       19.564        3.297       13.144       13.795       12.338      172.763      190.305      152.223        0.050        0.026       21.874       10.774        0.243      345.804       23.595      863.045
07/23/2013  07:45:00        2.703       62.714       -4.676       13.798       15.643        9.736      190.380      244.697       94.786        0.225        0.026       62.772        6.642        0.011      345.865       23.702      863.063
07/23/2013  07:46:00       13.813       68.749       -5.183       16.196       22.317       19.208      262.297      498.061      368.947        0.304        0.056       70.123       18.220        0.068      345.969       23.880      863.062
07/23/2013  07:47:00        9.941       15.205        6.578       23.069       25.980       14.072      532.178      674.940      198.034        0.089        0.070       18.167       14.985        0.680      346.177       24.236      863.071
07/23/2013  07:48:00       19.590      -17.033        2.416       20.998       30.774       22.408      440.917      947.048      502.103        0.128        0.095       25.960       17.338        0.446      345.890       23.744      863.070
07/23/2013  07:49:00       25.705      -49.993       -3.287       42.906       40.420       30.954     1840.901     1633.789      958.120        0.380        0.222       56.215       22.139        0.155      345.432       22.957      863.079
07/23/2013  07:50:00       19.149       -4.269       17.854       24.821       35.387       21.533      616.088     1252.239      463.679        0.152        0.117       19.620       11.605        0.350      345.698       23.414      863.083
07/23/2013  07:51:00       37.957       30.976       12.006       23.007       28.287       25.459      529.310      800.126      648.155        0.226        0.099       48.992       15.928        0.106      345.785       23.563      863.095
07/23/2013  07:52:00       39.809       30.952       18.204       24.195       23.516       20.261      585.397      553.024      410.511        0.221        0.077       50.426       13.931        0.076      345.801       23.592      863.089
07/23/2013  07:53:00       62.758       46.232       42.949       24.354       21.661       21.894      593.138      469.201      479.361        0.473        0.077       77.949       12.255        0.025      345.856       23.686      863.091
07/23/2013  07:54:00       43.530       28.144       45.607       25.299       20.889       17.882      640.040      436.336      319.778        0.308        0.070       51.836       12.172        0.055      345.975       23.890      863.079
07/23/2013  07:55:00       53.058       43.385       18.346       42.721       31.054       23.436     1825.120      964.331      549.248        0.419        0.167       68.538        7.435        0.012      345.855       23.683      863.090
07/23/2013  07:56:00       41.489       42.293       45.676       32.226       30.701       22.512     1038.516      942.576      506.807        0.404        0.124       59.246       14.041        0.056      346.215       24.302      863.097
07/23/2013  07:57:00       66.101       47.709       31.138       48.017       36.860       27.735     2305.609     1358.659      769.222        0.602        0.222       81.520       18.818        0.053      346.209       24.292      863.117
07/23/2013  07:58:00      107.350       71.898        9.778       36.288       32.687       30.821     1316.819     1068.414      949.931        1.006        0.167      129.203       23.128        0.032      346.225       24.319      863.129
07/23/2013  07:59:00      115.821       80.602       -0.753       48.569       36.661       40.268     2358.910     1344.061     1621.500        1.262        0.266      141.107       26.203        0.034      346.212       24.296      863.155
07/23/2013  08:00:00       53.812        9.785        4.839       38.303       57.455       27.112     1467.097     3301.036      735.035        0.426        0.275       54.695       25.860        0.224      346.206       24.288      863.174
07/23/2013  08:01:00       15.344       29.577       38.467       34.777       28.638       28.924     1209.425      820.128      836.600        0.273        0.143       33.320       19.666        0.348      346.486       24.769      863.182
07/23/2013  08:02:00       15.538      -15.281       34.597       33.129       34.867       28.835     1097.504     1215.674      831.476        0.241        0.157       21.793       22.852        1.100      346.295       24.440      863.195
07/23/2013  08:03:00       29.846       21.143       43.401       32.864       32.383       22.253     1080.013     1048.647      495.208        0.292        0.131       36.576       16.436        0.202      346.374       24.575      863.205
07/23/2013  08:04:00       28.783        1.974       12.392       32.393       44.728       31.939     1049.322     2000.634     1020.108        0.253        0.204       28.850       29.629        1.055      346.295       24.439      863.206
07/23/2013  08:05:00       35.018       -7.728       12.909       34.825       26.172       23.351     1212.793      684.957      545.252        0.195        0.122       35.861       19.047        0.282      346.527       24.838      863.213
07/23/2013  08:06:00       21.194       -2.341       36.830       34.528       25.069       19.906     1192.157      628.440      396.259        0.201        0.111       21.323        9.481        0.198      346.616       24.991      863.216
07/23/2013  08:07:00       19.865      -30.664       11.486       40.680       32.194       28.558     1654.828     1036.480      815.573        0.249        0.175       36.536       14.874        0.166      346.335       24.509      863.227
07/23/2013  08:08:00        9.577      -44.674       21.759       34.108       62.137       34.848     1163.377     3861.038     1214.371        0.440        0.312       45.689       16.127        0.125      346.736       25.198      863.249
07/23/2013  08:09:00       -2.868        5.067        5.557       30.479       55.040       26.318      928.958     3029.366      692.634        0.236        0.233        5.823       16.463        7.994      346.649       25.049      863.287
07/23/2013  08:10:00       40.302      -78.416      -16.423       51.539       57.788       27.492     2656.296     3339.466      755.828        0.740        0.338       88.167       24.320        0.076      346.638       25.029      863.325
07/23/2013  08:11:00      -20.134      -93.885       -1.194       64.565       54.175       35.405     4168.595     2934.903     1253.543        0.879        0.418       96.020       37.065        0.149      346.732       25.190      863.348
07/23/2013  08:12:00       20.686      -94.959       -4.832       42.480       98.904       42.510     1804.576     9781.915     1807.102        1.143        0.670       97.186       51.055        0.276      346.813       25.330      863.377
07/23/2013  08:13:00      -14.578        6.142       17.494       19.448       29.809       23.216      378.207      888.578      538.997        0.118        0.090       15.819       19.192        1.472      347.076       25.784      863.409
07/23/2013  08:14:00       17.906      -18.346       24.697       34.135       42.839       30.280     1165.197     1835.208      916.904        0.259        0.196       25.636       27.661        1.164      347.100       25.825      863.428
07/23/2013  08:15:00        6.249      -59.388       15.793       74.060       63.135       43.887     5484.933     3985.998     1926.071        0.760        0.570       59.716       32.808        0.302      346.809       25.325      863.435
07/23/2013  08:16:00       -2.624       -2.407       22.898       36.487       30.792       27.277     1331.268      948.143      744.025        0.178        0.151        3.561       19.179       29.005      347.086       25.802      863.451
07/23/2013  08:17:00       43.853      -22.917       22.855       42.354       31.086       31.513     1793.838      966.316      993.058        0.336        0.188       49.480       24.124        0.238      346.731       25.191      863.459
07/23/2013  08:18:00       -8.760      -12.821       34.158       28.860       38.672       21.543      832.878     1495.504      464.103        0.210        0.140       15.528       15.926        1.052      346.834       25.367      863.464
07/23/2013  08:19:00       22.039      -28.677       18.169       30.798       42.438       38.220      948.542     1800.944     1460.770        0.292        0.211       36.168       29.449        0.663      346.857       25.406      863.464
07/23/2013  08:20:00       -2.618       -6.124       43.484       21.426       32.252       26.624      459.054     1040.179      708.848        0.207        0.110        6.660       23.513       12.464      347.163       25.934      863.466
07/23/2013  08:21:00       25.574      -71.936        8.429       38.649       68.779       45.453     1493.759     4730.509     2065.964        0.709        0.415       76.346       49.382        0.418      346.853       25.398      863.476
07/23/2013  08:22:00        0.677      -86.392       13.333       34.152       44.741       23.419     1166.362     2001.738      548.443        0.568        0.186       86.394       14.788        0.029      346.767       25.252      863.485
07/23/2013  08:23:00       61.109      -94.317       -0.402       60.007       75.269       54.793     3600.819     5665.421     3002.266        1.245        0.613      112.383       55.379        0.243      346.730       25.187      863.484
07/23/2013  08:24:00       58.471     -118.922      -31.684       75.704       60.255       39.172     5731.035     3630.687     1534.444        1.473        0.545      132.519       36.509        0.076      346.592       24.950      863.490
07/23/2013  08:25:00       37.455      -93.245       -8.561       60.876       68.143       43.097     3705.872     4643.499     1857.362        1.019        0.510      100.486       37.834        0.142      346.831       25.361      863.496
07/23/2013  08:26:00      126.065     -157.359      -16.684       71.120       60.391       44.707     5058.089     3647.020     1998.709        2.582        0.535      201.629       41.655        0.043      346.638       25.026      863.503
07/23/2013  08:27:00       86.025     -154.710      -22.826       43.572       53.333       36.936     1898.521     2844.385     1364.237        1.898        0.305      177.018       27.937        0.025      346.665       25.074      863.515
07/23/2013  08:28:00       80.759      -63.108        3.881       56.104       83.729       45.850     3147.653     7010.463     2102.179        1.139        0.613      102.492       59.672        0.339      346.694       25.126      863.532
07/23/2013  08:29:00       21.749      -17.576       21.866       34.698       44.215       35.180     1203.986     1954.987     1237.660        0.283        0.220       27.962       34.660        1.536      346.986       25.628      863.539
07/23/2013  08:30:00        9.201      -44.664       12.739       47.207       61.603       34.470     2228.535     3794.869     1188.191        0.473        0.361       45.602       45.338        0.988      346.968       25.598      863.547
07/23/2013  08:31:00       58.308      -66.262        1.193       54.464       70.967       43.436     2966.282     5036.363     1886.713        0.884        0.494       88.264       44.541        0.255      347.018       25.683      863.552
07/23/2013  08:32:00       24.020      -78.231       -9.037       46.082       53.822       31.774     2123.576     2896.801     1009.588        0.640        0.301       81.836       22.269        0.074      346.892       25.468      863.565
07/23/2013  08:33:00        0.463      -36.283       40.313       23.134       43.601       31.294      535.188     1901.055      979.325        0.318        0.171       36.286       18.976        0.273      347.209       26.013      863.576
07/23/2013  08:34:00      -19.588      -12.716       49.485       32.857       47.066       28.512     1079.559     2215.201      812.944        0.355        0.205       23.354       16.876        0.522      347.197       25.991      863.572
07/23/2013  08:35:00       23.173      -72.732       29.477       56.784       66.389       54.003     3224.428     4407.439     2916.272        0.862        0.527       76.334       43.170        0.320      347.101       25.825      863.572
07/23/2013  08:36:00        6.409      -67.140       16.295       34.719       64.585       41.869     1205.431     4171.230     1753.011        0.597        0.356       67.446       41.208        0.373      347.113       25.848      863.572
07/23/2013  08:37:00       -2.607       34.249       61.146       27.196       51.308       25.897      739.622     2632.543      670.634        0.448        0.202       34.348       26.718        0.605      347.139       25.893      863.571
07/23/2013  08:38:00       -1.799       -0.087       50.737       18.320       41.594       23.847      335.626     1730.070      568.665        0.261        0.132        1.801       20.156      125.244      347.331       26.224      863.564
07/23/2013  08:39:00        4.807       -8.801       26.215       26.254       20.682       22.684      689.288      427.732      514.566        0.121        0.082       10.029       14.456        2.078      347.346       26.249      863.559
07/23/2013  08:40:00       42.592       -5.853       21.395       35.679       17.920       26.735     1272.984      321.139      714.779        0.231        0.115       42.992       20.827        0.235      347.192       25.984      863.559
07/23/2013  08:41:00       19.699      -21.753        5.972       25.373       37.261       26.856      643.810     1388.367      721.220        0.182        0.138       29.347       18.428        0.394      346.849       25.394      863.551
07/23/2013  08:42:00       40.525      -58.022       15.569       43.986       58.107       41.533     1934.764     3376.453     1724.977        0.614        0.352       70.773       35.016        0.245      347.033       25.709      863.548
07/23/2013  08:43:00       60.330      -98.362       -2.826       59.331       44.786       42.349     3520.182     2005.807     1793.403        1.032        0.366      115.390       42.734        0.137      346.848       25.390      863.546
07/23/2013  08:44:00       14.084      -13.056       25.354       33.003       62.845       36.293     1089.199     3949.486     1317.194        0.368        0.318       19.204       29.827        2.412      347.276       26.129      863.554
07/23/2013  08:45:00       34.701      -28.593       22.484       49.995       57.663       47.910     2499.466     3324.988     2295.363        0.532        0.406       44.964       41.199        0.840      347.226       26.042      863.559
07/23/2013  08:46:00       57.655      -91.288       -3.599       34.005       33.831       32.739     1156.366     1144.516     1071.847        0.752        0.169      107.971       24.557        0.052      346.738       25.200      863.565
07/23/2013  08:47:00       14.594       -6.896       15.226       27.123       32.011       30.282      735.639     1024.710      917.009        0.158        0.134       16.142       19.379        1.441      347.150       25.912      863.573
07/23/2013  08:48:00        8.633       44.624       57.474       31.837       29.380       23.445     1013.614      863.210      549.648        0.390        0.121       45.451       17.418        0.147      347.236       26.059      863.584
07/23/2013  08:49:00       46.653       39.270       26.567       51.332       35.991       31.640     2634.996     1295.345     1001.120        0.468        0.247       60.981       13.839        0.052      347.206       26.008      863.595
07/23/2013  08:50:00       16.761       11.263       31.248       37.476       36.842       19.554     1404.439     1357.337      382.357        0.226        0.157       20.194       15.557        0.593      347.339       26.236      863.594
07/23/2013  08:51:00       18.040        0.876       31.457       19.663       13.514       18.754      386.618      182.620      351.705        0.112        0.046       18.061       12.213        0.457      347.719       26.893      863.591
07/23/2013  08:52:00       34.999       21.139       16.011       42.638       28.865       26.174     1817.973      833.186      685.052        0.263        0.167       40.888       15.091        0.136      347.543       26.589      863.588
07/23/2013  08:53:00        6.679      -41.605       25.982       34.179       53.203       29.234     1168.212     2830.557      854.655        0.365        0.243       42.138       29.277        0.483      347.294       26.159      863.576
07/23/2013  08:54:00        1.004       33.549       39.953       23.323       30.022       26.621      543.952      901.295      708.703        0.244        0.108       33.564        8.731        0.068      347.656       26.784      863.572
07/23/2013  08:55:00       24.182      -61.881       17.063       33.014       56.475       37.846     1089.922     3189.371     1432.289        0.521        0.286       66.438       15.573        0.055      346.928       25.529      863.554
07/23/2013  08:56:00       32.877      -25.675       20.297       39.461       43.138       38.928     1557.188     1860.927     1515.390        0.354        0.247       41.715       40.084        0.923      347.135       25.886      863.539
07/23/2013  08:57:00       32.259      -58.268       -9.594       31.634       34.517       23.762     1000.696     1191.419      564.628        0.364        0.138       66.602       13.507        0.041      346.589       24.946      863.527
07/23/2013  08:58:00       -1.500       -7.487       27.103       39.860       43.556       36.964     1588.800     1897.126     1366.368        0.282        0.243        7.635       29.714       15.144      347.408       26.358      863.494
07/23/2013  08:59:00       43.268      -40.535       21.657       42.584       53.063       33.753     1813.381     2815.633     1139.284        0.488        0.288       59.289       35.418        0.357      347.086       25.802      863.476
07/23/2013  09:00:00       28.925      -10.607       34.469       34.774       50.651       29.789     1209.207     2565.500      887.369        0.340        0.233       30.809       23.531        0.583      347.170       25.946      863.458
07/23/2013  09:01:00       45.661      -41.329        4.568       36.499       33.793       35.339     1332.203     1141.999     1248.813        0.377        0.186       61.587       27.254        0.196      347.148       25.907      863.460
07/23/2013  09:02:00       14.428       -4.719       33.052       25.079       28.035       23.521      628.933      785.978      553.228        0.165        0.098       15.180       19.981        1.733      347.784       27.004      863.452
07/23/2013  09:03:00        6.161      -17.541       12.008       23.935       23.402       28.601      572.879      547.672      818.024        0.121        0.097       18.591       21.037        1.280      347.575       26.646      863.452
07/23/2013  09:04:00       35.454      -83.432       -8.064       41.474       39.408       34.931     1720.062     1552.959     1220.154        0.639        0.225       90.653       30.345        0.112      347.328       26.218      863.467
07/23/2013  09:05:00       45.651      -96.411       11.455       40.333       60.745       53.647     1626.780     3690.001     2877.979        0.985        0.410      106.673       40.547        0.144      347.621       26.724      863.466
07/23/2013  09:06:00       52.474      -88.146        5.165       53.517       65.908       43.548     2864.024     4343.889     1896.470        0.983        0.455      102.583       41.597        0.164      347.665       26.799      863.484
07/23/2013  09:07:00       57.155     -108.937       10.921       41.490       68.550       40.719     1721.406     4699.090     1658.039        1.166        0.404      123.020       42.547        0.120      347.602       26.689      863.487
07/23/2013  09:08:00        5.250        0.577       50.098       33.917       34.091       23.456     1150.371     1162.218      550.189        0.270        0.143        5.281       16.119        9.315      348.030       27.429      863.482
07/23/2013  09:09:00        5.032       10.937       34.589       24.495       45.534       31.854      599.987     2073.314     1014.653        0.251        0.184       12.039       29.680        6.077      347.714       26.883      863.491
07/23/2013  09:10:00       25.210       16.675       24.174       39.740       31.415       23.439     1579.232      986.925      549.367        0.231        0.156       30.226       22.838        0.571      347.687       26.836      863.480
07/23/2013  09:11:00        1.261        0.317       43.422       55.377       56.756       47.418     3066.601     3221.226     2248.452        0.521        0.427        1.300       39.259      911.986      347.527       26.562      863.475
07/23/2013  09:12:00       11.415       -7.745       68.098       41.895       59.272       36.578     1755.175     3513.139     1337.930        0.572        0.330       13.795       30.926        5.026      347.693       26.848      863.462
07/23/2013  09:13:00      101.083      -59.584       21.385       55.529       71.632       44.792     3083.473     5131.094     2006.330        1.222        0.511      117.337       46.416        0.156      347.250       26.083      863.459
07/23/2013  09:14:00       12.310       19.213       53.330       47.790       49.541       42.163     2283.866     2454.294     1777.695        0.494        0.326       22.818       41.675        3.336      347.668       26.803      863.463
07/23/2013  09:15:00      -36.891      -35.101        8.113       30.134       25.058       19.600      908.057      627.888      384.141        0.229        0.096       50.921       12.250        0.058      347.334       26.228      863.452
07/23/2013  09:16:00      -19.242      -37.902       -4.022       31.386       29.191       20.988      985.087      852.086      440.480        0.205        0.114       42.507       17.000        0.160      347.383       26.313      863.440
07/23/2013  09:17:00      -35.315      -27.120        1.460       33.027       24.693       20.055     1090.784      609.757      402.217        0.204        0.105       44.527       13.125        0.087      347.301       26.169      863.420
07/23/2013  09:18:00        0.127       30.438       45.029       30.658       34.516       35.174      939.897     1191.322     1237.196        0.316        0.168       30.439       27.474        0.815      347.602       26.692      863.396
07/23/2013  09:19:00        7.947       -2.558       25.545       39.574       30.948       22.450     1566.115      957.804      503.981        0.187        0.151        8.349       10.420        1.558      347.368       26.286      863.380
07/23/2013  09:20:00        4.751        8.549       34.013       29.837       39.518       28.206      890.274     1561.709      795.605        0.225        0.162        9.780       26.785        7.500      347.482       26.484      863.356
07/23/2013  09:21:00       -5.479       11.441       32.545       28.594       33.503       28.516      817.614     1122.447      813.164        0.199        0.138       12.685       21.075        2.760      347.592       26.674      863.334
07/23/2013  09:22:00       -5.740      -27.204       20.233       21.065       21.078       15.806      443.719      444.274      249.823        0.116        0.057       27.803       13.226        0.226      347.807       27.043      863.325
07/23/2013  09:23:00      -13.669      -24.467       18.833       17.666       23.581       16.127      312.077      556.067      260.065        0.113        0.056       28.026       10.888        0.151      347.686       26.836      863.326
07/23/2013  09:24:00        1.695       25.636       24.599       23.040       21.288       24.470      530.845      453.192      598.795        0.142        0.079       25.692        7.535        0.086      347.639       26.755      863.338
07/23/2013  09:25:00       11.759       -5.082        9.349       43.836       14.373       20.743     1921.590      206.573      430.278        0.140        0.128       12.810        9.690        0.572      347.191       25.983      863.354
07/23/2013  09:26:00       -0.759      -25.553        9.909       21.459       23.670       15.935      460.502      560.249      253.925        0.101        0.064       25.564       13.856        0.294      347.495       26.507      863.376
07/23/2013  09:27:00       10.832       -5.614       20.548       34.124       34.365       29.822     1164.481     1180.934      889.335        0.190        0.162       12.200       25.324        4.308      347.704       26.866      863.397
07/23/2013  09:28:00       41.392      -27.900       10.504       35.730       35.095       35.926     1276.648     1231.660     1290.679        0.320        0.190       49.917       30.521        0.374      347.190       25.980      863.404
07/23/2013  09:29:00       48.757      -12.319       29.287       40.700       26.677       27.077     1656.457      711.647      733.165        0.324        0.155       50.289       19.656        0.153      347.511       26.534      863.417
07/23/2013  09:30:00       18.138       -0.923       35.628       46.109       37.414       35.589     2126.061     1399.834     1266.562        0.319        0.240       18.162       35.845        3.895      347.418       26.371      863.415
07/23/2013  09:31:00       47.595      -69.923        6.347       54.932       64.997       45.574     3017.547     4224.667     2077.006        0.826        0.466       84.585       41.023        0.235      347.627       26.732      863.419
07/23/2013  09:32:00       36.757      -39.985        8.382       41.590       52.084       33.808     1729.699     2712.739     1142.947        0.430        0.279       54.312       28.990        0.285      347.601       26.690      863.429
07/23/2013  09:33:00       41.383      -38.574       24.644       45.435       41.408       35.916     2064.305     1714.656     1289.988        0.444        0.253       56.573       24.326        0.185      347.648       26.769      863.423
07/23/2013  09:34:00       31.221      -56.208       13.996       35.244       50.801       35.042     1242.109     2580.727     1227.918        0.469        0.253       64.297       32.024        0.248      347.347       26.251      863.412
07/23/2013  09:35:00       35.172      -33.434       12.339       38.106       63.103       28.812     1452.062     3981.946      830.148        0.438        0.313       48.527       19.411        0.160      346.946       25.560      863.403
07/23/2013  09:36:00       67.198       42.347       14.279       43.719       38.440       26.106     1911.371     1477.655      681.519        0.529        0.204       79.428       21.935        0.076      347.655       26.782      863.394
07/23/2013  09:37:00        8.942      -16.059       37.643       28.639       35.765       21.421      820.210     1279.137      458.872        0.216        0.128       18.380       21.296        1.342      347.834       27.091      863.370
07/23/2013  09:38:00       24.993      -14.651       19.077       34.270       40.777       27.918     1174.403     1662.725      779.441        0.241        0.181       28.971       20.865        0.519      347.550       26.601      863.357
07/23/2013  09:39:00       37.453       46.806       48.780       44.200       31.124       30.605     1953.597      968.694      936.695        0.492        0.193       59.946       20.709        0.119      347.462       26.448      863.346
07/23/2013  09:40:00       12.073       15.417       36.295       29.539       32.715       32.352      872.574     1070.296     1046.678        0.234        0.149       19.582       30.510        2.428      347.617       26.716      863.342
07/23/2013  09:41:00       29.826      -34.978       20.267       33.476       41.616       33.913     1120.613     1731.925     1150.081        0.326        0.200       45.968       26.156        0.324      347.703       26.865      863.338
07/23/2013  09:42:00       34.885      -30.654       10.212       21.830       41.794       27.553      476.571     1746.778      759.180        0.262        0.149       46.439       24.124        0.270      347.645       26.763      863.342
07/23/2013  09:43:00       20.303       -1.128       33.312       25.005       33.862       17.203      625.234     1146.607      295.949        0.180        0.103       20.334       15.602        0.589      347.899       27.203      863.320
07/23/2013  09:44:00      -27.258        2.615       25.163       33.542       28.447       23.985     1125.059      809.208      575.259        0.195        0.125       27.383       19.740        0.520      347.840       27.100      863.309
07/23/2013  09:45:00       -2.108       10.961       21.407       20.541       26.087       21.412      421.937      680.551      458.465        0.107        0.078       11.162       18.039        2.612      347.745       26.937      863.307
07/23/2013  09:46:00      -37.185      -19.415       -0.219       27.303       23.991       16.035      745.460      575.574      257.109        0.167        0.079       41.949       14.309        0.116      347.605       26.695      863.305
07/23/2013  09:47:00       -8.104      -37.422        1.363       23.256       33.708       19.984      540.848     1136.258      399.357        0.177        0.104       38.289       11.516        0.090      347.720       26.893      863.300
07/23/2013  09:48:00       -2.017      -26.678       26.234       20.080       39.680       23.646      403.194     1574.470      559.123        0.197        0.127       26.754       20.454        0.584      347.851       27.120      863.302
07/23/2013  09:49:00        5.378      -77.519       15.453       27.452       32.552       34.809      753.634     1059.627     1211.680        0.465        0.151       77.706       20.227        0.068      347.859       27.134      863.296
07/23/2013  09:50:00       29.012      -38.043       16.852       36.158       53.554       34.852     1307.435     2868.041     1214.694        0.398        0.270       47.843       39.215        0.672      347.824       27.073      863.298
07/23/2013  09:51:00      -11.487      -52.106       20.862       25.178       38.205       19.898      633.920     1459.645      395.936        0.289        0.124       53.357       13.075        0.060      347.743       26.932      863.295
07/23/2013  09:52:00      -13.826      -33.771       16.014       25.334       30.979       29.068      641.787      959.694      844.938        0.202        0.122       36.492       18.770        0.265      347.897       27.199      863.298
07/23/2013  09:53:00       18.754      -42.337        3.363       37.696       34.607       30.893     1420.966     1197.617      954.408        0.286        0.179       46.305       17.176        0.138      347.861       27.137      863.301
07/23/2013  09:54:00       19.325       -1.863       41.410       33.852       59.634       35.326     1145.933     3556.223     1247.953        0.402        0.298       19.415       36.974        3.627      347.878       27.167      863.310
07/23/2013  09:55:00       90.878     -103.604       16.796       85.490       75.601       47.051     7308.572     5715.473     2213.773        1.725        0.762      137.813       50.674        0.135      347.715       26.885      863.314
07/23/2013  09:56:00       39.994      -32.262       16.591       54.447       66.893       50.453     2964.486     4474.692     2545.508        0.645        0.499       51.384       50.778        0.977      347.591       26.671      863.326
07/23/2013  09:57:00       -5.476      -34.948       24.762       45.401       43.563       28.520     2061.281     1897.711      813.389        0.332        0.239       35.375       22.660        0.410      347.717       26.890      863.330
07/23/2013  09:58:00       64.398      -87.949        9.472       48.617       80.904       45.124     2363.633     6545.441     2036.216        1.146        0.547      109.006       48.616        0.199      347.722       26.897      863.343
07/23/2013  09:59:00       65.650      -62.680       -0.648       72.125       75.002       50.757     5201.951     5625.301     2576.279        1.082        0.670       90.767       49.791        0.301      347.657       26.784      863.350
07/23/2013  10:00:00       78.592     -113.084       -2.852       56.370       76.107       39.639     3177.545     5792.346     1571.286        1.475        0.527      137.712       38.716        0.079      347.630       26.738      863.375
07/23/2013  10:01:00       51.569      -76.768       34.871       58.431       78.039       58.309     3414.188     6090.027     3399.918        1.133        0.645       92.481       59.548        0.415      347.659       26.790      863.373
07/23/2013  10:02:00      125.145     -139.186      -16.053       49.480       64.168       37.357     2448.283     4117.574     1395.553        2.162        0.398      187.174       31.195        0.028      347.606       26.695      863.376
07/23/2013  10:03:00       78.189      -42.629       29.748       88.512       81.168       50.599     7834.304     6588.306     2560.224        1.290        0.849       89.054       61.419        0.476      347.860       27.134      863.379
07/23/2013  10:04:00       51.053     -100.521       -9.767       74.563       85.172       66.002     5559.681     7254.208     4356.252        1.498        0.859      112.742       67.541        0.359      347.846       27.109      863.383
07/23/2013  10:05:00        4.779      -99.198       20.858       60.435       63.961       52.771     3652.445     4090.986     2784.765        1.041        0.526       99.313       40.788        0.169      347.780       26.999      863.379
07/23/2013  10:06:00      102.784     -192.371       -7.314       61.502       72.357       46.100     3782.442     5235.584     2125.201        2.938        0.557      218.108       48.726        0.050      347.586       26.659      863.384
07/23/2013  10:07:00      114.315     -195.426      -27.469       73.669       65.937       35.695     5427.079     4347.650     1274.146        3.153        0.552      226.405       24.313        0.012      347.596       26.675      863.380
07/23/2013  10:08:00       85.651     -120.859       -2.806       72.931       99.275       56.290     5318.859     9855.527     3168.611        2.014        0.917      148.131       62.650        0.179      347.727       26.903      863.381
07/23/2013  10:09:00      110.555      -81.645        4.642       64.758       43.077       34.217     4193.623     1855.652     1170.833        1.306        0.361      137.435       28.069        0.042      347.424       26.382      863.387
07/23/2013  10:10:00       72.996      -95.351        9.146       69.388       94.418       55.687     4814.672     8914.758     3101.031        1.566        0.842      120.084       68.000        0.321      347.800       27.032      863.376
07/23/2013  10:11:00       29.175      -94.043       13.084       50.598       57.867       38.716     2560.176     3348.590     1498.891        0.864        0.370       98.464       34.047        0.120      347.705       26.866      863.378
07/23/2013  10:12:00        8.742      -59.373       20.500       51.578       48.685       40.409     2660.278     2370.202     1632.914        0.534        0.333       60.013       36.765        0.375      347.763       26.968      863.381
07/23/2013  10:13:00       46.710     -119.245       -0.242       42.176       64.913       38.926     1778.797     4213.648     1515.197        1.195        0.375      128.067       32.739        0.065      347.701       26.860      863.401
07/23/2013  10:14:00       81.288     -144.158       -5.137       66.249       64.014       38.780     4388.956     4097.738     1503.918        1.870        0.500      165.497       30.517        0.034      347.609       26.701      863.415
07/23/2013  10:15:00       73.428     -125.977        1.055       50.437       73.805       42.768     2543.875     5447.160     1829.091        1.554        0.491      145.815       28.063        0.037      347.593       26.674      863.438
07/23/2013  10:16:00       94.366     -155.894        8.165       69.733       69.885       51.348     4862.630     4883.905     2636.628        2.283        0.619      182.230       41.347        0.051      347.577       26.643      863.448
07/23/2013  10:17:00       36.597     -101.525        8.773       47.102       86.193       47.713     2218.575     7429.309     2276.560        1.182        0.596      107.920       48.379        0.201      347.575       26.644      863.464
07/23/2013  10:18:00       51.226      -79.259       11.169       60.507       88.984       43.442     3661.140     7918.194     1887.174        1.125        0.673       94.372       50.557        0.287      347.605       26.696      863.477
07/23/2013  10:19:00       71.855     -112.213       -2.411       61.111       72.725       48.196     3734.535     5288.989     2322.888        1.455        0.567      133.248       43.662        0.107      347.470       26.462      863.485
07/23/2013  10:20:00       63.371     -118.746        8.614       57.010       90.361       42.498     3250.155     8165.189     1806.091        1.570        0.661      134.597       53.315        0.157      347.544       26.589      863.492
07/23/2013  10:21:00       70.293      -61.937       26.002       73.311       80.330       40.668     5374.473     6452.967     1653.916        1.146        0.674       93.687       51.501        0.302      347.668       26.803      863.495
07/23/2013  10:22:00       70.438     -112.644       11.239       64.796       77.177       48.860     4198.477     5956.275     2387.339        1.516        0.627      132.854       51.394        0.150      347.710       26.876      863.486
07/23/2013  10:23:00       38.645      -65.212       15.514       37.985       65.379       37.675     1442.878     4274.460     1419.370        0.656        0.357       75.803       33.241        0.192      347.799       27.029      863.491
07/23/2013  10:24:00       27.114      -37.764        7.027       32.847       41.060       26.586     1078.912     1685.903      706.805        0.284        0.174       46.490       19.457        0.175      347.764       26.969      863.483
07/23/2013  10:25:00       43.798      -88.397       16.558       34.499       56.034       34.864     1190.197     3139.764     1215.531        0.777        0.277       98.653       31.529        0.102      347.755       26.954      863.485
07/23/2013  10:26:00       27.432     -174.444        1.555       76.086       72.811       58.243     5789.107     5301.402     3392.291        2.283        0.724      176.588       46.636        0.070      347.598       26.681      863.468
07/23/2013  10:27:00       58.780      -99.535        9.301       49.705       60.844       38.828     2470.595     3701.980     1507.592        1.056        0.384      115.595       25.171        0.047      347.593       26.676      863.469
07/23/2013  10:28:00       96.249     -151.991        2.426       65.584       89.271       44.355     4301.279     7969.317     1967.386        2.330        0.712      179.903       48.363        0.072      347.537       26.576      863.480
07/23/2013  10:29:00       63.087      -62.857       25.618       64.329       87.023       45.342     4138.205     7573.030     2055.880        1.117        0.688       89.056       44.118        0.245      347.565       26.626      863.485
07/23/2013  10:30:00       87.721      -75.668        9.104       61.537       63.230       50.831     3786.825     3998.034     2583.828        1.193        0.518      115.848       42.771        0.136      347.267       26.111      863.512
07/23/2013  10:31:00       97.883      -98.529        0.650       83.405       98.235       57.599     6956.433     9650.025     3317.660        1.960        0.996      138.885       44.600        0.103      347.660       26.789      863.542
07/23/2013  10:32:00       69.062     -105.917        9.995       89.206       74.545       68.022     7957.710     5556.957     4627.011        1.711        0.907      126.444       64.242        0.258      347.659       26.787      863.567
07/23/2013  10:33:00       67.118     -148.368        3.180       59.984       95.850       60.078     3598.108     9187.169     3609.415        2.146        0.820      162.843       57.960        0.127      347.647       26.767      863.578
07/23/2013  10:34:00       56.408     -119.042      -10.491       56.265       70.931       46.048     3165.699     5031.185     2120.419        1.389        0.516      131.730       44.510        0.114      347.586       26.663      863.594
07/23/2013  10:35:00       90.106     -137.489        4.531       50.566       84.748       37.396     2556.909     7182.171     1398.485        1.909        0.557      164.384       35.941        0.048      347.620       26.719      863.591
07/23/2013  10:36:00       70.874      -79.161        2.229       57.301       52.778       39.946     3283.352     2785.536     1595.656        0.948        0.383      106.253       38.846        0.134      347.685       26.834      863.594
07/23/2013  10:37:00       33.213      -52.404       22.443       42.528       45.990       34.413     1808.651     2115.116     1184.257        0.473        0.255       62.043       26.732        0.186      347.695       26.850      863.606
07/23/2013  10:38:00      120.652     -120.722      -11.674       44.803       46.443       36.592     2007.345     2156.954     1338.939        1.738        0.275      170.677       26.874        0.025      347.495       26.505      863.605
07/23/2013  10:39:00       54.045      -74.162       -3.617       50.288       67.995       55.545     2528.852     4623.378     3085.208        0.933        0.512       91.766       36.112        0.155      347.509       26.530      863.605
07/23/2013  10:40:00       67.569      -69.884      -12.254       55.490       98.692       50.641     3079.175     9740.049     2564.464        1.249        0.769       97.208       59.037        0.369      347.690       26.841      863.616
07/23/2013  10:41:00       65.835      -86.550       12.723       79.560      105.711       47.817     6329.860    11174.868     2286.435        1.589        0.990      108.744       57.569        0.280      347.389       26.320      863.626
07/23/2013  10:42:00      132.807     -153.598      -32.787       68.070       84.312       45.717     4633.529     7108.513     2090.057        2.807        0.692      203.052       41.475        0.042      347.724       26.898      863.637
07/23/2013  10:43:00       61.318      -58.137       13.697       55.970       61.509       46.140     3132.684     3783.416     2128.925        0.818        0.452       84.498       43.937        0.270      347.567       26.629      863.647
07/23/2013  10:44:00       37.523      -30.666       44.861       55.898       75.761       56.482     3124.638     5739.743     3190.171        0.821        0.603       48.460       57.382        1.402      347.756       26.956      863.654
07/23/2013  10:45:00       60.305       -9.914       50.327       74.809       98.067       75.393     5596.371     9617.195     5684.047        1.358        1.045       61.114       78.630        1.655      347.731       26.912      863.674
07/23/2013  10:46:00       96.726      -53.871       21.816       78.582      106.477       61.947     6175.152    11337.419     3837.430        1.704        1.068      110.716       70.786        0.409      347.801       27.032      863.711
07/23/2013  10:47:00       57.550      -36.783       29.998       73.001       94.308       47.420     5329.206     8894.073     2248.695        1.102        0.824       68.301       52.849        0.599      347.771       26.981      863.730
07/23/2013  10:48:00       42.559      -72.185       26.428       49.968       76.777       42.561     2496.801     5894.721     1811.431        0.896        0.510       83.797       34.535        0.170      347.656       26.783      863.745
07/23/2013  10:49:00       66.008     -126.513       -3.785       78.492      122.610       51.419     6160.938    15033.226     2643.923        2.210        1.192      142.697       62.979        0.195      347.764       26.967      863.757
07/23/2013  10:50:00       97.676      -77.703       19.228       80.448      105.836       73.140     6471.904    11201.288     5349.455        1.948        1.151      124.814       87.528        0.492      347.748       26.941      863.778
07/23/2013  10:51:00        6.234        5.634       79.226       41.616       96.667       61.049     1731.886     9344.481     3727.003        1.057        0.740        8.403       69.973       69.345      347.771       26.980      863.775
07/23/2013  10:52:00       42.479      -82.936       16.714       59.457       95.368       49.406     3535.084     9095.047     2440.968        1.201        0.754       93.182       58.389        0.393      347.893       27.192      863.766
07/23/2013  10:53:00       82.740      -85.467       -7.211       53.393       47.980       38.530     2850.860     2302.054     1484.563        1.042        0.332      118.956       31.687        0.071      347.735       26.921      863.765
07/23/2013  10:54:00       84.233      -64.921       11.668       60.597       70.924       46.229     3672.036     5030.192     2137.163        1.114        0.542      106.348       50.279        0.224      347.568       26.631      863.769
07/23/2013  10:55:00       48.844      -41.796       26.283       51.619       42.282       37.011     2664.493     1787.758     1369.778        0.532        0.291       64.286       32.586        0.257      347.722       26.897      863.770
07/23/2013  10:56:00      104.237     -107.200      -10.237       64.869       73.086       35.635     4207.936     5341.539     1269.849        1.664        0.541      149.523       35.012        0.055      347.656       26.781      863.779
07/23/2013  10:57:00      104.814      -98.588      -16.697       57.840       86.686       58.756     3345.478     7514.535     3452.284        1.765        0.716      143.894       54.561        0.144      347.732       26.913      863.775
07/23/2013  10:58:00       87.638     -159.077      -13.498       69.627       94.808       49.763     4847.909     8988.651     2476.314        2.474        0.816      181.620       50.715        0.078      347.941       27.272      863.758
07/23/2013  10:59:00       92.879     -114.096        2.510       70.296      109.980       63.309     4941.567    12095.659     4008.083        2.134        1.052      147.121       68.467        0.217      347.906       27.213      863.753
07/23/2013  11:00:00       58.304      -73.476       26.921       79.016       99.032       57.955     6243.476     9807.403     3358.749        1.446        0.970       93.798       62.435        0.443      347.950       27.290      863.757
07/23/2013  11:01:00       75.387     -140.785        0.055       75.120       99.572       58.694     5643.074     9914.547     3444.942        2.225        0.950      159.699       64.661        0.164      347.945       27.280      863.744
07/23/2013  11:02:00       61.504      -78.614       -4.633       51.742       64.807       35.889     2677.232     4199.937     1288.050        0.907        0.408       99.814       34.376        0.119      347.886       27.179      863.760
07/23/2013  11:03:00       41.760      -93.305        8.727       44.618       70.358       36.778     1990.803     4950.210     1352.644        0.941        0.415      102.224       45.787        0.201      348.004       27.385      863.762
07/23/2013  11:04:00       45.771      -90.741       28.201       66.511      104.868       53.676     4423.741    10997.314     2881.085        1.471        0.915      101.631       67.947        0.447      348.123       27.589      863.766
07/23/2013  11:05:00       29.989      -65.492       12.091       54.402       76.933       45.370     2959.557     5918.748     2058.451        0.813        0.547       72.032       41.767        0.336      348.157       27.647      863.765
07/23/2013  11:06:00       50.321      -32.131       48.592       69.410      110.271       61.097     4817.737    12159.668     3732.822        1.331        1.036       59.704       72.669        1.481      348.089       27.529      863.779
07/23/2013  11:07:00       67.748      -71.399       18.507       57.735       95.789       57.251     3333.370     9175.562     3277.636        1.291        0.789       98.425       55.954        0.323      348.056       27.473      863.804
07/23/2013  11:08:00       97.472      -15.287       40.860       84.396       70.276       55.172     7122.607     4938.784     3043.945        1.325        0.755       98.664       52.143        0.279      347.977       27.337      863.824
07/23/2013  11:09:00      107.502       -7.983       46.046      105.035       79.059       68.403    11032.396     6250.343     4678.938        1.785        1.098      107.798       70.066        0.422      347.871       27.152      863.846
07/23/2013  11:10:00       19.634      -66.935       21.331       55.462      126.134       62.249     3076.048    15909.756     3874.880        1.409        1.143       69.755       74.367        1.137      348.083       27.519      863.861
07/23/2013  11:11:00       19.523     -119.285       15.879       81.664       78.677       66.063     6669.049     6190.130     4364.342        1.604        0.861      120.872       55.335        0.210      348.139       27.617      863.860
07/23/2013  11:12:00       82.836       11.992       72.072       97.165      120.848       75.553     9441.105    14604.151     5708.277        2.097        1.488       83.700       77.546        0.858      348.105       27.556      863.876
07/23/2013  11:13:00      116.396       54.480       57.989      119.990       93.751       56.248    14397.686     8789.266     3163.892        2.311        1.318      128.514       34.844        0.074      348.064       27.485      863.886
07/23/2013  11:14:00       80.647       15.160       58.179       79.039       89.130       67.140     6247.158     7944.119     4507.801        1.441        0.935       82.059       70.740        0.743      348.100       27.550      863.891
07/23/2013  11:15:00      124.850       67.736       68.626      131.007       87.671       58.678    17162.720     7686.265     3443.148        2.658        1.415      142.041       51.892        0.133      348.097       27.544      863.883
07/23/2013  11:16:00       94.949       30.929       73.884      109.758      123.188       65.100    12046.816    15175.198     4237.999        2.344        1.573       99.860       67.335        0.455      348.291       27.878      863.876
07/23/2013  11:17:00       39.443       -0.988       54.938       51.562       73.311       31.365     2658.633     5374.518      983.788        0.679        0.451       39.456       40.093        1.033      348.326       27.939      863.888
07/23/2013  11:18:00        5.486      -22.830       30.934       24.572       55.171       27.578      603.781     3043.842      760.539        0.296        0.220       23.480       25.419        1.172      348.250       27.809      863.880
07/23/2013  11:19:00        3.267       11.371       26.252       25.348       39.640       25.991      642.534     1571.305      675.550        0.186        0.144       11.831       24.791        4.391      348.408       28.081      863.869
07/23/2013  11:20:00       73.776      -51.768       -3.804       53.421       43.648       25.836     2853.831     1905.138      667.519        0.678        0.271       90.127       23.019        0.065      347.855       27.127      863.841
07/23/2013  11:21:00       16.468      -25.624       20.199       40.198       46.016       31.863     1615.886     2117.473     1015.227        0.304        0.237       30.460       30.515        1.004      348.420       28.103      863.787
07/23/2013  11:22:00      -87.798      -17.467        6.045       66.476       34.976       25.682     4419.102     1223.344      659.557        0.717        0.315       89.518       23.888        0.071      348.299       27.894      863.738
07/23/2013  11:23:00     -114.691      -16.940      -10.603       37.827       44.813       21.656     1430.890     2008.197      468.994        0.873        0.195      115.935       21.252        0.034      347.888       27.182      863.704
07/23/2013  11:24:00      -75.698      -94.590        2.352       53.409       45.547       24.756     2852.517     2074.498      612.879        1.011        0.277      121.151       20.404        0.028      347.967       27.320      863.696
07/23/2013  11:25:00       -7.499      -80.085      -10.290       29.092       30.256       27.753      846.344      915.428      770.220        0.455        0.127       80.436       14.740        0.034      347.999       27.373      863.699
07/23/2013  11:26:00        6.575      -17.028       16.624       26.266       34.203       24.391      689.898     1169.830      594.927        0.153        0.123       18.254       22.961        1.582      348.204       27.730      863.717
07/23/2013  11:27:00        5.733        4.330       26.998       23.147       24.145       19.256      535.796      582.994      370.812        0.113        0.074        7.185        9.224        1.648      348.453       28.161      863.745
07/23/2013  11:28:00       18.368       26.945       41.683       43.559       31.819       27.424     1897.389     1012.425      752.057        0.323        0.183       32.610       19.662        0.364      347.986       27.353      863.776
07/23/2013  11:29:00        6.415        4.595       22.483       27.007       30.054       26.369      729.386      903.266      695.323        0.145        0.116        7.891       18.364        5.416      348.205       27.731      863.807
07/23/2013  11:30:00       24.897       11.744       46.743       32.370       33.195       23.408     1047.797     1101.928      547.919        0.282        0.135       27.528       13.790        0.251      347.900       27.204      863.828
07/23/2013  11:31:00       52.319      -11.801       13.392       32.460       26.904       32.946     1053.635      723.802     1085.464        0.296        0.143       53.633       12.965        0.058      347.568       26.631      863.859
07/23/2013  11:32:00       29.833        4.200       22.395       29.385       20.149       25.170      863.450      405.992      633.536        0.166        0.095       30.127       14.771        0.240      347.734       26.917      863.870
07/23/2013  11:33:00       52.481        6.239       11.065       38.620       29.136       31.488     1491.520      848.926      991.476        0.312        0.167       52.851       20.820        0.155      347.512       26.534      863.871
07/23/2013  11:34:00       28.472      -27.633       16.469       40.499       39.847       31.499     1640.133     1587.783      992.206        0.303        0.211       39.677       23.249        0.343      347.885       27.178      863.883
07/23/2013  11:35:00       78.375      -31.886       38.108       63.866       68.525       57.214     4078.910     4695.616     3273.455        1.033        0.602       84.613       38.512        0.207      348.222       27.760      863.896
07/23/2013  11:36:00       44.191      -18.738       48.286       52.447       64.349       53.905     2750.684     4140.744     2905.763        0.721        0.490       48.000       43.209        0.810      348.185       27.696      863.912
07/23/2013  11:37:00      122.228      -84.845        7.400       55.824       67.210       49.808     3116.311     4517.209     2480.816        1.615        0.506      148.790       47.285        0.101      347.938       27.271      863.923
07/23/2013  11:38:00      109.490      -63.604       27.598       86.982       72.576       52.284     7565.936     5267.327     2733.572        1.618        0.778      126.623       56.411        0.198      347.886       27.181      863.942
07/23/2013  11:39:00       19.467       38.096       69.032       60.870       56.581       42.025     3705.119     3201.444     1766.139        0.763        0.434       42.781       42.307        0.978      348.110       27.568      863.966
07/23/2013  11:40:00       27.238       10.692       20.244       64.269       53.115       35.824     4130.566     2821.154     1283.386        0.475        0.412       29.261       28.929        0.977      347.994       27.367      863.965
07/23/2013  11:41:00       58.678      -24.680       39.792       74.994       57.530       49.579     5624.045     3309.660     2458.041        0.851        0.570       63.657       50.766        0.636      348.061       27.484      863.976
07/23/2013  11:42:00       97.096      -78.747       13.531       70.500       55.048       52.297     4970.303     3030.265     2734.936        1.327        0.537      125.015       48.464        0.150      347.957       27.303      863.999
07/23/2013  11:43:00       69.722      -42.515       24.198       82.133       74.248       41.899     6745.838     5512.782     1755.524        1.063        0.701       81.662       49.733        0.371      348.031       27.429      864.016
07/23/2013  11:44:00       74.659       57.178       75.394       81.533       90.681       57.694     6647.613     8223.043     3328.564        1.636        0.910       94.039       48.382        0.265      348.125       27.591      864.034
07/23/2013  11:45:00      130.569       81.686       55.681       62.831       51.829       47.159     3947.780     2686.244     2223.989        1.784        0.443      154.016       31.952        0.043      348.136       27.611      864.050
07/23/2013  11:46:00      126.343       47.686       44.219       76.913       70.981       44.978     5915.650     5038.311     2022.982        1.658        0.649      135.043       36.699        0.074      348.019       27.408      864.064
07/23/2013  11:47:00       98.038       59.381       45.776       64.297       53.158       43.133     4134.051     2825.813     1860.459        1.202        0.441      114.619       32.516        0.080      348.111       27.568      864.068
07/23/2013  11:48:00       41.076       34.719       45.712       51.686       33.443       32.042     2671.486     1118.462     1026.694        0.490        0.241       53.783       32.381        0.362      348.250       27.809      864.068
07/23/2013  11:49:00       68.750      -53.637       17.118       80.040       77.930       46.599     6406.382     6073.161     2171.483        1.127        0.733       87.198       52.416        0.361      348.054       27.471      864.052
07/23/2013  11:50:00       98.729      -70.324       22.006       75.042       57.769       46.003     5631.301     3337.296     2116.267        1.313        0.554      121.215       30.566        0.064      348.052       27.465      864.037
07/23/2013  11:51:00       29.412        0.998       12.905       34.515       46.220       27.130     1191.318     2136.304      736.046        0.255        0.203       29.429       23.038        0.613      347.929       27.254      864.034
07/23/2013  11:52:00       72.504      -40.257       14.046       56.071       49.393       44.922     3143.977     2439.637     2017.958        0.734        0.380       82.931       21.156        0.065      347.795       27.023      864.046
07/23/2013  11:53:00       30.873       -0.792       24.421       31.564       50.659       33.754      996.295     2566.326     1139.323        0.313        0.235       30.883       24.475        0.628      347.909       27.220      864.070
07/23/2013  11:54:00       61.408      -82.378       21.956       59.526       67.665       57.872     3543.342     4578.599     3349.176        1.125        0.574      102.748       48.594        0.224      347.949       27.290      864.104
07/23/2013  11:55:00       57.973       21.978       85.029       72.079      102.949       63.593     5195.336    10598.527     4044.124        1.545        0.992       61.999       59.302        0.915      348.202       27.726      864.132
07/23/2013  11:56:00       44.914       37.152       58.941       47.834       54.560       42.357     2288.083     2976.822     1794.106        0.696        0.353       58.288       20.160        0.120      348.333       27.952      864.171
07/23/2013  11:57:00       98.428      108.988      100.703       73.896       59.433       58.316     5460.554     3532.285     3400.808        2.205        0.620      146.855       46.125        0.099      348.044       27.450      864.202
07/23/2013  11:58:00      112.583       49.444       57.316      116.655       82.865       50.321    13608.478     6866.675     2532.220        2.070        1.150      122.962       49.596        0.163      348.064       27.488      864.225
07/23/2013  11:59:00      210.870     -111.573       18.855       97.941       90.857       65.884     9592.426     8255.058     4340.720        3.972        1.109      238.568       62.375        0.068      347.979       27.338      864.252
07/23/2013  12:00:00      125.587      -19.419       60.646       95.126       87.767       69.759     9048.871     7702.979     4866.297        2.072        1.081      127.079       59.432        0.219      348.086       27.524      864.282
07/23/2013  12:01:00      114.526      -63.705       36.072       81.496       87.284       63.776     6641.531     7618.572     4067.366        1.840        0.916      131.052       54.078        0.170      348.227       27.769      864.315
07/23/2013  12:02:00       97.059      -54.334       40.346       88.454       99.705       50.105     7824.056     9941.062     2510.504        1.713        1.014      111.233       60.997        0.301      348.229       27.772      864.332
07/23/2013  12:03:00       78.009      -42.132       35.358       79.711       96.281       56.324     6353.782     9270.097     3172.391        1.395        0.940       88.659       69.451        0.614      348.267       27.837      864.343
07/23/2013  12:04:00      101.465      -29.888       52.991       93.020      161.859      105.447     8652.811    26198.406    11119.004        2.997        2.299      105.775      104.236        0.971      348.367       28.009      864.334
07/23/2013  12:05:00      123.201      -59.985       64.199      121.986      145.846       77.329    14880.595    21270.968     5979.764        3.251        2.107      137.028       79.568        0.337      348.011       27.395      864.326
07/23/2013  12:06:00      125.880      -78.843       60.065      120.065      182.719      102.216    14415.499    33386.173    10448.013        4.195        2.912      148.532      127.893        0.741      347.990       27.356      864.329
07/23/2013  12:07:00      233.911     -269.036      -24.343      163.016      176.566       72.088    26574.313    31175.453     5196.700        9.530        3.147      356.503       76.712        0.046      347.862       27.134      864.274
07/23/2013  12:08:00      133.642     -188.034      -19.212       83.859       90.500       58.230     7032.404     8190.274     3390.779        3.610        0.931      230.688       49.279        0.046      347.856       27.124      864.266
07/23/2013  12:09:00       39.314       -8.607       22.263       55.409       71.605       29.460     3070.102     5127.276      867.871        0.559        0.453       40.245       25.537        0.403      347.766       26.973      864.241
07/23/2013  12:10:00      135.282       67.907       30.615       73.051       53.759       55.431     5336.520     2890.024     3072.584        1.757        0.565      151.369       21.059        0.019      347.643       26.758      864.248
07/23/2013  12:11:00      127.601      104.350       24.169       39.867       37.061       32.665     1589.399     1373.552     1067.008        1.589        0.201      164.836        9.071        0.003      347.613       26.710      864.248
07/23/2013  12:12:00      115.165       77.728       40.777       46.186       43.012       39.662     2133.168     1850.002     1573.051        1.326        0.278      138.941       21.510        0.024      347.317       26.199      864.231
07/23/2013  12:13:00       89.298       57.214       20.227       63.561       48.379       34.819     4040.031     2340.485     1212.367        0.962        0.380      106.054       23.557        0.049      347.462       26.447      864.195
07/23/2013  12:14:00       -0.722       56.168        0.577       25.680       25.932       17.528      659.469      672.488      307.233        0.240        0.082       56.173       11.368        0.041      347.509       26.529      864.131
07/23/2013  12:15:00       -0.595       26.216       13.351       31.623       33.836       23.956     1000.027     1144.885      573.878        0.179        0.136       26.223       14.761        0.317      347.393       26.330      864.071
07/23/2013  12:16:00      -62.286       -7.108        9.701       54.365       23.914       30.236     2955.588      571.894      914.234        0.423        0.222       62.690       36.159        0.333      347.317       26.198      863.997
07/23/2013  12:17:00     -138.854      -51.667       -6.541       42.086       39.228       24.013     1771.212     1538.840      576.607        1.294        0.194      148.156       20.941        0.020      347.125       25.869      863.924
07/23/2013  12:18:00     -116.649      -19.399        1.823       62.121       51.699       26.918     3859.074     2672.799      724.590        1.062        0.363      118.251       29.431        0.062      347.393       26.330      863.861
07/23/2013  12:19:00     -129.038      -54.330       -1.691       60.332       36.587       26.619     3639.959     1338.588      708.594        1.265        0.284      140.009       30.535        0.048      347.479       26.478      863.802
07/23/2013  12:20:00     -128.382      -48.250        0.527       66.691       46.330       23.162     4447.645     2146.503      536.488        1.297        0.357      137.149       26.762        0.038      347.423       26.380      863.759
07/23/2013  12:21:00     -169.035      -34.138        6.475       73.786       61.497       39.673     5444.319     3781.896     1573.956        2.029        0.540      172.448       37.588        0.048      347.349       26.252      863.732
07/23/2013  12:22:00     -230.814      -12.711      -18.869       83.848       51.936       43.056     7030.533     2697.353     1853.832        3.268        0.579      231.164       43.470        0.035      347.265       26.106      863.723
07/23/2013  12:23:00     -225.800       -6.385      -30.974       57.360       36.414       24.475     3290.120     1325.979      599.005        2.860        0.261      225.890       22.174        0.010      347.229       26.043      863.707
07/23/2013  12:24:00     -157.356      -53.158      -28.914       60.723       44.440       36.250     3687.251     1974.917     1314.081        1.770        0.349      166.092       18.678        0.013      347.291       26.152      863.687
07/23/2013  12:25:00     -255.768      -49.668      -16.210       64.968       47.379       39.647     4220.792     2244.753     1571.901        3.809        0.402      260.546       38.726        0.022      347.363       26.273      863.651
07/23/2013  12:26:00     -258.889      -81.662      -21.064       82.887       61.979       47.121     6870.289     3841.387     2220.387        4.353        0.647      271.463       44.299        0.027      347.332       26.220      863.615
07/23/2013  12:27:00     -283.638      -61.819      -23.836       91.192       78.672       43.807     8315.957     6189.305     1919.010        5.063        0.821      290.297       38.871        0.018      347.367       26.281      863.583
07/23/2013  12:28:00     -326.768      -47.332      -26.031      103.757       81.046       51.640    10765.424     6568.478     2666.678        6.484        1.000      330.178       61.518        0.035      347.348       26.248      863.558
07/23/2013  12:29:00     -286.793      -72.407       -8.180      100.498      103.063       49.370    10099.830    10621.979     2437.433        5.535        1.158      295.792       46.619        0.025      347.366       26.279      863.531
07/23/2013  12:30:00     -260.845      -68.932       -5.742      108.974       77.326       47.599    11875.410     5979.288     2265.662        4.647        1.006      269.799       53.710        0.040      347.376       26.297      863.518
07/23/2013  12:31:00     -238.099      -50.435       -0.299       84.598       79.586       45.894     7156.799     6333.990     2106.300        3.741        0.780      243.382       42.811        0.031      347.373       26.291      863.520
07/23/2013  12:32:00     -353.132      -36.431      -35.468       84.125       57.460       47.962     7077.072     3301.693     2300.350        6.998        0.634      355.006       42.037        0.014      347.369       26.285      863.520
07/23/2013  12:33:00     -332.816      -92.015       -9.540      112.266       86.613       55.885    12603.614     7501.862     3123.172        7.127        1.161      345.302       50.125        0.021      347.356       26.262      863.511
07/23/2013  12:34:00     -237.238      -50.916        3.516      125.106       73.295       50.640    15651.436     5372.191     2564.392        4.123        1.179      242.640       62.070        0.065      347.376       26.297      863.514
07/23/2013  12:35:00     -220.182      -37.835        3.964       97.941       79.177       45.013     9592.484     6268.961     2026.204        3.390        0.894      223.409       45.090        0.041      347.379       26.302      863.523
07/23/2013  12:36:00     -176.619      -73.753       -0.931      104.987       77.766       43.979    11022.178     6047.622     1934.195        2.782        0.950      191.400       47.954        0.063      347.393       26.329      863.516
07/23/2013  12:37:00      -61.199      -50.173       11.253       73.242       65.795       42.039     5364.394     4328.976     1767.241        0.892        0.573       79.137       45.342        0.328      347.455       26.436      863.510
07/23/2013  12:38:00      -43.947      -49.212       14.682       79.479       59.472       42.622     6316.873     3536.949     1816.603        0.812        0.584       65.978       49.482        0.562      347.460       26.444      863.505
07/23/2013  12:39:00     -108.678      -76.791        6.812       84.261       73.286       37.016     7099.938     5370.779     1370.156        1.579        0.692      133.070       40.317        0.092      347.470       26.461      863.495
07/23/2013  12:40:00      -70.443      -45.252        7.735       69.504       43.969       36.997     4830.779     1933.247     1368.760        0.760        0.407       83.726       38.693        0.214      347.504       26.522      863.476
07/23/2013  12:41:00     -116.278      -86.640       -9.178       97.906       65.408       45.561     9585.669     4278.260     2075.807        1.852        0.797      145.007       38.452        0.070      347.488       26.493      863.468
07/23/2013  12:42:00     -137.941      -13.556       -4.323       63.862       57.321       35.253     4078.312     3285.643     1242.743        1.392        0.430      138.606       33.798        0.059      347.484       26.486      863.449
07/23/2013  12:43:00     -145.861      -59.717        1.150       66.015       57.956       30.391     4357.914     3358.954      923.614        1.674        0.432      157.612       30.951        0.039      347.514       26.538      863.437
07/23/2013  12:44:00     -140.716      -42.845        5.240       74.154       55.427       32.638     5498.749     3072.179     1065.272        1.565        0.482      147.094       29.519        0.040      347.621       26.722      863.408
07/23/2013  12:45:00     -125.876      -54.308       -0.875       72.116       61.561       38.055     5200.728     3789.704     1448.194        1.461        0.522      137.092       30.089        0.048      347.590       26.671      863.395
07/23/2013  12:46:00     -173.929      -86.669       -9.309       78.446       67.377       42.904     6153.800     4539.727     1840.757        2.519        0.627      194.327       40.872        0.044      347.623       26.723      863.357
07/23/2013  12:47:00     -243.682      -80.700       -1.256       99.939       79.910       48.365     9987.859     6385.614     2339.200        4.230        0.936      256.698       50.347        0.038      347.614       26.707      863.322
07/23/2013  12:48:00     -246.443      -76.546       -8.156       82.225       66.799       43.627     6760.896     4462.085     1903.295        3.989        0.656      258.057       42.656        0.027      347.648       26.765      863.296
07/23/2013  12:49:00     -172.036      -79.117      -13.360       79.613       62.841       27.552     6338.242     3949.005      759.087        2.354        0.552      189.357       25.107        0.018      347.778       26.992      863.253
07/23/2013  12:50:00     -148.575       -2.531        4.730       73.267       58.918       47.868     5368.065     3471.378     2291.370        1.661        0.557      148.596       39.248        0.070      347.748       26.943      863.223
07/23/2013  12:51:00     -223.263     -129.176        5.178      101.731      115.142       53.774    10349.240    13257.706     2891.627        4.652        1.325      257.940       48.244        0.035      347.752       26.946      863.197
07/23/2013  12:52:00     -195.360     -110.887      -14.211       60.897      113.331       41.966     3708.413    12843.818     1761.146        3.448        0.916      224.637       28.055        0.016      347.770       26.978      863.171
07/23/2013  12:53:00     -115.557      -74.403        4.315       87.565       69.778       42.504     7667.621     4868.901     1806.605        1.662        0.717      137.439       48.263        0.123      347.813       27.052      863.145
07/23/2013  12:54:00     -159.815     -113.351        6.612       92.836       57.246       50.284     8618.537     3277.133     2528.447        2.643        0.721      195.932       52.684        0.072      347.793       27.019      863.123
07/23/2013  12:55:00     -173.608     -111.260       11.370       95.812       85.914       50.098     9179.943     7381.254     2509.807        3.086        0.954      206.201       53.307        0.067      347.811       27.047      863.107
07/23/2013  12:56:00     -157.897     -121.070        4.508       96.198       80.948       54.495     9254.138     6552.650     2969.713        2.919        0.939      198.971       52.586        0.070      347.811       27.046      863.095
07/23/2013  12:57:00     -137.241     -129.174       -3.357       82.129       74.906       42.652     6745.254     5610.854     1819.174        2.485        0.709      188.470       48.319        0.066      347.831       27.084      863.088
07/23/2013  12:58:00      -87.849      -66.622       12.672       88.790       53.157       39.332     7883.739     2825.671     1546.987        1.228        0.613      110.254       40.298        0.134      347.870       27.151      863.083
07/23/2013  12:59:00      -89.750      -67.708        7.353       62.196       65.111       37.876     3868.315     4239.443     1434.558        1.112        0.477      112.425       36.831        0.107      347.937       27.267      863.082
07/23/2013  13:00:00     -111.116      -80.994        4.616       82.062       66.178       34.771     6734.181     4379.470     1209.024        1.562        0.616      137.502       41.280        0.090      347.968       27.320      863.068
07/23/2013  13:01:00     -124.004      -31.790       -2.862       74.473       61.755       40.353     5546.202     3813.650     1628.366        1.369        0.549      128.015       47.389        0.137      348.019       27.409      863.071
07/23/2013  13:02:00      -51.798       10.798        5.493       60.499       67.767       41.972     3660.069     4592.302     1761.638        0.642        0.501       52.912       33.845        0.409      348.067       27.491      863.071
07/23/2013  13:03:00      -73.372      -18.606       10.436       73.125       72.128       35.718     5347.194     5202.500     1275.806        0.883        0.591       75.694       34.561        0.208      348.079       27.515      863.064
07/23/2013  13:04:00     -137.827      -17.230        1.683       97.807       79.874       37.420     9566.286     6379.908     1400.228        1.832        0.867      138.900       45.632        0.108      348.093       27.537      863.065
07/23/2013  13:05:00     -143.526        8.291       -4.389       64.338       51.070       38.728     4139.390     2608.172     1499.867        1.447        0.412      143.766       29.350        0.042      348.138       27.613      863.068
07/23/2013  13:06:00     -129.086      -77.795       -0.800       56.570       50.148       25.838     3200.204     2514.844      667.608        1.455        0.319      150.715       21.262        0.020      348.171       27.673      863.073
07/23/2013  13:07:00     -224.140     -103.416      -21.152      132.041      101.701       48.035    17434.727    10343.107     2307.323        4.573        1.504      246.848       53.509        0.047      348.244       27.795      863.057
07/23/2013  13:08:00     -244.918     -113.474      -14.629      112.631       80.567       50.053    12685.785     6490.982     2505.258        4.737        1.084      269.928       45.191        0.028      348.182       27.689      863.049
07/23/2013  13:09:00     -215.215      -41.064       -1.498      129.687       74.193       49.865    16818.804     5504.644     2486.547        3.640        1.240      219.097       63.601        0.084      348.283       27.862      863.031
07/23/2013  13:10:00     -139.874     -117.864        2.634      117.233       90.957       51.039    13743.577     8273.103     2604.939        2.904        1.231      182.912       53.096        0.084      348.327       27.938      863.023
07/23/2013  13:11:00     -137.621     -132.537        8.749      103.046       91.650       57.297    10618.459     8399.728     3282.970        2.944        1.115      191.064       63.713        0.111      348.349       27.979      863.009
07/23/2013  13:12:00     -186.630     -128.019        0.915      101.281       72.062       41.745    10257.822     5192.960     1742.663        3.420        0.860      226.318       40.350        0.032      348.363       28.001      862.994
07/23/2013  13:13:00     -166.900      -56.184       -1.848       99.538       74.673       37.841     9907.855     5576.126     1431.941        2.396        0.846      176.103       47.005        0.071      348.426       28.112      862.999
07/23/2013  13:14:00      -79.841      -75.710      -11.260       66.236       48.422       27.041     4387.146     2344.643      731.207        0.985        0.373      110.030       24.646        0.050      348.512       28.263      862.983
07/23/2013  13:15:00     -149.003     -179.376       -8.807      121.306       95.177       60.091    14715.062     9058.696     3610.970        4.091        1.369      233.190       70.568        0.092      348.500       28.238      862.984
07/23/2013  13:16:00     -176.997     -139.851      -14.059       73.154       59.662       38.125     5351.444     3559.544     1453.527        3.072        0.518      225.580       33.421        0.022      348.443       28.139      862.982
07/23/2013  13:17:00     -152.380      -71.058      -10.112      123.230       63.709       44.540    15185.705     4058.864     1983.845        2.480        1.061      168.133       35.091        0.044      348.460       28.170      862.991
07/23/2013  13:18:00     -157.032        5.920      -15.849       73.601       66.875       39.894     5417.131     4472.219     1591.501        1.821        0.574      157.143       34.823        0.049      348.440       28.136      862.998
07/23/2013  13:19:00      -95.648      -43.133        2.534       61.623       60.434       32.608     3797.400     3652.214     1063.266        0.976        0.426      104.924       27.573        0.069      348.596       28.407      863.008
07/23/2013  13:20:00     -232.495      -53.692      -10.998      130.387      136.753       52.377    17000.660    18701.482     2743.328        4.774        1.922      238.614       56.865        0.057      348.534       28.297      863.003
07/23/2013  13:21:00     -190.759      -77.622       -6.734      113.895       86.585       48.698    12972.036     7496.940     2371.510        3.265        1.142      205.947       47.110        0.052      348.568       28.355      863.025
07/23/2013  13:22:00     -153.103     -177.648       16.766      107.042      117.960       62.103    11458.090    13914.526     3856.801        4.225        1.461      234.519       45.224        0.037      348.502       28.243      863.027
07/23/2013  13:23:00     -252.914     -204.420        1.450      136.813      104.865       63.183    18717.860    10996.755     3992.053        6.972        1.685      325.197       69.887        0.046      348.502       28.242      863.042
07/23/2013  13:24:00     -148.548     -155.185        4.063      118.714       95.096       54.949    14093.001     9043.311     3019.426        3.616        1.308      214.823       59.232        0.076      348.491       28.223      863.067
07/23/2013  13:25:00     -182.323      -80.238        2.442       86.978       59.264       38.993     7565.111     3512.247     1520.480        2.614        0.630      199.198       41.387        0.043      348.514       28.263      863.091
07/23/2013  13:26:00     -146.708      -86.324       -0.160       81.543       44.496       28.848     6649.224     1979.927      832.202        1.922        0.473      170.220       16.181        0.009      348.452       28.157      863.098
07/23/2013  13:27:00     -133.214      -84.253        0.519       43.428       42.400       31.683     1885.962     1797.799     1003.843        1.477        0.234      157.621       25.662        0.027      348.454       28.162      863.110
07/23/2013  13:28:00      -72.662      -90.024        2.874       56.688       53.882       34.258     3213.497     2903.219     1173.608        1.034        0.365      115.689       31.601        0.075      348.520       28.275      863.100
07/23/2013  13:29:00      -88.501      -78.080        2.749       45.135       43.423       26.234     2037.160     1885.531      688.217        0.927        0.231      118.021       19.878        0.028      348.513       28.264      863.108
07/23/2013  13:30:00      -58.542       -3.879        6.177       45.818       33.273       22.215     2099.265     1107.096      493.519        0.359        0.185       58.671       21.243        0.131      348.547       28.322      863.107
07/23/2013  13:31:00     -113.894      -39.518      -10.742       32.399       58.607       24.822     1049.726     3434.741      616.146        0.987        0.255      120.555       13.465        0.012      348.538       28.305      863.112
07/23/2013  13:32:00     -132.493      -39.382        7.597       62.473       70.749       37.496     3902.927     5005.417     1405.926        1.474        0.516      138.222       34.490        0.062      348.541       28.312      863.116
07/23/2013  13:33:00      -94.477      -69.355        1.473       69.972       68.167       34.336     4896.118     4646.674     1178.932        1.223        0.536      117.201       25.745        0.048      348.424       28.110      863.130
07/23/2013  13:34:00      -86.395      -42.405       -7.837       70.102       50.331       26.970     4914.324     2533.233      727.391        0.875        0.409       96.241       13.572        0.020      348.454       28.162      863.138
07/23/2013  13:35:00     -308.887      -33.868      -14.584       88.160       59.902       43.260     7772.254     3588.215     1871.451        5.500        0.662      310.738       40.575        0.017      348.246       27.801      863.157
07/23/2013  13:36:00     -227.767      -38.932      -13.545       95.331      106.740       50.542     9088.069    11393.415     2554.509        3.830        1.152      231.070       46.654        0.041      348.268       27.835      863.175
07/23/2013  13:37:00      -98.363      -67.332        5.356       70.121       80.828       43.662     4917.024     6533.150     1906.363        1.379        0.668      119.201       48.424        0.165      348.328       27.943      863.178
07/23/2013  13:38:00     -123.420      -82.205       -2.703       64.483       45.413       35.606     4158.045     2062.337     1267.778        1.474        0.374      148.291       32.789        0.049      348.330       27.946      863.180
07/23/2013  13:39:00     -160.173      -29.653       -0.744       57.465       56.181       36.165     3302.221     3156.355     1307.904        1.715        0.388      162.894       30.550        0.035      348.316       27.923      863.199
07/23/2013  13:40:00     -201.694      -55.617       -8.673       69.688       79.967       34.179     4856.481     6394.652     1168.187        2.813        0.621      209.222       27.928        0.018      348.266       27.833      863.193
07/23/2013  13:41:00      -86.858       30.625       11.605       62.391       64.501       41.364     3892.699     4160.381     1710.975        0.919        0.488       92.099       35.747        0.151      348.290       27.879      863.181
07/23/2013  13:42:00      -93.530      -47.699        0.881       64.255       56.832       25.253     4128.725     3229.885      637.706        0.951        0.400      104.991       20.556        0.038      348.336       27.959      863.185
07/23/2013  13:43:00     -166.730     -141.118        2.610      110.772       85.844       45.215    12270.426     7369.179     2044.429        3.470        1.084      218.433       48.605        0.050      348.319       27.925      863.187
07/23/2013  13:44:00     -178.617     -108.810        4.357       74.774       71.430       42.152     5591.189     5102.287     1776.810        2.811        0.624      209.150       35.375        0.029      348.299       27.889      863.182
07/23/2013  13:45:00     -129.464     -132.452       14.776       95.391       77.694       51.807     9099.465     6036.360     2683.996        2.617        0.891      185.215       55.613        0.090      348.279       27.856      863.175
07/23/2013  13:46:00     -179.261     -104.288       -1.034       74.318       66.674       39.360     5523.201     4445.466     1549.205        2.726        0.576      207.390       33.339        0.026      348.262       27.828      863.183
07/23/2013  13:47:00     -194.620      -61.422       -7.060       79.993       80.012       42.237     6398.946     6401.983     1783.937        2.814        0.729      204.082       33.879        0.028      348.270       27.842      863.198
07/23/2013  13:48:00     -157.864     -114.340       -8.468       69.375       91.763       40.304     4812.828     8420.398     1624.442        2.646        0.743      194.923       44.013        0.051      348.242       27.792      863.216
07/23/2013  13:49:00     -116.464      -99.191       -2.570       75.688       59.535       43.246     5728.715     3544.475     1870.190        1.727        0.557      152.979       29.868        0.038      348.283       27.863      863.216
07/23/2013  13:50:00     -193.963      -76.555       -6.703       99.667       89.326       48.952     9933.514     7979.085     2396.331        3.191        1.015      208.524       51.359        0.061      348.243       27.795      863.232
07/23/2013  13:51:00     -272.797     -185.083       -7.576      104.531       88.133       52.586    10926.671     7767.403     2765.253        6.509        1.073      329.657       55.152        0.028      348.180       27.687      863.258
07/23/2013  13:52:00     -127.809      -78.165       14.667      119.804       67.976       52.890    14352.944     4620.795     2797.329        2.221        1.089      149.816       67.390        0.202      348.245       27.798      863.273
07/23/2013  13:53:00     -141.974      -70.176        3.228      104.752       89.454       49.106    10973.026     8002.020     2411.408        2.323        1.069      158.371       63.092        0.159      348.239       27.787      863.286
07/23/2013  13:54:00     -124.327      -58.930        4.345       92.933       63.343       35.117     8636.508     4012.326     1233.207        1.641        0.694      137.586       43.593        0.100      348.216       27.748      863.293
07/23/2013  13:55:00     -109.607      -18.606        5.259       93.316       51.690       34.505     8707.955     2671.906     1190.616        1.248        0.629      111.176       41.001        0.136      348.235       27.781      863.295
07/23/2013  13:56:00     -119.766     -152.163       -0.475       68.767       73.404       42.167     4728.916     5388.173     1778.074        2.469        0.595      193.643       43.142        0.050      348.177       27.679      863.304
07/23/2013  13:57:00     -128.173      -88.981        2.060       76.675       55.045       38.540     5879.012     3029.938     1485.319        1.737        0.520      156.032       39.184        0.063      348.239       27.789      863.302
07/23/2013  13:58:00      -97.754      -83.833       -2.589       47.366       74.966       25.889     2243.577     5619.848      670.262        1.256        0.427      128.779       21.510        0.028      348.211       27.739      863.306
07/23/2013  13:59:00      -84.095      -69.737        6.121       75.181       47.560       39.761     5652.231     2261.973     1580.948        1.073        0.475      109.248       40.841        0.140      348.252       27.810      863.304
07/23/2013  14:00:00     -159.525      -85.393       -1.043       63.889       59.261       35.872     4081.845     3511.925     1286.807        2.081        0.444      180.943       31.868        0.031      348.234       27.780      863.311
07/23/2013  14:01:00     -238.179      -28.727       -1.820       79.016       93.552       45.082     6243.527     8751.917     2032.399        3.729        0.851      239.905       39.720        0.027      348.163       27.656      863.319
07/23/2013  14:02:00     -247.276      -62.060      -15.174       66.650       64.880       41.027     4442.279     4209.426     1683.182        3.778        0.517      254.945       38.864        0.023      348.144       27.621      863.320
07/23/2013  14:03:00     -182.916       -2.779      -11.559       54.849       58.048       27.968     3008.430     3369.614      782.195        2.038        0.358      182.937       30.266        0.027      348.157       27.645      863.328
07/23/2013  14:04:00      -94.138     -174.593       -4.874       88.456       76.794       39.237     7824.515     5897.332     1539.517        2.731        0.763      198.355       38.798        0.038      348.148       27.630      863.343
07/23/2013  14:05:00      -58.865     -106.012       10.119       45.667       67.252       29.874     2085.474     4522.816      892.484        1.115        0.375      121.259       22.873        0.036      348.192       27.709      863.324
07/23/2013  14:06:00     -107.007      -98.929        0.958       44.125       53.930       30.750     1947.002     2908.493      945.548        1.352        0.290      145.731       25.222        0.030      348.170       27.671      863.335
07/23/2013  14:07:00      -35.374      -49.830       17.961       54.307       69.869       34.508     2949.239     4881.655     1190.818        0.654        0.451       61.109       34.200        0.313      348.244       27.799      863.338
07/23/2013  14:08:00      -66.463      -95.793        6.720       78.520       60.740       49.306     6165.389     3689.396     2431.113        1.296        0.614      116.591       47.020        0.163      348.248       27.806      863.323
07/23/2013  14:09:00      -67.887     -115.421       12.690       73.293       74.329       43.935     5371.890     5524.734     1930.270        1.546        0.641      133.906       44.941        0.113      348.216       27.748      863.327
07/23/2013  14:10:00     -126.487     -108.880       -2.578       81.304       65.990       45.567     6610.378     4354.663     2076.323        2.045        0.652      166.895       44.284        0.070      348.175       27.677      863.319
07/23/2013  14:11:00      -72.784      -36.814        6.097       49.135       43.161       27.943     2414.218     1862.829      780.822        0.587        0.253       81.565       22.496        0.076      348.259       27.824      863.333
07/23/2013  14:12:00     -105.530      -85.492        1.859       73.560       49.420       31.474     5411.050     2442.369      990.620        1.364        0.442      135.814       36.897        0.074      348.248       27.805      863.339
07/23/2013  14:13:00      -44.886      -32.542       16.020       57.877       48.261       32.197     3349.757     2329.154     1036.652        0.502        0.336       55.442       34.257        0.382      348.320       27.930      863.347
07/23/2013  14:14:00     -147.525     -159.970      -13.191       78.221       65.028       45.265     6118.588     4228.672     2048.938        2.996        0.620      217.610       40.715        0.035      348.216       27.746      863.357
07/23/2013  14:15:00     -146.178      -48.302        3.044       62.086       98.160       33.071     3854.706     9635.302     1093.672        1.914        0.729      153.952       28.177        0.033      348.214       27.743      863.371
07/23/2013  14:16:00     -113.586      -34.567       -7.147       50.372       45.156       28.210     2537.315     2039.081      795.802        0.976        0.269      118.730       17.669        0.022      348.232       27.776      863.381
07/23/2013  14:17:00     -106.295      -31.202        2.358       74.263       53.119       28.812     5514.965     2821.599      830.116        1.072        0.458      110.780       35.016        0.100      348.319       27.929      863.385
07/23/2013  14:18:00      -27.478      -12.656       12.116       49.982       19.463       19.253     2498.173      378.791      370.697        0.215        0.162       30.253       19.975        0.436      348.416       28.095      863.386
07/23/2013  14:19:00      -37.592        2.578        3.020       33.377       34.116       18.300     1113.996     1163.889      334.887        0.202        0.131       37.680       19.064        0.256      348.344       27.972      863.396
07/23/2013  14:20:00      -16.756      -13.568        8.112       28.147       23.018       21.691      792.229      529.825      470.492        0.116        0.090       21.560       20.627        0.915      348.413       28.092      863.401
07/23/2013  14:21:00      -35.509      -16.928        9.248       28.872       15.673       15.287      833.584      245.643      233.678        0.147        0.066       39.338       13.788        0.123      348.322       27.932      863.411
07/23/2013  14:22:00      -47.759      -15.384        4.622       45.443       20.157       23.181     2065.042      406.315      537.347        0.277        0.150       50.176       29.794        0.353      348.284       27.869      863.416
07/23/2013  14:23:00       40.332      -51.946        1.533       27.242       28.759       28.482      742.116      827.098      811.212        0.335        0.119       65.765       14.774        0.050      347.921       27.238      863.416
07/23/2013  14:24:00       24.947      -10.395       10.419       22.801       32.917       27.122      519.903     1083.536      735.612        0.159        0.117       27.027       20.696        0.586      348.119       27.583      863.409
07/23/2013  14:25:00       43.707        0.260       16.733       34.961       28.898       30.532     1222.293      835.120      932.206        0.259        0.149       43.708       27.076        0.384      348.012       27.397      863.406
07/23/2013  14:26:00       12.915       -3.320       29.397       26.995       31.726       23.135      728.722     1006.560      535.208        0.166        0.114       13.335       19.629        2.167      348.152       27.641      863.409
07/23/2013  14:27:00       23.767      -17.096       19.411       31.096       25.736       21.204      966.954      662.327      449.613        0.166        0.104       29.277       15.683        0.287      348.131       27.604      863.413
07/23/2013  14:28:00       34.428      -16.822       14.285       28.615       22.379       25.786      818.797      500.837      664.939        0.183        0.099       38.317       13.766        0.129      348.009       27.391      863.415
07/23/2013  14:29:00       12.862      -16.494        4.968       26.331       18.052       16.254      693.311      325.880      264.189        0.087        0.064       20.916        7.847        0.141      348.122       27.589      863.415
07/23/2013  14:30:00       -3.020       -4.949        4.027       12.187       10.274       12.911      148.531      105.546      166.690        0.024        0.021        5.798        6.224        1.152      348.245       27.800      863.426
07/23/2013  14:31:00       10.331      -10.904        4.441       16.914       12.961       12.805      286.076      167.998      163.979        0.043        0.031       15.021       10.619        0.500      348.212       27.742      863.432
07/23/2013  14:32:00      -19.157      -10.353       -0.859        7.762       16.553        6.068       60.245      274.010       36.826        0.042        0.019       21.776        3.993        0.034      348.331       27.947      863.444
07/23/2013  14:33:00      -15.209        4.044        3.580        7.517        4.973        5.844       56.508       24.733       34.153        0.019        0.006       15.738        4.175        0.070      348.406       28.078      863.462
07/23/2013  14:34:00        2.702        5.191       -1.257       15.528       10.876       12.832      241.119      118.279      164.670        0.028        0.026        5.852        7.988        1.863      348.472       28.194      863.475
07/23/2013  14:35:00        3.216        6.321        4.372       13.078       11.601       15.115      171.030      134.574      228.453        0.030        0.027        7.092       13.061        3.391      348.382       28.037      863.491
07/23/2013  14:36:00       27.980        8.780        2.838       23.789       25.845       19.040      565.939      667.975      362.504        0.123        0.080       29.326       13.863        0.223      347.954       27.298      863.505
07/23/2013  14:37:00       15.573       -0.316        9.281       39.739       25.379       23.346     1579.175      644.096      545.045        0.155        0.138       15.576       19.048        1.496      347.972       27.328      863.504
07/23/2013  14:38:00      -11.218       25.081        0.632        9.903       15.643       10.346       98.072      244.716      107.049        0.060        0.022       27.475        7.952        0.084      348.463       28.176      863.501
07/23/2013  14:39:00      -20.854       43.973       -3.174       17.029       20.055       10.027      289.988      402.186      100.534        0.159        0.040       48.667        9.398        0.037      348.408       28.080      863.494
07/23/2013  14:40:00      -53.347       50.151       -8.442       16.198       25.470       13.332      262.386      648.737      177.733        0.326        0.054       73.219       11.407        0.024      348.423       28.104      863.491
07/23/2013  14:41:00      -61.809       50.685       -6.591       18.415       22.159       14.291      339.109      491.002      204.220        0.373        0.052       79.933       10.720        0.018      348.428       28.113      863.489
07/23/2013  14:42:00      -26.836       47.332        1.020       21.045       30.041       18.637      442.873      902.480      347.349        0.233        0.085       54.410       19.467        0.128      348.530       28.291      863.485
07/23/2013  14:43:00      -72.340       57.103      -11.284       27.347       29.793       21.017      747.834      887.634      441.708        0.535        0.104       92.162       21.117        0.053      348.415       28.092      863.477
07/23/2013  14:44:00      -84.199      108.864      -19.410       20.165       27.625       16.959      406.636      763.147      287.609        1.039        0.073      137.626       11.976        0.008      348.433       28.125      863.467
07/23/2013  14:45:00      -70.905       97.729       -8.369       20.989       36.446       22.635      440.552     1328.311      512.335        0.846        0.114      120.742       19.268        0.025      348.476       28.199      863.458
07/23/2013  14:46:00      -71.477       32.156       -2.087       28.944       29.381       18.796      837.778      863.238      353.301        0.410        0.103       78.377       15.835        0.041      348.485       28.218      863.445
07/23/2013  14:47:00     -123.755      -14.726      -11.215       31.014       46.505       24.105      961.868     2162.716      581.052        0.968        0.185      124.628       21.570        0.030      348.473       28.193      863.419
07/23/2013  14:48:00       -2.283       -5.218       10.268       29.200       19.989       16.951      852.667      399.573      287.339        0.084        0.077        5.696       12.346        4.698      348.722       28.625      863.376
07/23/2013  14:49:00      -73.288       25.992       -3.697       42.538       32.307       23.371     1809.441     1043.748      546.181        0.473        0.170       77.761       12.905        0.028      348.532       28.297      863.346
07/23/2013  14:50:00     -126.261       61.935      -24.982       25.931       54.465       24.110      672.443     2966.410      581.281        1.231        0.211      140.634       26.253        0.035      348.483       28.213      863.327
07/23/2013  14:51:00     -191.266       69.747      -23.991       65.996       70.269       35.594     4355.480     4937.784     1266.903        2.629        0.528      203.586       24.029        0.014      348.528       28.287      863.316
07/23/2013  14:52:00     -162.757       21.726      -13.486       55.203       96.514       38.132     3047.393     9314.967     1454.074        2.048        0.691      164.201       33.138        0.041      348.469       28.186      863.258
07/23/2013  14:53:00     -217.126       34.482       -7.675      138.648       69.645       41.368    19223.178     4850.432     1711.308        3.708        1.289      219.847       42.312        0.037      348.465       28.179      863.198
07/23/2013  14:54:00     -249.742      -96.228      -13.022      114.841       90.283       50.436    13188.438     8151.008     2543.811        4.784        1.194      267.640       46.221        0.030      348.442       28.138      863.157
07/23/2013  14:55:00     -331.369      -64.865       -5.662      100.125       66.183       50.567    10025.067     4380.155     2557.001        6.550        0.848      337.658       55.009        0.027      348.469       28.185      863.109
07/23/2013  14:56:00     -158.242       44.086       -0.581      101.705       67.495       46.927    10343.897     4555.535     2202.137        2.204        0.855      164.269       47.914        0.085      348.511       28.259      863.066
07/23/2013  14:57:00     -293.847      -89.964      -24.607       91.455      111.187       56.303     8364.019    12362.631     3169.983        5.947        1.195      307.311       51.032        0.028      348.466       28.179      863.005
07/23/2013  14:58:00     -344.599      -51.704      -36.640      142.604       82.416       55.893    20335.804     6792.433     3124.070        7.650        1.513      348.457       53.560        0.024      348.432       28.120      862.954
07/23/2013  14:59:00     -141.259       19.125      -23.918       70.864       78.285       40.469     5021.664     6128.595     1637.758        1.684        0.639      142.548       40.051        0.079      348.487       28.219      862.931
07/23/2013  15:00:00     -199.673      -41.778      -21.339       86.300       75.458       43.640     7447.642     5693.945     1904.447        2.855        0.752      203.996       29.110        0.020      348.465       28.179      862.927
07/23/2013  15:01:00     -233.804      -93.118       -7.776      156.944       88.402       50.135    24631.511     7814.958     2513.551        4.917        1.748      251.665       57.070        0.051      348.458       28.167      862.898
07/23/2013  15:02:00     -115.922      -30.014       -5.171      106.799       92.718       66.344    11405.969     8596.607     4401.528        1.938        1.220      119.744       64.660        0.292      348.550       28.327      862.866
07/23/2013  15:03:00     -224.864      -81.663       -4.931      122.268      104.909       51.421    14949.362    11005.824     2644.071        4.292        1.430      239.233       57.525        0.058      348.515       28.264      862.867
07/23/2013  15:04:00     -129.287      -39.288       12.004      105.983       90.166       52.251    11232.396     8129.868     2730.199        2.024        1.105      135.125       52.557        0.151      348.533       28.296      862.882
07/23/2013  15:05:00     -221.682      -30.106      -26.416       72.765       70.125       34.365     5294.797     4917.571     1180.943        3.107        0.570      223.717       29.184        0.017      348.413       28.086      862.904
07/23/2013  15:06:00     -154.268      111.718      -28.105       69.725       60.075       31.092     4861.541     3608.962      966.681        2.325        0.472      190.472       31.449        0.027      348.402       28.070      862.919
07/23/2013  15:07:00      -30.070       -3.985        1.143       60.700       55.804       30.276     3684.516     3114.041      916.661        0.432        0.386       30.333       32.016        1.114      348.480       28.207      862.915
07/23/2013  15:08:00     -116.597      -48.991       -5.425       96.858       45.500       34.622     9381.414     2070.295     1198.685        1.433        0.633      126.471       47.199        0.139      348.497       28.234      862.916
07/23/2013  15:09:00      -37.212       23.579       20.768       50.879       26.207       24.507     2588.707      686.819      600.608        0.312        0.194       44.053       25.347        0.331      348.552       28.331      862.939
07/23/2013  15:10:00      -29.336       34.037        0.278       35.270       28.477       20.518     1243.998      810.914      420.971        0.225        0.124       44.934       20.341        0.205      348.530       28.293      862.951
07/23/2013  15:11:00      -15.899      127.294       -5.490       31.462       68.406       31.484      989.877     4679.319      991.265        1.157        0.333      128.283       33.294        0.067      348.543       28.315      862.957
07/23/2013  15:12:00       22.060      177.804      -20.177       42.954       60.394       37.838     1845.063     3647.411     1431.714        1.971        0.346      179.167       30.906        0.030      348.535       28.299      862.956
07/23/2013  15:13:00       11.779      157.233       -5.566       44.074       75.589       44.738     1942.493     5713.717     2001.499        1.727        0.483      157.674       44.308        0.079      348.590       28.396      862.957
07/23/2013  15:14:00       -5.353      167.688      -23.733       55.180       35.161       33.639     3044.870     1236.304     1131.613        1.706        0.271      167.773       23.952        0.020      348.515       28.266      862.953
07/23/2013  15:15:00      -50.108      196.248      -23.070       38.133       51.825       27.539     1454.093     2685.788      758.422        2.323        0.245      202.544       26.553        0.017      348.446       28.145      862.952
07/23/2013  15:16:00       -2.371      123.322        7.090       45.863       62.402       39.663     2103.413     3893.976     1573.123        1.142        0.379      123.344       42.028        0.116      348.485       28.216      862.950
07/23/2013  15:17:00      125.148       70.018        7.866       71.738       43.438       40.002     5146.337     1886.822     1600.166        1.463        0.432      143.404       24.061        0.028      348.383       28.038      862.935
07/23/2013  15:18:00      178.343      101.309       32.051       81.180       59.585       50.710     6590.160     3550.364     2571.498        2.790        0.636      205.109       39.527        0.037      348.397       28.060      862.925
07/23/2013  15:19:00       64.483      115.832        4.742       76.243       74.701       46.242     5812.985     5580.231     2138.334        1.556        0.677      132.571       42.864        0.105      348.470       28.188      862.927
07/23/2013  15:20:00       61.187      120.738        0.278       60.557       86.181       52.407     3667.134     7427.205     2746.447        1.608        0.692      135.357       52.623        0.151      348.420       28.103      862.928
07/23/2013  15:21:00       87.480       65.752        4.143       68.619       42.478       38.409     4708.634     1804.420     1475.246        0.999        0.399      109.435       22.061        0.041      348.417       28.098      862.921
07/23/2013  15:22:00       92.379       77.324       11.180       59.088       47.016       43.641     3491.442     2210.476     1904.523        1.112        0.380      120.470       21.357        0.031      348.462       28.176      862.908
07/23/2013  15:23:00       67.572      102.883        6.900       63.036       82.767       48.880     3973.510     6850.396     2389.253        1.420        0.661      123.089       38.904        0.100      348.538       28.307      862.896
07/23/2013  15:24:00       76.622       55.526       21.488       65.056       39.863       39.742     4232.275     1589.021     1579.460        0.841        0.370       94.626       15.589        0.027      348.590       28.396      862.882
07/23/2013  15:25:00       28.953      152.602       -4.486       52.076       89.019       43.592     2711.918     7924.400     1900.224        1.834        0.627      155.324       46.252        0.089      348.588       28.392      862.889
07/23/2013  15:26:00      121.329       84.429        8.225       94.299       67.984       52.871     8892.335     4621.789     2795.312        1.911        0.815      147.814       27.895        0.036      348.553       28.329      862.890
07/23/2013  15:27:00        3.147       68.248       -7.599       41.306       75.155       30.389     1706.181     5648.308      923.464        0.650        0.414       68.321       25.116        0.135      348.650       28.500      862.903
07/23/2013  15:28:00       40.715      163.648      -16.785       39.080       57.329       39.135     1527.236     3286.653     1531.561        1.753        0.317      168.637       39.242        0.054      348.581       28.380      862.914
07/23/2013  15:29:00      -58.318      112.762      -12.045       94.552       71.371       47.827     8940.161     5093.846     2287.406        1.629        0.816      126.950       49.691        0.153      348.623       28.452      862.922
07/23/2013  15:30:00     -117.144      155.247      -31.678       78.705       81.865       43.579     6194.440     6701.798     1899.124        2.681        0.740      194.485       57.176        0.086      348.540       28.308      862.941
07/23/2013  15:31:00     -113.220      120.379      -29.965       53.010       80.949       29.626     2810.031     6552.678      877.710        1.922        0.512      165.257       32.447        0.039      348.497       28.234      862.948
07/23/2013  15:32:00     -165.465      108.471      -28.119       41.463       58.228       35.114     1719.142     3390.529     1232.987        2.314        0.317      197.849       33.296        0.028      348.473       28.190      862.935
07/23/2013  15:33:00       17.649      200.172      -25.155       43.579       57.223       28.825     1899.103     3274.517      830.904        2.351        0.300      200.948       28.398        0.020      348.548       28.322      862.933
07/23/2013  15:34:00       21.985      140.712       -9.949       45.566       77.106       41.335     2076.293     5945.259     1708.570        1.505        0.487      142.419       37.670        0.070      348.612       28.433      862.941
07/23/2013  15:35:00       -1.055      143.305      -17.662       30.599       75.369       31.259      936.311     5680.452      977.122        1.422        0.380      143.309       39.952        0.078      348.634       28.471      862.942
07/23/2013  15:36:00      -10.104       29.721       14.123       60.017       49.252       38.979     3602.018     2425.744     1519.375        0.436        0.377       31.392       33.597        1.145      348.779       28.724      862.935
07/23/2013  15:37:00       25.778       37.312        0.519       33.838       40.165       20.229     1145.040     1613.231      409.213        0.261        0.158       45.350       15.503        0.117      348.708       28.602      862.940
07/23/2013  15:38:00       20.188      109.352      -11.175       45.701       64.984       29.962     2088.605     4222.965      897.695        0.985        0.360      111.200       32.816        0.087      348.702       28.590      862.946
07/23/2013  15:39:00       52.235      158.865      -10.569       51.545       76.130       43.588     2656.937     5795.714     1899.904        1.921        0.518      167.232       43.981        0.069      348.566       28.355      862.941
07/23/2013  15:40:00       27.785      159.284      -17.180       47.109       70.704       36.577     2219.220     4999.062     1337.871        1.750        0.428      161.689       37.854        0.055      348.529       28.291      862.942
07/23/2013  15:41:00      -14.093       96.868      -16.146       38.782       44.780       30.244     1504.037     2005.276      914.689        0.713        0.221       97.888       29.489        0.091      348.541       28.313      862.945
07/23/2013  15:42:00       19.776       50.511       16.090       41.168       39.139       25.026     1694.831     1531.862      626.283        0.353        0.193       54.244       22.749        0.176      348.595       28.407      862.920
07/23/2013  15:43:00        5.949       78.330       -9.875       35.760       28.110       24.622     1278.756      790.158      606.261        0.447        0.134       78.556       14.706        0.035      348.474       28.195      862.917
07/23/2013  15:44:00       11.232       54.779        7.870       28.223       47.627       27.926      796.543     2268.345      779.844        0.352        0.192       55.919       29.964        0.287      348.641       28.484      862.920
07/23/2013  15:45:00       32.124       56.021        8.362       27.765       33.007       20.067      770.889     1089.472      402.675        0.325        0.113       64.578       12.501        0.037      348.627       28.461      862.912
07/23/2013  15:46:00       31.586       95.681       -5.852       41.933       62.797       29.914     1758.374     3943.496      894.820        0.839        0.330      100.760       34.720        0.119      348.617       28.446      862.915
07/23/2013  15:47:00      142.394       88.382       56.240       77.375       43.090       51.128     5986.940     1856.762     2614.116        2.085        0.523      167.593       21.117        0.016      348.445       28.144      862.906
07/23/2013  15:48:00       66.282       94.085        1.000       52.799       65.237       50.195     2787.730     4255.834     2519.497        1.140        0.478      115.088       36.927        0.103      348.546       28.320      862.911
07/23/2013  15:49:00       74.656      121.678       -1.054       73.336       66.997       50.141     5378.161     4488.536     2514.149        1.638        0.619      142.755       38.327        0.072      348.505       28.250      862.914
07/23/2013  15:50:00       90.715       85.730        9.411       43.683       54.184       41.095     1908.232     2935.957     1688.796        1.110        0.327      124.815       30.523        0.060      348.522       28.278      862.916
07/23/2013  15:51:00       74.488       53.646       22.607       72.439       37.678       35.205     5247.459     1419.615     1239.402        0.842        0.395       91.796       22.252        0.059      348.552       28.330      862.924
07/23/2013  15:52:00       45.638      121.533       -7.676       49.790       58.768       39.629     2479.091     3453.712     1570.479        1.221        0.375      129.820       38.295        0.087      348.511       28.261      862.934
07/23/2013  15:53:00       51.523       80.409       12.359       43.052       56.788       40.078     1853.479     3224.874     1606.242        0.798        0.334       95.500       31.151        0.106      348.560       28.345      862.930
07/23/2013  15:54:00       73.545       96.608       10.990       66.688       65.612       41.980     4447.300     4304.886     1762.327        1.269        0.526      121.416       31.456        0.067      348.535       28.302      862.931
07/23/2013  15:55:00       46.463      151.772       -4.178       82.677       87.688       50.389     6835.552     7689.166     2539.030        2.113        0.853      158.725       57.351        0.131      348.504       28.245      862.924
07/23/2013  15:56:00      131.865      115.663       13.101       83.013       65.540       54.492     6891.152     4295.498     2969.377        2.254        0.708      175.403       40.665        0.054      348.473       28.192      862.919
07/23/2013  15:57:00      110.492       86.257        8.530       70.950       44.337       31.716     5033.863     1965.731     1005.887        1.386        0.400      140.174       20.747        0.022      348.504       28.249      862.926
07/23/2013  15:58:00       45.924       71.086       -0.398       41.403       45.590       29.354     1714.211     2078.477      861.673        0.591        0.233       84.630       23.388        0.076      348.517       28.269      862.936
07/23/2013  15:59:00       59.663       75.131       -0.357       37.338       30.971       28.183     1394.148      959.180      794.260        0.618        0.157       95.939       20.910        0.048      348.507       28.255      862.930
07/23/2013  16:00:00       15.928       44.140        2.814       27.495       31.194       26.008      755.983      973.043      676.420        0.231        0.120       46.926       20.475        0.190      348.554       28.334      862.924
07/23/2013  16:01:00       47.178       60.512        6.733       38.050       41.106       28.895     1447.820     1689.673      834.943        0.495        0.199       76.730       24.867        0.105      348.516       28.268      862.919
07/23/2013  16:02:00       62.944       72.142       14.815       42.833       29.990       30.950     1834.667      899.422      957.927        0.654        0.185       95.741       18.593        0.038      348.506       28.253      862.929
07/23/2013  16:03:00      117.034       59.247       19.063       31.784       32.247       26.491     1010.211     1039.837      701.751        1.016        0.138      131.176       20.747        0.025      348.446       28.147      862.930
07/23/2013  16:04:00       70.057       48.852        0.842       46.091       33.963       25.937     2124.418     1153.502      672.743        0.562        0.198       85.408        7.408        0.008      348.514       28.264      862.936
07/23/2013  16:05:00       73.222       40.673        4.348       58.844       48.405       35.477     3462.576     2343.000     1258.606        0.705        0.353       83.760       14.205        0.029      348.506       28.250      862.936
07/23/2013  16:06:00       44.069       30.955        9.247       24.420       26.162       20.738      596.331      684.473      430.061        0.235        0.086       53.854       13.789        0.066      348.495       28.232      862.944
07/23/2013  16:07:00       35.570       74.064        1.193       37.407       39.878       28.850     1399.300     1590.294      832.347        0.529        0.191       82.163       26.754        0.106      348.496       28.234      862.939
07/23/2013  16:08:00       76.359       67.040        2.513       43.344       39.417       34.495     1878.740     1553.666     1189.917        0.748        0.231      101.612       27.675        0.074      348.487       28.219      862.926
07/23/2013  16:09:00       51.877       32.057        3.800       24.701       19.802       16.841      610.125      392.117      283.636        0.251        0.064       60.982        7.467        0.015      348.345       27.973      862.922
07/23/2013  16:10:00       -0.281       50.280      -10.539       26.738       33.712       14.781      714.919     1136.506      218.480        0.235        0.103       50.280       15.620        0.097      348.377       28.028      862.912
07/23/2013  16:11:00       68.097       51.251       14.014       52.012       23.923       25.209     2705.265      572.302      635.470        0.569        0.196       85.229       15.604        0.034      348.378       28.029      862.906
07/23/2013  16:12:00      113.054       57.347        4.228       29.072       28.055       23.476      845.199      787.076      551.117        0.914        0.109      126.768       13.355        0.011      348.377       28.029      862.903
07/23/2013  16:13:00       68.252       56.459       50.987       34.010       28.087       21.400     1156.703      788.903      457.954        0.642        0.120       88.577       18.669        0.044      348.388       28.047      862.898
07/23/2013  16:14:00       69.938       71.143       53.389       65.192       33.196       32.632     4250.054     1101.946     1064.832        0.961        0.321       99.763       31.298        0.098      348.389       28.050      862.894
07/23/2013  16:15:00       92.836       63.836       37.303       51.987       34.513       33.100     2702.657     1191.169     1095.592        0.954        0.249      112.666       32.229        0.082      348.370       28.016      862.894
07/23/2013  16:16:00       83.407       57.714        9.898       41.342       30.362       31.534     1709.171      921.876      994.404        0.700        0.181      101.427        9.184        0.008      348.503       28.246      862.898
07/23/2013  16:17:00      129.593       74.935       18.185       45.542       42.984       32.160     2074.051     1847.643     1034.289        1.385        0.248      149.698       22.211        0.022      348.414       28.094      862.898
07/23/2013  16:18:00       98.047       73.264       28.831       52.149       43.976       39.475     2719.493     1933.887     1558.253        1.101        0.311      122.397       16.208        0.018      348.439       28.136      862.899
07/23/2013  16:19:00       89.885       73.638       41.712       48.515       40.466       34.535     2353.688     1637.501     1192.698        1.021        0.259      116.198       28.304        0.059      348.500       28.241      862.908
07/23/2013  16:20:00      112.551       75.681       32.612       33.297       20.981       30.751     1108.699      440.220      945.639        1.098        0.125      135.630        6.425        0.002      348.442       28.142      862.904
07/23/2013  16:21:00       63.639       71.038        7.479       39.068       31.564       34.991     1526.279      996.260     1224.349        0.645        0.187       95.374       23.441        0.060      348.506       28.253      862.898
07/23/2013  16:22:00       81.549       96.521       -2.797       59.139       60.157       46.768     3497.426     3618.871     2187.243        1.264        0.465      126.359       41.650        0.109      348.499       28.238      862.891
07/23/2013  16:23:00      102.052      105.572        8.165       56.448       44.130       45.265     3186.373     1947.468     2048.945        1.440        0.359      146.833       23.013        0.025      348.434       28.125      862.885
07/23/2013  16:24:00       63.343       38.112        7.235       52.379       34.032       27.193     2743.536     1158.166      739.455        0.508        0.232       73.925       17.729        0.058      348.474       28.198      862.877
07/23/2013  16:25:00      106.111       56.714       16.611       41.877       32.159       22.655     1753.662     1034.179      513.237        0.903        0.165      120.316        6.757        0.003      348.497       28.235      862.871
07/23/2013  16:26:00      103.023       74.983       18.730       44.497       35.829       30.532     1979.952     1283.684      932.229        1.039        0.210      127.422       18.333        0.021      348.539       28.308      862.872
07/23/2013  16:27:00       71.550       47.019       -6.006       58.340       41.397       29.956     3403.553     1713.702      897.345        0.669        0.301       85.617       19.010        0.049      348.499       28.239      862.853
07/23/2013  16:28:00       31.579       57.702      -10.962       27.067       55.570       23.646      732.622     3088.019      559.119        0.441        0.219       65.778       26.295        0.160      348.532       28.295      862.854
07/23/2013  16:29:00        0.296       82.798       -3.813       18.948       41.510       21.399      359.041     1723.059      457.898        0.470        0.127       82.799       22.516        0.074      348.626       28.460      862.854
07/23/2013  16:30:00       20.693       64.016       -6.142       26.852       36.958       16.935      721.048     1365.915      286.802        0.347        0.119       67.277       16.459        0.060      348.618       28.444      862.862
07/23/2013  16:31:00       15.298       50.341        0.620       29.231       23.133       17.040      854.430      535.127      290.364        0.222        0.084       52.614       13.065        0.062      348.655       28.510      862.859
07/23/2013  16:32:00       69.825       55.181       12.115       56.244       46.605       26.817     3163.372     2172.055      719.160        0.706        0.303       88.997       18.383        0.043      348.611       28.433      862.856
07/23/2013  16:33:00       74.813       64.239       20.527       47.479       35.769       33.536     2254.263     1279.426     1124.646        0.740        0.233       98.609       20.815        0.045      348.577       28.374      862.851
07/23/2013  16:34:00       63.707      105.841       -1.767       54.058       67.802       44.595     2922.232     4597.095     1988.687        1.238        0.475      123.535       35.586        0.083      348.567       28.355      862.851
07/23/2013  16:35:00      154.462      108.412       21.409       62.512       51.265       37.789     3907.698     2628.135     1428.004        2.202        0.398      188.711       23.200        0.015      348.503       28.243      862.846
07/23/2013  16:36:00      149.727      103.979       20.689       47.747       50.744       39.721     2279.809     2574.918     1577.758        2.004        0.322      182.291       24.983        0.019      348.556       28.335      862.844
07/23/2013  16:37:00      117.450       84.170       32.813       51.051       36.490       33.094     2606.196     1331.484     1095.215        1.349        0.252      144.496       17.909        0.015      348.659       28.517      862.842
07/23/2013  16:38:00       77.121       37.490        9.333       53.928       35.980       33.440     2908.209     1294.547     1118.224        0.638        0.266       85.750       18.479        0.046      348.856       28.858      862.842
07/23/2013  16:39:00       64.240      102.620       -2.540       58.945       71.137       45.966     3474.460     5060.503     2112.880        1.265        0.532      121.069       40.077        0.110      348.838       28.827      862.823
07/23/2013  16:40:00      106.007      121.680       14.915       91.114       72.041       50.684     8301.764     5189.871     2568.894        2.116        0.803      161.380       44.894        0.077      348.934       28.991      862.811
07/23/2013  16:41:00       65.409       34.380       48.307      108.661       65.693       55.700    11807.160     4315.617     3102.459        1.351        0.961       73.894       49.641        0.451      348.890       28.917      862.784
07/23/2013  16:42:00      144.553       43.010       33.578      104.690       68.637       63.473    10959.991     4711.090     4028.817        2.178        0.985      150.816       56.597        0.141      348.828       28.807      862.782
07/23/2013  16:43:00      185.394       99.142       18.160      138.726       84.934       51.565    19244.963     7213.824     2658.976        3.682        1.456      210.238       25.139        0.014      348.809       28.773      862.766
07/23/2013  16:44:00       34.249      104.780       -8.558       48.183      105.880       42.355     2321.555    11210.609     1793.921        1.377        0.766      110.236       47.668        0.187      348.849       28.843      862.768
07/23/2013  16:45:00      111.121      115.729       15.601       72.821       55.509       46.581     5302.911     3081.211     2169.790        1.827        0.528      160.440       27.740        0.030      348.763       28.695      862.764
07/23/2013  16:46:00      155.073      105.734       51.827       69.310       50.300       50.552     4803.898     2530.079     2555.527        2.390        0.494      187.690       32.546        0.030      348.690       28.567      862.749
07/23/2013  16:47:00      114.423       81.629       26.452       62.616       51.702       46.884     3920.747     2673.129     2198.131        1.462        0.440      140.556       26.657        0.036      348.805       28.769      862.745
07/23/2013  16:48:00       11.366       44.034        5.373       47.493       57.598       32.070     2255.539     3317.573     1028.461        0.435        0.330       45.477       18.634        0.168      349.010       29.125      862.747
07/23/2013  16:49:00       60.046       54.430       10.279       77.182       44.635       31.789     5957.055     1992.302     1010.543        0.782        0.448       81.044       20.264        0.063      348.952       29.022      862.734
07/23/2013  16:50:00       72.516       90.310        2.239       65.140       53.994       47.707     4243.164     2915.314     2275.915        1.143        0.472      115.821       35.443        0.094      349.014       29.131      862.723
07/23/2013  16:51:00       92.368       99.575        7.255       76.012       70.977       52.711     5777.848     5037.749     2778.479        1.604        0.680      135.820       45.822        0.114      348.792       28.747      862.709
07/23/2013  16:52:00       98.277      112.473       -8.453      111.340       81.934       43.060    12396.577     6713.144     1854.169        2.167        1.048      149.361       37.919        0.064      348.846       28.837      862.709
07/23/2013  16:53:00       62.410      217.701      -29.199       75.430      128.073       55.556     5689.639    16402.812     3086.488        3.866        1.259      226.470       68.066        0.090      348.954       29.026      862.695
07/23/2013  16:54:00      130.353      108.862       31.278      115.118       76.104       66.157    13252.195     5791.796     4376.719        2.662        1.171      169.832       54.299        0.102      348.899       28.930      862.688
07/23/2013  16:55:00       87.047       96.572       13.160       97.938       67.393       64.310     9591.858     4541.785     4135.828        1.767        0.913      130.012       40.077        0.095      348.769       28.706      862.693
07/23/2013  16:56:00       66.960      146.624      -16.956       60.479      102.773       53.217     3657.749    10562.278     2832.006        2.166        0.853      161.190       61.036        0.143      348.760       28.689      862.687
07/23/2013  16:57:00       47.643      194.802      -12.507       73.553      105.864       60.794     5410.096    11207.221     3695.952        3.034        1.016      200.543       59.144        0.087      348.829       28.808      862.688
07/23/2013  16:58:00       58.045      176.607      -12.807       68.284      120.858       63.085     4662.698    14606.722     3979.678        2.898        1.162      185.902       61.919        0.111      348.587       28.391      862.697
07/23/2013  16:59:00       42.090      199.955       -8.756       85.593      132.953       74.467     7326.192    17676.530     5545.370        3.618        1.527      204.337       78.648        0.148      348.657       28.509      862.688
07/23/2013  17:00:00      121.686      179.164       25.632      132.188      126.776       95.436    17473.693    16072.219     9107.976        4.510        2.133      216.581       85.680        0.157      348.548       28.321      862.700
07/23/2013  17:01:00      136.486      228.922        6.281      117.185      140.813       89.422    13732.265    19828.387     7996.250        5.631        2.078      266.521       84.195        0.100      348.417       28.093      862.699
07/23/2013  17:02:00       58.205      202.387      -16.086       75.260      102.529       58.503     5664.062    10512.250     3422.579        3.210        0.980      210.590       51.382        0.060      348.455       28.161      862.709
07/23/2013  17:03:00       79.415      113.187        6.172       85.309       75.295       58.710     7277.681     5669.263     3446.906        1.777        0.820      138.269       51.978        0.141      348.530       28.292      862.718
07/23/2013  17:04:00       81.307       66.995       16.933       80.588       54.191       43.171     6494.436     2936.660     1863.758        1.134        0.565      105.353       27.243        0.067      348.587       28.391      862.710
07/23/2013  17:05:00      193.922      154.352       19.285      104.685       71.291       54.698    10958.858     5082.411     2991.851        4.041        0.952      247.852       42.269        0.029      348.402       28.069      862.699
07/23/2013  17:06:00      204.826      120.021       26.652       68.751       68.065       47.896     4726.644     4632.814     2293.985        3.436        0.583      237.400       19.320        0.007      348.363       28.000      862.694
07/23/2013  17:07:00      138.297       75.222       14.873       77.088       58.011       51.163     5942.612     3365.316     2617.702        1.846        0.596      157.430        9.526        0.004      348.399       28.065      862.667
07/23/2013  17:08:00      131.471      112.055       30.254       60.439       55.170       47.481     3652.874     3043.782     2254.433        1.985        0.448      172.745       38.908        0.051      348.444       28.142      862.651
07/23/2013  17:09:00       79.482       83.765       68.655       87.595       52.608       57.194     7672.823     2767.560     3271.166        1.588        0.686      115.472       56.755        0.242      348.486       28.218      862.655
07/23/2013  17:10:00      156.045      118.829       12.442       56.414       53.963       44.839     3182.561     2912.004     2010.536        2.336        0.405      196.138       29.199        0.022      348.491       28.222      862.660
07/23/2013  17:11:00      174.523      101.087       10.367       79.020       54.815       48.784     6244.161     3004.690     2379.833        2.620        0.581      201.685       22.921        0.013      348.309       27.909      862.640
07/23/2013  17:12:00       94.908       82.097       12.880       72.203       75.867       47.736     5213.212     5755.863     2278.766        1.458        0.662      125.489       27.678        0.049      348.391       28.051      862.622
07/23/2013  17:13:00      206.412      125.439       28.851      116.067       79.273       50.713    13471.599     6284.238     2571.855        4.075        1.116      241.539       23.237        0.009      348.450       28.151      862.612
07/23/2013  17:14:00       77.782       84.075        8.905       97.294       74.706       53.797     9466.082     5581.041     2894.144        1.557        0.897      114.537       43.811        0.146      348.570       28.361      862.624
07/23/2013  17:15:00       28.829      133.386        2.420       46.147       78.117       52.182     2129.518     6102.293     2722.911        1.479        0.548      136.466       50.897        0.139      348.656       28.511      862.629
07/23/2013  17:16:00      -12.098      281.281      -34.048       90.565      140.240       55.422     8202.066    19667.367     3071.624        5.568        1.547      281.541       46.365        0.027      348.533       28.295      862.627
07/23/2013  17:17:00       30.507      337.923      -30.721       87.215      105.282       65.739     7606.458    11084.208     4321.611        6.953        1.151      339.297       65.155        0.037      348.427       28.111      862.621
07/23/2013  17:18:00       59.759      204.468      -14.727       90.795      138.499       78.869     8243.798    19182.088     6220.332        3.961        1.682      213.022       74.333        0.122      348.436       28.127      862.601
07/23/2013  17:19:00      -72.151      246.655      -34.654      108.699      100.166       49.307    11815.480    10033.262     2431.200        4.576        1.214      256.991       55.450        0.047      348.375       28.022      862.609
07/23/2013  17:20:00       39.732      197.052       -5.563      115.222      125.197       75.180    13276.090    15674.218     5652.003        3.751        1.730      201.018       75.068        0.139      348.433       28.122      862.585
07/23/2013  17:21:00       74.496      181.605       -5.181      101.225      119.242       73.501    10246.458    14218.662     5402.427        3.421        1.493      196.291       66.204        0.114      348.456       28.163      862.563
07/23/2013  17:22:00       -8.620      332.522      -30.881       74.421      165.988       68.909     5538.494    27551.971     4748.425        7.471        1.892      332.634       81.570        0.060      348.435       28.126      862.576
07/23/2013  17:23:00       22.064      246.865      -11.237       83.554      134.130       60.285     6981.245    17990.742     3634.306        4.508        1.430      247.849       72.414        0.085      348.413       28.087      862.566
07/23/2013  17:24:00      103.222      153.020       18.022      109.179      114.396       75.291    11920.044    13086.523     5668.797        3.253        1.534      184.581       68.288        0.137      348.454       28.159      862.566
07/23/2013  17:25:00       94.165      177.991       -5.346       94.989      138.686       70.399     9022.963    19233.824     4955.966        3.689        1.661      201.365       72.702        0.130      348.385       28.040      862.567
07/23/2013  17:26:00      -68.026      432.897      -63.018       83.712      148.772       52.366     7007.727    22133.009     2742.245       11.393        1.594      438.209       57.172        0.017      348.327       27.937      862.582
07/23/2013  17:27:00      -91.567      340.206      -36.192       84.029      106.127       55.028     7060.800    11262.925     3028.112        7.339        1.068      352.314       62.097        0.031      348.405       28.073      862.585
07/23/2013  17:28:00       21.604      328.835      -34.689       90.079      170.841       63.039     8114.223    29186.501     3973.894        7.553        2.064      329.544       72.036        0.048      348.411       28.083      862.586
07/23/2013  17:29:00       82.146      166.203        2.671       70.882      121.567       69.440     5024.232    14778.626     4821.953        2.950        1.231      185.395       70.474        0.144      348.461       28.172      862.573
07/23/2013  17:30:00       31.308      187.992      -10.629       60.944      112.903       52.242     3714.227    12747.039     2729.192        2.781        0.960      190.581       56.273        0.087      348.447       28.149      862.565
07/23/2013  17:31:00      -23.412      147.098       -6.393       60.745       80.167       40.795     3689.963     6426.691     1664.210        1.700        0.589      148.950       45.244        0.092      348.466       28.182      862.564
07/23/2013  17:32:00       74.264      171.125      -13.530       76.238       70.508       56.218     5812.221     4971.308     3160.483        2.446        0.697      186.544       53.445        0.082      348.437       28.129      862.552
07/23/2013  17:33:00       28.761      121.396        1.373       63.037       86.509       51.941     3973.713     7483.802     2697.887        1.486        0.708      124.756       48.832        0.153      348.516       28.267      862.550
07/23/2013  17:34:00      -79.193      115.225      -25.907       57.874       53.306       27.142     3349.345     2841.494      736.693        1.357        0.346      139.815       31.255        0.050      348.462       28.174      862.546
07/23/2013  17:35:00      -40.649      198.843      -14.442       92.334      110.637       45.622     8525.624    12240.558     2081.370        3.212        1.142      202.956       48.002        0.056      348.463       28.174      862.532
07/23/2013  17:36:00       -2.129      227.317      -24.165       58.601       58.244       39.122     3434.029     3392.363     1530.528        3.031        0.418      227.327       31.866        0.020      348.491       28.222      862.533
07/23/2013  17:37:00       37.109      201.041       -4.766       67.395      116.317       57.057     4542.141    13529.610     3255.499        3.157        1.066      204.437       65.102        0.101      348.505       28.247      862.529
07/23/2013  17:38:00       77.660      110.455       -6.126       60.937       61.194       48.344     3713.258     3744.670     2337.102        1.403        0.490      135.024       42.810        0.101      348.495       28.231      862.532
07/23/2013  17:39:00       63.740      123.561       -1.469       59.534       83.033       46.537     3544.326     6894.471     2165.653        1.597        0.630      139.033       38.722        0.078      348.429       28.118      862.516
07/23/2013  17:40:00       91.474      112.360        4.466       81.244       80.956       34.696     6600.637     6553.793     1203.837        1.768        0.718      144.887       32.893        0.052      348.463       28.177      862.506
07/23/2013  17:41:00       60.220      161.614       -4.523       68.958       99.240       57.365     4755.207     9848.580     3290.695        2.383        0.895      172.470       56.217        0.106      348.399       28.064      862.500
07/23/2013  17:42:00       23.655      132.507      -10.367       47.964       98.369       44.540     2300.577     9676.548     1983.800        1.609        0.698      134.602       55.943        0.173      348.447       28.150      862.504
07/23/2013  17:43:00      -37.332      121.189      -26.069       56.929       52.718       29.072     3240.919     2779.150      845.182        1.181        0.343      126.809       23.747        0.035      348.426       28.113      862.509
07/23/2013  17:44:00      -23.858      116.007        0.950       72.430       67.615       41.123     5246.122     4571.732     1691.129        1.277        0.575      118.435       40.224        0.115      348.483       28.211      862.507
07/23/2013  17:45:00       10.871      221.145      -26.188       53.557       63.062       36.338     2868.405     3976.851     1320.444        2.894        0.408      221.412       36.459        0.027      348.405       28.075      862.499
07/23/2013  17:46:00       -2.256      142.592      -10.847       47.566       89.010       43.926     2262.536     7922.781     1929.492        1.628        0.606      142.610       52.695        0.137      348.487       28.218      862.484
07/23/2013  17:47:00      -77.612       92.728      -25.882       47.542       43.595       28.242     2260.284     1900.518      797.632        1.012        0.248      120.922       21.497        0.032      348.483       28.212      862.488
07/23/2013  17:48:00     -165.989      115.673      -33.046       42.193       47.250       25.506     1780.234     2232.607      650.570        2.334        0.233      202.318       19.614        0.009      348.297       27.888      862.486
07/23/2013  17:49:00      -74.965       80.230      -12.207       53.762       37.359       29.564     2890.387     1395.718      874.044        0.868        0.258      109.803       21.116        0.037      348.419       28.101      862.467
07/23/2013  17:50:00     -131.072       42.278      -16.996       57.852       49.343       22.217     3346.803     2434.695      493.575        1.276        0.314      137.722       18.985        0.019      348.364       28.004      862.461
07/23/2013  17:51:00     -172.026      174.774      -56.182       71.167       95.919       38.367     5064.700     9200.416     1472.052        3.951        0.787      245.233       42.432        0.030      348.387       28.041      862.451
07/23/2013  17:52:00      -61.934      250.305      -26.685       73.304       96.298       50.775     5373.542     9273.334     2578.086        4.221        0.861      257.853       39.334        0.023      348.410       28.081      862.442
07/23/2013  17:53:00      -73.218      240.468      -27.606       57.221      108.328       51.230     3274.212    11734.869     2624.469        4.079        0.882      251.367       59.322        0.056      348.422       28.102      862.428
07/23/2013  17:54:00     -118.543      279.915      -38.929      102.398      115.843       55.548    10485.448    13419.578     3085.611        6.045        1.350      303.982       56.838        0.035      348.350       27.978      862.421
07/23/2013  17:55:00     -114.974      223.242      -29.141       64.246       79.161       43.204     4127.559     6266.462     1866.565        3.808        0.613      251.109       42.660        0.029      348.355       27.986      862.405
07/23/2013  17:56:00       14.844      275.686      -27.836       60.065       80.510       45.090     3607.787     6481.883     2033.072        4.456        0.606      276.085       40.931        0.022      348.361       27.996      862.384
07/23/2013  17:57:00        8.178      210.947        1.707       85.910       97.368       63.116     7380.584     9480.620     3983.616        3.270        1.042      211.105       66.584        0.099      348.400       28.066      862.385
07/23/2013  17:58:00      -68.609      182.483      -17.873       59.083       94.447       33.827     3490.782     8920.299     1144.281        2.594        0.678      194.955       34.204        0.031      348.390       28.050      862.390
07/23/2013  17:59:00     -125.566      216.952      -22.296       66.369       80.170       55.153     4404.824     6427.302     3041.885        3.860        0.694      250.669       50.956        0.041      348.379       28.027      862.385
07/23/2013  18:00:00      -78.966      197.047      -18.485       63.436       85.252       40.496     4024.065     7267.935     1639.956        2.917        0.647      212.281       42.229        0.040      348.330       27.944      862.391
07/23/2013  18:01:00     -166.441      185.658      -37.935       65.869      104.276       43.808     4338.782    10873.494     1919.099        4.037        0.857      249.342       41.873        0.028      348.323       27.931      862.402
07/23/2013  18:02:00      -84.530      110.365       -5.303       57.701       56.000       35.390     3329.354     3135.946     1252.436        1.353        0.386      139.017       29.729        0.046      348.393       28.057      862.411
07/23/2013  18:03:00     -140.449       65.127      -16.461       58.521       81.424       42.414     3424.680     6629.946     1798.966        1.804        0.593      154.815       30.332        0.038      348.364       28.004      862.418
07/23/2013  18:04:00     -145.717      197.514      -30.135       72.662       71.777       39.055     5279.780     5151.937     1525.275        3.655        0.598      245.449       34.579        0.020      348.352       27.982      862.424
07/23/2013  18:05:00     -170.533      157.550      -35.680       80.649       78.612       44.335     6504.242     6179.828     1965.571        3.491        0.732      232.172       29.166        0.016      348.300       27.890      862.434
07/23/2013  18:06:00     -185.797      157.147      -32.663       85.367       74.402       51.151     7287.476     5535.732     2616.430        3.786        0.772      243.342       44.795        0.034      348.288       27.869      862.426
07/23/2013  18:07:00     -129.508      165.619      -29.064       54.461       55.699       36.159     2965.970     3102.347     1307.463        2.621        0.369      210.243       31.325        0.022      348.321       27.929      862.429
07/23/2013  18:08:00     -164.326      127.036      -26.756       67.381       66.137       44.309     4540.163     4374.078     1963.290        2.737        0.544      207.705       41.808        0.041      348.315       27.919      862.418
07/23/2013  18:09:00     -116.383       60.911       -7.860       72.643       51.180       32.283     5277.014     2619.342     1042.164        1.313        0.447      131.359       34.058        0.067      348.335       27.955      862.397
07/23/2013  18:10:00      -82.866      114.668       -6.014       73.633       78.345       43.625     5421.795     6137.971     1903.161        1.675        0.673      141.476       39.961        0.080      348.335       27.954      862.406
07/23/2013  18:11:00     -141.705      135.538      -24.892       68.415       92.947       35.508     4680.601     8639.207     1260.797        2.682        0.729      196.089       39.852        0.041      348.306       27.902      862.402
07/23/2013  18:12:00     -102.769      132.283      -14.924       68.998       83.320       40.880     4760.658     6942.212     1671.214        2.083        0.669      167.512       36.489        0.047      348.323       27.934      862.419
07/23/2013  18:13:00     -184.983      193.923      -43.319       75.894       75.786       49.537     5759.893     5743.468     2453.883        4.383        0.698      268.001       43.033        0.026      348.296       27.884      862.422
07/23/2013  18:14:00      -72.347       99.345      -10.845       54.182       43.456       32.328     2935.721     1888.387     1045.125        1.054        0.293      122.896       24.815        0.041      348.303       27.900      862.438
07/23/2013  18:15:00      -33.130       44.173        9.745       45.743       36.894       28.638     2092.460     1361.198      820.155        0.371        0.214       55.217       25.816        0.219      348.364       28.004      862.436
07/23/2013  18:16:00      -25.262      131.904       -7.235       41.819       65.850       34.700     1748.854     4336.204     1204.085        1.269        0.364      134.301       26.717        0.040      348.321       27.930      862.434
07/23/2013  18:17:00      -28.881      159.219      -17.486       47.092       66.849       30.352     2217.685     4468.788      921.244        1.705        0.380      161.817       29.857        0.034      348.294       27.883      862.435
07/23/2013  18:18:00      -34.551       46.356       -1.761       48.397       47.768       20.053     2342.266     2281.734      402.138        0.418        0.251       57.815       19.555        0.114      348.327       27.941      862.425
07/23/2013  18:19:00     -105.518      -17.443      -13.924       44.495       51.818       26.739     1979.827     2685.109      714.963        0.850        0.269      106.950       24.055        0.051      348.397       28.064      862.414
07/23/2013  18:20:00      -48.643       17.589       -4.439       22.699       22.481       18.379      515.226      505.403      337.804        0.203        0.068       51.726       11.115        0.046      348.377       28.029      862.410
07/23/2013  18:21:00     -181.220      -80.278      -13.163      103.885       84.171       30.407    10791.990     7084.687      924.561        2.913        0.940      198.205       25.593        0.017      348.354       27.985      862.403
07/23/2013  18:22:00     -115.832      -27.712      -14.937       82.437       64.778       50.007     6795.808     4196.181     2500.686        1.395        0.675      119.101       35.820        0.090      348.356       27.993      862.393
07/23/2013  18:23:00      -84.824       92.906      -13.163       49.480       74.474       40.324     2448.256     5546.350     1625.991        1.281        0.481      125.804       45.756        0.132      348.354       27.987      862.414
07/23/2013  18:24:00      -64.755       64.949      -13.481       50.472       76.792       37.345     2547.426     5896.958     1394.672        0.921        0.492       91.715       29.867        0.106      348.349       27.981      862.420
07/23/2013  18:25:00      -65.365       37.241       -4.076       46.741       80.737       40.703     2184.755     6518.419     1656.760        0.802        0.518       75.229       30.267        0.162      348.387       28.046      862.426
07/23/2013  18:26:00      -71.370       -8.283        5.518       61.358       43.637       32.379     3764.758     1904.196     1048.385        0.595        0.336       71.849       28.336        0.156      348.413       28.091      862.426
07/23/2013  18:27:00     -108.605       24.809       -2.850       69.275       76.665       49.424     4798.964     5877.482     2442.780        1.277        0.656      111.402       39.035        0.123      348.324       27.935      862.444
07/23/2013  18:28:00      -59.604      113.069      -11.852       47.449       52.227       25.668     2251.434     2727.684      658.834        1.106        0.282      127.817       21.702        0.029      348.365       28.011      862.455
07/23/2013  18:29:00     -171.480      120.396      -25.498       72.858       88.030       46.288     5308.351     7749.256     2142.537        2.987        0.760      209.525       40.835        0.038      348.261       27.828      862.466
07/23/2013  18:30:00     -130.539      191.792      -31.840       75.531       79.477       41.756     5704.966     6316.605     1743.537        3.430        0.688      232.001       41.989        0.033      348.279       27.855      862.481
07/23/2013  18:31:00      -34.692      164.578      -18.184       84.170       69.557       41.172     7084.641     4838.111     1695.100        2.112        0.681      168.194       30.117        0.032      348.294       27.883      862.496
07/23/2013  18:32:00       -8.950      216.308      -20.578       60.924       95.781       44.458     3711.687     9173.948     1976.541        3.107        0.743      216.493       36.658        0.029      348.345       27.969      862.494
07/23/2013  18:33:00      -65.241      258.732      -28.839       59.332       59.531       35.498     3520.274     3543.928     1260.096        4.018        0.416      266.831       32.268        0.015      348.339       27.957      862.502
07/23/2013  18:34:00      -72.008      180.725      -17.011       53.100       48.131       32.456     2819.660     2316.545     1053.395        2.216        0.309      194.542       25.840        0.018      348.319       27.926      862.504
07/23/2013  18:35:00      -95.696      142.065      -12.244       48.702       64.230       35.031     2371.841     4125.465     1227.161        1.861        0.386      171.290       33.131        0.037      348.294       27.884      862.514
07/23/2013  18:36:00      -60.758      130.350      -11.935       50.401       51.457       32.716     2540.224     2647.791     1070.333        1.354        0.313      143.815       22.794        0.025      348.300       27.895      862.516
07/23/2013  18:37:00      -91.375       56.896      -19.084       26.103       34.044       22.455      681.350     1159.002      504.205        0.715        0.117      107.640       14.486        0.018      348.260       27.826      862.505
07/23/2013  18:38:00     -120.782       91.045      -18.143       45.046       94.588       37.394     2029.111     8946.914     1398.310        1.779        0.619      151.253       42.828        0.080      348.276       27.851      862.504
07/23/2013  18:39:00      -67.899      177.224      -10.170       41.229       62.409       38.200     1699.797     3894.845     1459.243        2.159        0.353      189.786       28.519        0.023      348.315       27.918      862.504
07/23/2013  18:40:00     -117.944      116.605      -18.727       67.789       63.473       33.062     4595.293     4028.807     1093.086        1.879        0.486      165.854       29.434        0.031      348.310       27.910      862.512
07/23/2013  18:41:00     -119.255      197.230      -24.330       53.974       66.965       40.094     2913.141     4484.347     1607.508        3.136        0.450      230.480       30.754        0.018      348.314       27.917      862.498
07/23/2013  18:42:00     -162.151      183.750      -48.223       41.876       48.358       27.160     1753.571     2338.454      737.685        3.361        0.241      245.065       21.574        0.008      348.336       27.954      862.491
07/23/2013  18:43:00     -108.237      161.674      -30.055       47.403       60.490       33.741     2247.055     3659.077     1138.484        2.290        0.352      194.561       36.024        0.034      348.347       27.976      862.484
07/23/2013  18:44:00      -56.904       74.381       -2.338       57.501       48.701       26.335     3306.326     2371.796      693.553        0.757        0.319       93.651       25.329        0.073      348.348       27.980      862.481
07/23/2013  18:45:00      -39.426       43.191        9.382       39.032       51.602       24.302     1523.491     2662.747      590.566        0.414        0.239       58.480       27.783        0.226      348.382       28.039      862.471
07/23/2013  18:46:00      -13.766       75.887        4.778       41.910       39.782       31.062     1756.410     1582.574      964.840        0.514        0.215       77.125       24.626        0.102      348.310       27.914      862.459
07/23/2013  18:47:00      -46.822       55.911        4.388       49.395       61.190       32.201     2439.857     3744.200     1036.918        0.628        0.361       72.927       32.552        0.199      348.353       27.988      862.459
07/23/2013  18:48:00      -44.701       18.808        2.934       30.028       57.310       26.188      901.677     3284.404      685.794        0.362        0.244       48.497       24.303        0.251      348.383       28.039      862.467
07/23/2013  18:49:00     -103.137       51.022       -7.457       51.313       53.606       34.017     2633.011     2873.634     1157.181        0.998        0.333      115.067       23.666        0.042      348.358       27.998      862.481
07/23/2013  18:50:00      -95.071       34.599      -10.065       45.197       36.902       31.292     2042.758     1361.740      979.187        0.736        0.219      101.171       26.490        0.069      348.380       28.035      862.486
07/23/2013  18:51:00      -71.313      -18.091       -1.058       59.151       28.625       24.107     3498.892      819.371      581.162        0.516        0.245       73.572       33.307        0.205      348.426       28.114      862.487
07/23/2013  18:52:00     -191.033      -32.384      -20.259       57.678       48.099       28.183     3326.757     2313.536      794.308        2.219        0.322      193.759       23.192        0.014      348.341       27.967      862.490
07/23/2013  18:53:00     -172.607        4.490      -15.906       64.762       54.459       31.485     4194.176     2965.738      991.310        1.911        0.408      172.665       32.241        0.035      348.332       27.949      862.497
07/23/2013  18:54:00     -131.578      -47.331      -20.461       30.715       35.806       24.922      943.401     1282.035      621.122        1.141        0.142      139.832       11.819        0.007      348.355       27.992      862.505
07/23/2013  18:55:00      -68.928      -13.738       -9.221       39.989       23.783       26.189     1599.102      565.617      685.853        0.394        0.143       70.284       17.314        0.061      348.382       28.038      862.513
07/23/2013  18:56:00     -105.106        1.133       -6.825       38.177       32.618       22.128     1457.515     1063.917      489.652        0.705        0.151      105.112       20.976        0.040      348.345       27.973      862.525
07/23/2013  18:57:00      -66.842      -10.814      -10.866       41.480       23.275       18.905     1720.572      541.740      357.407        0.366        0.131       67.711       12.069        0.032      348.349       27.983      862.523
07/23/2013  18:58:00      -94.701      -36.367       -7.168       25.267       28.856       18.814      638.401      832.676      353.968        0.608        0.091      101.444       11.871        0.014      348.362       28.005      862.524
07/23/2013  18:59:00      -77.015      -13.813       -8.262       53.446       30.378       18.840     2856.487      922.808      354.940        0.516        0.207       78.244       18.690        0.057      348.359       28.000      862.520
07/23/2013  19:00:00      -43.531        9.653       14.739       37.866       25.858       24.619     1433.838      668.636      606.106        0.246        0.135       44.588       25.543        0.328      348.345       27.973      862.511
07/23/2013  19:01:00      -91.888      -28.167       -0.281       64.538       41.446       24.946     4165.195     1717.764      622.280        0.787        0.325       96.108       32.264        0.113      348.331       27.950      862.511
07/23/2013  19:02:00     -130.998      -16.708       -9.765       59.105       41.387       24.454     3493.381     1712.862      598.006        1.167        0.290      132.059       30.575        0.054      348.340       27.965      862.511
07/23/2013  19:03:00      -87.910      -10.146        5.272       59.474       36.776       30.758     3537.109     1352.469      946.044        0.685        0.292       88.494       28.692        0.105      348.372       28.022      862.507
07/23/2013  19:04:00     -129.711      -31.859      -15.168       38.780       55.277       24.420     1503.912     3055.501      596.346        1.161        0.258      133.566       15.195        0.013      348.371       28.019      862.511
07/23/2013  19:05:00     -113.853        9.607       -9.587       46.136       50.290       26.762     2128.553     2529.043      716.225        0.926        0.269      114.258       21.213        0.034      348.357       27.997      862.521
07/23/2013  19:06:00      -98.198       -8.210       -2.326       56.645       52.558       29.536     3208.705     2762.319      872.352        0.828        0.342       98.540       21.639        0.048      348.348       27.981      862.518
07/23/2013  19:07:00      -24.304        9.038       10.828       37.228       32.668       20.566     1385.929     1067.218      422.978        0.183        0.144       25.930       18.485        0.508      348.337       27.959      862.521
07/23/2013  19:08:00      -72.793        1.004       -1.937       34.447       31.647       15.941     1186.576     1001.514      254.126        0.387        0.122       72.800       15.903        0.048      348.339       27.963      862.531
07/23/2013  19:09:00      -30.347        8.234        5.794       28.617       19.651       14.644      818.913      386.172      214.443        0.122        0.071       31.444       16.330        0.270      348.364       28.008      862.530
07/23/2013  19:10:00      -74.875       13.879       -5.730       29.475       27.615       15.528      868.749      762.602      241.133        0.385        0.094       76.150       15.098        0.039      348.374       28.025      862.539
07/23/2013  19:11:00      -77.568       15.334      -17.275       35.499       35.559       20.861     1260.163     1264.467      435.170        0.475        0.148       79.070       19.061        0.058      348.373       28.022      862.548
07/23/2013  19:12:00      -52.777       -7.274       -4.764       39.991       25.211       25.483     1599.292      635.603      649.396        0.287        0.144       53.276       26.037        0.239      348.362       28.002      862.536
07/23/2013  19:13:00      -76.190        4.277       -3.398       28.419       29.101       24.000      807.618      846.863      575.985        0.403        0.112       76.310       17.547        0.053      348.325       27.940      862.528
07/23/2013  19:14:00     -106.005       19.448       -4.936       31.107       37.981       29.821      967.614     1442.593      889.269        0.747        0.165      107.775       24.331        0.051      348.319       27.928      862.527
07/23/2013  19:15:00     -112.918       44.753      -16.250       42.015       38.726       21.890     1765.255     1499.730      479.164        0.938        0.187      121.463       18.722        0.024      348.348       27.980      862.526
07/23/2013  19:16:00      -93.579      -28.565       -3.599       27.177       35.253       23.821      738.597     1242.782      567.426        0.607        0.127       97.842        8.393        0.007      348.324       27.937      862.539
07/23/2013  19:17:00      -80.608      -19.615       -6.923       60.549       31.460       21.224     3666.123      989.749      450.438        0.602        0.255       82.960       21.190        0.065      348.364       28.007      862.555
07/23/2013  19:18:00     -103.111       39.486       -7.752       40.391       33.130       20.432     1631.412     1097.609      417.481        0.770        0.157      110.413       13.657        0.015      348.332       27.951      862.569
07/23/2013  19:19:00     -120.392       40.564      -19.983       29.449       29.997       21.755      867.253      899.843      473.288        0.939        0.112      127.042       17.316        0.019      348.332       27.952      862.582
07/23/2013  19:20:00      -82.361       32.427      -12.272       32.352       23.397       22.354     1046.620      547.401      499.709        0.504        0.105       88.515       22.657        0.066      348.299       27.893      862.596
07/23/2013  19:21:00     -120.700       46.462      -22.371       35.354       39.627       21.519     1249.875     1570.261      463.070        1.025        0.164      129.334       13.623        0.011      348.331       27.949      862.613
07/23/2013  19:22:00      -83.791       27.702       -5.423       35.247       37.613       21.713     1242.339     1414.764      471.442        0.547        0.156       88.252       15.437        0.031      348.285       27.869      862.615
07/23/2013  19:23:00      -43.970        3.520        2.564       26.153       27.877       18.337      683.972      777.119      336.234        0.187        0.090       44.110       13.194        0.089      348.310       27.913      862.623
07/23/2013  19:24:00      -88.432       13.391      -12.542       36.288       26.675       14.657     1316.853      711.536      214.825        0.520        0.112       89.440        7.549        0.007      348.341       27.966      862.625
07/23/2013  19:25:00      -81.417       30.112      -15.000       22.121       26.236       20.678      489.341      688.334      427.590        0.468        0.080       86.807       13.714        0.025      348.292       27.881      862.632
07/23/2013  19:26:00      -77.391       73.234      -17.575       36.465       42.502       23.758     1329.660     1806.455      564.425        0.768        0.185      106.549       17.338        0.026      348.309       27.910      862.648
07/23/2013  19:27:00      -71.531       25.233      -14.656       34.616       17.369       17.719     1198.294      301.675      313.961        0.389        0.091       75.851        9.127        0.014      348.363       28.005      862.659
07/23/2013  19:28:00     -106.429       81.136      -21.762       43.674       59.047       25.594     1907.427     3486.599      655.045        1.222        0.302      133.829       14.784        0.012      348.343       27.969      862.667
07/23/2013  19:29:00      -79.961       92.372      -13.766       51.123       54.291       31.002     2613.574     2947.514      961.139        1.082        0.326      122.174       35.677        0.085      348.347       27.977      862.665
07/23/2013  19:30:00      -89.116      119.745      -18.672       62.258       61.457       30.511     3876.058     3776.972      930.904        1.560        0.429      149.267       34.590        0.054      348.281       27.861      862.671
07/23/2013  19:31:00      -59.308      162.753      -21.540       36.551       42.784       25.060     1336.009     1830.438      628.006        1.713        0.190      173.222       20.580        0.014      348.366       28.008      862.678
07/23/2013  19:32:00     -102.746      130.510      -21.154       57.485       57.086       32.966     3304.474     3258.812     1086.746        1.784        0.383      166.101       35.617        0.046      348.368       28.013      862.685
07/23/2013  19:33:00     -121.540       84.825      -17.522       76.052       50.940       43.771     5783.973     2594.859     1915.907        1.628        0.515      148.214       49.401        0.111      348.375       28.022      862.677
07/23/2013  19:34:00      -57.439      205.772      -20.577       55.869       66.807       42.779     3121.350     4463.166     1830.023        2.774        0.471      213.638       39.946        0.035      348.314       27.917      862.703
07/23/2013  19:35:00      -94.814      249.064      -31.837       53.958       70.964       35.312     2911.443     5035.842     1246.958        4.061        0.460      266.501       33.547        0.016      348.254       27.811      862.710
07/23/2013  19:36:00     -109.390      118.479      -23.315       76.088       91.661       38.587     5789.409     8401.755     1488.921        2.111        0.784      161.256       25.800        0.026      348.276       27.851      862.711
07/23/2013  19:37:00      -80.667       90.946      -13.081       46.504       42.132       36.702     2162.580     1775.125     1347.023        1.012        0.264      121.566       26.362        0.047      348.262       27.830      862.722
07/23/2013  19:38:00      -44.118       45.472       -4.785       28.243       45.262       26.671      797.654     2048.666      711.320        0.380        0.178       63.357       17.751        0.079      348.278       27.856      862.737
07/23/2013  19:39:00      -39.091       58.156       -4.121       54.648       33.876       20.054     2986.373     1147.611      402.166        0.473        0.227       70.073       18.959        0.073      348.213       27.745      862.734
07/23/2013  19:40:00     -133.085      201.037      -38.247       44.851       50.066       35.884     2011.652     2506.604     1287.696        3.270        0.290      241.096       28.372        0.014      348.259       27.818      862.740
07/23/2013  19:41:00     -112.483      146.095      -28.431       37.014       57.105       31.495     1370.057     3261.028      991.926        2.021        0.281      184.380       31.862        0.030      348.256       27.818      862.746
07/23/2013  19:42:00     -109.970      178.275      -34.448       53.915       74.437       38.387     2906.869     5540.934     1473.582        2.749        0.496      209.465       38.114        0.033      348.257       27.818      862.744
07/23/2013  19:43:00     -142.438      183.619      -34.171       63.118       74.207       35.811     3983.843     5506.714     1282.429        3.297        0.539      232.388       33.615        0.021      348.265       27.828      862.743
07/23/2013  19:44:00      -99.031      175.159      -27.795       38.021       36.090       27.292     1445.589     1302.487      744.861        2.238        0.175      201.216       20.587        0.010      348.254       27.814      862.751
07/23/2013  19:45:00     -155.676      186.018      -42.284       52.538       54.254       35.315     2760.282     2943.528     1247.127        3.379        0.348      242.565       34.777        0.021      348.268       27.834      862.744
07/23/2013  19:46:00      -67.633      120.755      -14.676       34.991       60.507       25.179     1224.385     3661.157      633.957        1.244        0.276      138.405       24.549        0.031      348.281       27.860      862.738
07/23/2013  19:47:00      -90.192       71.294      -11.839       46.632       39.720       24.493     2174.575     1577.715      599.917        0.885        0.218      114.967       15.799        0.019      348.239       27.790      862.751
07/23/2013  19:48:00      -73.229       55.251       -4.883       43.510       40.933       29.556     1893.090     1675.471      873.533        0.644        0.222       91.734       18.614        0.041      348.243       27.798      862.753
07/23/2013  19:49:00      -31.883       58.406       -5.085       23.982       35.097       17.994      575.125     1231.774      323.789        0.329        0.107       66.541       18.440        0.077      348.234       27.779      862.760
07/23/2013  19:50:00      -35.866       80.846       -2.059       33.776       47.616       21.214     1140.835     2267.266      450.017        0.584        0.193       88.444       24.142        0.075      348.204       27.730      862.780
07/23/2013  19:51:00      -36.942       59.975       -4.434       23.300       26.118       19.650      542.888      682.142      386.106        0.330        0.081       70.440       12.695        0.032      348.198       27.718      862.786
07/23/2013  19:52:00      -32.694       91.314       -6.867       24.746       41.195       18.385      612.364     1697.016      338.013        0.605        0.132       96.991       16.820        0.030      348.241       27.791      862.799
07/23/2013  19:53:00      -43.144       96.185      -10.119       30.837       41.019       17.991      950.927     1682.578      323.690        0.709        0.148      105.418        6.829        0.004      348.221       27.758      862.809
07/23/2013  19:54:00      -15.163       87.651       -8.712       19.416       24.218       12.739      376.983      586.536      162.290        0.456        0.056       88.953       10.184        0.013      348.204       27.729      862.810
07/23/2013  19:55:00        5.876       98.747       -2.797       26.277       43.695       24.181      690.463     1909.229      584.726        0.649        0.159       98.922       25.362        0.066      348.213       27.745      862.809
07/23/2013  19:56:00      -29.512       90.934      -11.829       31.049       62.334       24.465      964.057     3885.553      598.523        0.736        0.272       95.603       31.689        0.110      348.219       27.756      862.827
07/23/2013  19:57:00      -17.974       72.669       -5.611       39.462       26.424       24.338     1557.263      698.209      592.345        0.424        0.142       74.859       22.718        0.092      348.176       27.681      862.819
07/23/2013  19:58:00       14.663       64.530       13.226       48.147       48.499       34.737     2318.143     2352.150     1206.672        0.521        0.294       66.175       26.957        0.166      348.197       27.717      862.807
07/23/2013  19:59:00       36.778       57.874        7.252       35.230       26.869       31.419     1241.137      721.932      987.156        0.385        0.148       68.571       23.567        0.118      348.204       27.729      862.810
07/23/2013  20:00:00      -10.980       68.724       -3.264       15.938       20.803       14.084      254.014      432.756      198.360        0.287        0.044       69.596       12.267        0.031      348.190       27.708      862.808
07/23/2013  20:01:00       -5.566       95.693       -5.478       18.479       26.021       18.226      341.458      677.075      332.181        0.528        0.068       95.855       13.184        0.019      348.224       27.765      862.811
07/23/2013  20:02:00      -15.494       68.712       -0.251       22.328       26.338       16.870      498.555      693.694      284.606        0.322        0.074       70.437       10.904        0.024      348.187       27.699      862.821
07/23/2013  20:03:00       18.006       91.521       -9.484       30.905       37.069       22.332      955.113     1374.137      498.719        0.581        0.141       93.275       18.622        0.040      348.159       27.653      862.828
07/23/2013  20:04:00       65.686       49.461        3.834       32.695       28.086       19.632     1068.959      788.836      385.432        0.451        0.112       82.226       16.018        0.038      348.210       27.740      862.835
07/23/2013  20:05:00       49.060       53.337        4.535       30.103       26.128       19.421      906.219      682.682      377.166        0.362        0.098       72.469       15.119        0.044      348.156       27.647      862.849
07/23/2013  20:06:00       91.117       65.778       -4.007       33.239       60.226       31.935     1104.819     3627.131     1019.818        0.920        0.288      112.379       29.093        0.067      348.155       27.644      862.857
07/23/2013  20:07:00       24.078       98.444       -9.314       23.564       61.993       27.964      555.269     3843.164      782.002        0.777        0.259      101.346       36.856        0.132      348.159       27.652      862.864
07/23/2013  20:08:00       13.170      123.036       -1.789       51.083       65.349       40.006     2609.454     4270.500     1600.445        1.190        0.424      123.739       38.852        0.099      348.169       27.668      862.881
07/23/2013  20:09:00      -61.465       93.234       -8.866       30.896       41.312       22.513      954.570     1706.706      506.849        0.786        0.158      111.672       22.184        0.039      348.133       27.608      862.886
07/23/2013  20:10:00      -30.944      169.924      -17.386       33.477       41.459       26.263     1120.740     1718.826      689.731        1.683        0.176      172.718       25.835        0.022      348.235       27.781      862.888
07/23/2013  20:11:00      -35.894      215.020      -21.365       54.048       59.906       28.624     2921.160     3588.705      819.360        2.765        0.366      217.996       27.907        0.016      348.229       27.768      862.900
07/23/2013  20:12:00       -5.623      203.498      -24.888       26.748       33.843       16.120      715.439     1145.365      259.847        2.209        0.106      203.576       11.506        0.003      348.227       27.766      862.911
07/23/2013  20:13:00      -23.895      181.476      -27.476       40.559       45.800       20.275     1645.002     2097.609      411.089        1.921        0.208      183.042       21.675        0.014      348.222       27.760      862.919
07/23/2013  20:14:00        8.929      110.743       -9.981       34.970       49.201       27.448     1222.922     2420.773      753.374        0.842        0.220      111.103       25.741        0.054      348.187       27.698      862.920
07/23/2013  20:15:00        4.054      149.334      -16.600       40.771       56.810       29.478     1662.308     3227.382      868.963        1.417        0.288      149.389       29.514        0.039      348.198       27.719      862.934
07/23/2013  20:16:00      -37.993      193.300      -17.670       33.403       50.363       27.261     1115.754     2536.390      743.156        2.176        0.220      196.998       24.371        0.015      348.230       27.773      862.937
07/23/2013  20:17:00       14.988      153.042      -10.020       37.760       61.657       39.164     1425.797     3801.580     1533.838        1.525        0.338      153.774       41.736        0.074      348.204       27.728      862.950
07/23/2013  20:18:00       22.154      139.714       -5.989       46.418       63.177       34.721     2154.650     3991.271     1205.544        1.370        0.368      141.459       34.075        0.058      348.156       27.646      862.962
07/23/2013  20:19:00       -0.155      167.682      -14.659       52.207       45.869       28.422     2725.537     2103.993      807.803        1.698        0.282      167.682       20.821        0.015      348.170       27.670      862.966
07/23/2013  20:20:00        0.091      125.281       -9.328       36.519       44.417       27.377     1333.620     1972.914      749.474        0.992        0.203      125.281       21.419        0.029      348.148       27.631      862.986
07/23/2013  20:21:00        8.669      163.062      -13.939       35.537       57.553       32.941     1262.905     3312.333     1085.090        1.626        0.283      163.292       30.160        0.034      348.176       27.680      862.993
07/23/2013  20:22:00        9.418      172.463      -13.083       37.719       61.050       33.001     1422.707     3727.109     1089.092        1.812        0.312      172.720       30.542        0.031      348.177       27.682      863.001
07/23/2013  20:23:00      -16.748      180.606      -18.108       37.031       46.926       23.971     1371.314     2202.031      574.626        1.869        0.207      181.380       24.099        0.018      348.176       27.680      863.017
07/23/2013  20:24:00       -9.223      170.002      -19.911       33.924       41.001       21.592     1150.821     1681.117      466.224        1.634        0.165      170.252       20.486        0.014      348.180       27.687      863.025
07/23/2013  20:25:00       16.928       75.581       11.713       26.803       46.011       31.092      718.426     2117.002      966.689        0.497        0.190       77.453       31.534        0.166      348.125       27.592      863.028
07/23/2013  20:26:00        4.628       55.942       -3.454       34.713       37.359       24.194     1204.977     1395.702      585.330        0.317        0.159       56.133       21.169        0.142      348.112       27.571      863.038
07/23/2013  20:27:00       -8.408       85.215       -5.109       35.213       58.736       24.664     1239.967     3449.916      608.321        0.633        0.265       85.629       33.561        0.154      348.105       27.558      863.045
07/23/2013  20:28:00      -48.488      172.039      -14.044       40.172       47.157       27.083     1613.801     2223.772      733.479        1.836        0.229      178.741       23.075        0.017      348.146       27.628      863.045
07/23/2013  20:29:00       -0.285      208.623      -26.306       36.848       42.174       30.562     1357.797     1778.677      934.011        2.414        0.204      208.623       18.423        0.008      348.153       27.640      863.062
07/23/2013  20:30:00        7.017      183.183      -17.646       39.121       66.071       29.649     1530.465     4365.414      879.089        2.034        0.339      183.317       32.044        0.031      348.128       27.594      863.067
07/23/2013  20:31:00       24.790      108.335        5.967       35.912       68.390       38.803     1289.671     4677.248     1505.657        0.993        0.374      111.135       42.075        0.143      348.113       27.572      863.073
07/23/2013  20:32:00       68.463       46.129       13.537       37.193       25.086       25.688     1383.312      629.293      659.881        0.483        0.134       82.553       13.816        0.028      348.021       27.413      863.080
07/23/2013  20:33:00       95.974       68.922        1.914       39.395       33.766       27.978     1551.952     1140.174      782.742        0.872        0.174      118.158       18.347        0.024      348.009       27.393      863.097
07/23/2013  20:34:00      119.236       99.045       12.240       46.007       38.224       35.996     2116.634     1461.089     1295.736        1.452        0.244      155.007       25.342        0.027      347.992       27.364      863.109
07/23/2013  20:35:00      101.170       88.583       11.322       49.190       37.560       34.495     2419.647     1410.778     1189.898        1.161        0.251      134.471       24.929        0.034      347.992       27.364      863.124
07/23/2013  20:36:00       91.018       71.746       22.182       46.106       31.895       41.861     2125.740     1017.267     1752.324        0.941        0.245      115.895       21.461        0.034      348.003       27.381      863.142
07/23/2013  20:37:00      142.564       95.224       20.022       69.181       57.528       50.516     4786.001     3309.423     2551.902        2.022        0.532      171.442       30.709        0.032      348.012       27.396      863.148
07/23/2013  20:38:00       74.506       91.718        3.865       50.421       52.825       50.585     2542.274     2790.509     2558.803        1.093        0.395      118.167       39.208        0.110      348.000       27.378      863.156
07/23/2013  20:39:00       80.156       85.088       10.179       74.304       65.294       59.780     5521.046     4263.254     3573.631        1.356        0.668      116.897       42.910        0.135      348.031       27.428      863.161
07/23/2013  20:40:00       90.363       76.139       18.276       77.109       46.652       40.701     5945.727     2176.426     1656.556        1.204        0.489      118.163       27.534        0.054      348.014       27.401      863.169
07/23/2013  20:41:00       16.650      150.791      -10.496       41.768       81.574       30.587     1744.565     6654.353      935.549        1.623        0.467      151.707       31.112        0.042      347.986       27.352      863.179
07/23/2013  20:42:00       45.157      150.620       -6.603       58.223       77.138       47.879     3389.922     5950.319     2292.353        1.820        0.582      157.244       46.576        0.088      348.015       27.402      863.184
07/23/2013  20:43:00        2.746      121.390        2.839       43.426       85.033       39.502     1885.799     7230.652     1560.373        1.271        0.534      121.421       40.166        0.109      348.000       27.375      863.191
07/23/2013  20:44:00       54.148       66.894       20.630       54.394       60.637       54.040     2958.751     3676.888     2920.329        0.869        0.478       86.063       41.456        0.232      347.989       27.361      863.197
07/23/2013  20:45:00       99.782       62.539       25.943       67.159       41.619       47.155     4510.358     1732.138     2223.549        1.150        0.423      117.760       25.074        0.045      347.961       27.309      863.212
07/23/2013  20:46:00       97.037       76.006       13.273       46.056       46.644       39.285     2121.127     2175.698     1543.302        1.060        0.292      123.260       22.356        0.033      347.935       27.265      863.220
07/23/2013  20:47:00       82.994       65.811       16.376       60.791       39.995       38.115     3695.583     1599.607     1452.765        0.912        0.337      105.921       26.411        0.062      347.838       27.097      863.227
07/23/2013  20:48:00       65.345      148.293        1.961       63.439       84.450       53.509     4024.519     7131.738     2863.249        2.014        0.701      162.052       53.109        0.107      347.945       27.279      863.246
07/23/2013  20:49:00       48.422      110.004       12.677       62.124       77.279       53.123     3859.414     5972.047     2822.058        1.363        0.633      120.190       40.653        0.114      347.948       27.283      863.257
07/23/2013  20:50:00       95.518       95.630        9.112       66.916       46.644       45.600     4477.693     2175.698     2079.319        1.354        0.437      135.162       34.592        0.065      347.908       27.217      863.268
07/23/2013  20:51:00      134.223      114.404       12.171       80.530       66.996       64.307     6485.146     4488.398     4135.372        2.318        0.755      176.364       43.703        0.061      347.938       27.268      863.281
07/23/2013  20:52:00      171.104      117.497       32.711       85.921       61.959       50.764     7382.489     3838.967     2576.990        2.897        0.690      207.563       26.259        0.016      347.897       27.196      863.304
07/23/2013  20:53:00      124.288      104.584       14.066       84.345       68.500       56.741     7114.097     4692.249     3219.521        2.080        0.751      162.436       35.452        0.048      347.893       27.191      863.323
07/23/2013  20:54:00      103.058      134.690       11.222       75.010       80.066       67.069     5626.507     6410.535     4498.285        2.271        0.827      169.595       49.853        0.086      347.890       27.185      863.331
07/23/2013  20:55:00       67.441      122.662       -2.033       92.613      104.917       62.486     8577.249    11007.558     3904.534        2.154        1.174      139.979       55.389        0.157      347.877       27.164      863.349
07/23/2013  20:56:00       55.362      212.001       -1.620       70.746      154.110       77.504     5004.970    23749.973     6006.793        4.138        1.738      219.110       88.438        0.163      347.893       27.190      863.352
07/23/2013  20:57:00       76.631      103.720        8.588       70.835       49.696       40.075     5017.625     2469.718     1606.034        1.290        0.455      128.957       32.573        0.064      347.851       27.118      863.350
07/23/2013  20:58:00      111.519       96.302       16.509       64.991       63.994       45.932     4223.879     4095.277     2109.706        1.620        0.521      147.345       40.072        0.074      347.845       27.107      863.347
07/23/2013  20:59:00       88.663      101.820       12.580       64.074       69.289       61.214     4105.492     4800.954     3747.190        1.552        0.633      135.013       51.893        0.148      347.852       27.120      863.341
07/23/2013  21:00:00      109.093       72.981       18.169       68.826       39.276       38.072     4737.013     1542.618     1449.499        1.264        0.386      131.253       19.672        0.022      347.806       27.043      863.348
07/23/2013  21:01:00       87.038       82.716       11.108       67.354       74.160       51.053     4536.554     5499.636     2606.358        1.359        0.632      120.073       44.509        0.137      347.824       27.070      863.348
07/23/2013  21:02:00      105.571       77.528       23.356       59.774       42.744       34.113     3572.902     1827.080     1163.688        1.213        0.328      130.980       17.331        0.018      347.817       27.062      863.356
07/23/2013  21:03:00      148.304       92.050       13.031       54.000       54.157       38.792     2916.028     2933.012     1504.803        1.899        0.368      174.549       17.167        0.010      347.824       27.070      863.378
07/23/2013  21:04:00       74.512       63.231        2.366       44.084       51.376       28.352     1943.423     2639.525      803.850        0.747        0.269       97.726       21.772        0.050      347.779       26.997      863.401
07/23/2013  21:05:00      107.853       72.183        4.175       42.866       38.944       36.272     1837.461     1516.610     1315.662        1.076        0.233      129.779       18.164        0.020      347.767       26.976      863.418
07/23/2013  21:06:00      130.267       96.237       25.479       71.844       46.031       36.354     5161.580     2118.894     1321.641        1.774        0.430      161.960       17.120        0.011      347.776       26.990      863.434
07/23/2013  21:07:00       39.555       43.141       13.755       42.728       51.158       36.551     1825.707     2617.192     1335.963        0.470        0.289       58.530       29.829        0.260      347.768       26.977      863.473
07/23/2013  21:08:00       -2.223      178.560      -13.400       65.509       79.442       38.281     4291.384     6310.988     1465.443        2.207        0.603      178.574       41.805        0.055      347.768       26.974      863.528
07/23/2013  21:09:00      -37.238      253.997      -29.110       45.596       53.548       34.302     2078.962     2867.344     1176.595        3.643        0.306      256.712       32.632        0.016      347.812       27.049      863.560
07/23/2013  21:10:00      -44.356      294.026      -33.495       74.121       84.819       45.846     5493.893     7194.310     2101.817        5.216        0.740      297.353       37.829        0.016      347.781       26.995      863.592
07/23/2013  21:11:00      -70.620      376.714      -38.781      108.431      164.905       77.657    11757.284    27193.714     6030.582        9.668        2.249      383.276       76.459        0.040      347.633       26.741      863.646
07/23/2013  21:12:00     -128.693      365.623      -36.036      115.604      153.348       63.995    13364.234    23515.589     4095.404        9.625        2.049      387.610       73.309        0.036      347.385       26.312      863.674
07/23/2013  21:13:00      -66.235      336.710      -36.590       77.155       93.616       56.929     5952.941     8764.000     3240.880        6.852        0.898      343.163       46.278        0.018      347.337       26.229      863.661
07/23/2013  21:14:00     -126.781      387.792      -41.591      106.896      217.793       71.355    11426.803    47433.810     5091.553       11.606        3.198      407.991       73.256        0.032      347.259       26.095      863.673
07/23/2013  21:15:00     -136.007      237.404      -31.736       86.989      131.909       47.280     7567.027    17399.895     2235.355        5.153        1.360      273.603       41.810        0.023      347.191       25.978      863.689
07/23/2013  21:16:00     -231.319      359.461      -39.265      149.338      181.187       96.213    22301.864    32828.684     9256.938       12.431        3.219      427.459      107.989        0.064      346.980       25.615      863.705
07/23/2013  21:17:00     -256.567      377.404      -64.102      137.915      157.207       79.854    19020.418    24714.133     6376.738       13.123        2.506      456.356       92.695        0.041      346.908       25.490      863.735
07/23/2013  21:18:00     -256.001      268.250      -58.589      105.708      142.799       68.135    11174.231    20391.640     4642.406        8.856        1.810      370.803       72.093        0.038      346.892       25.463      863.743
07/23/2013  21:19:00     -222.144      296.589      -61.353      124.970      169.651       70.090    15617.609    28781.368     4912.539        9.518        2.466      370.557       82.215        0.049      346.875       25.433      863.735
07/23/2013  21:20:00     -201.742      215.729      -32.280      115.107      128.835       79.632    13249.509    16598.504     6341.243        6.223        1.809      295.362       87.691        0.088      346.864       25.413      863.753
07/23/2013  21:21:00     -250.448      334.485      -57.278      152.674      133.151       93.870    23309.427    17729.075     8811.497       11.386        2.492      417.857      106.901        0.065      346.845       25.382      863.792
07/23/2013  21:22:00     -267.906      376.099      -60.982      133.364      129.175       77.070    17786.068    16686.303     5939.790       12.867        2.021      461.762       69.974        0.023      346.834       25.365      863.813
07/23/2013  21:23:00     -258.471      330.342      -68.626      136.554      130.612       65.152    18647.052    17059.383     4244.786       11.029        1.998      419.444       68.727        0.027      346.854       25.398      863.833
07/23/2013  21:24:00     -178.584      315.050      -53.867      151.284      148.385       68.720    22886.705    22017.989     4722.504        9.183        2.481      362.145       72.184        0.040      346.874       25.432      863.858
07/23/2013  21:25:00     -198.920      293.115      -46.556      127.328      138.099       69.865    16212.510    19071.268     4881.157        8.390        2.008      354.240       72.184        0.042      346.874       25.430      863.866
07/23/2013  21:26:00     -156.242      213.153       -7.700      111.357      147.308       75.442    12400.400    21699.633     5691.530        5.484        1.990      264.284       79.736        0.091      346.882       25.445      863.877
07/23/2013  21:27:00     -191.334      338.815      -49.285      125.283      151.688       62.361    15695.800    23009.242     3888.860        9.821        2.130      389.107       56.046        0.021      346.879       25.438      863.890
07/23/2013  21:28:00     -220.103      245.928      -43.562      128.601      134.576       71.644    16538.245    18110.814     5132.906        7.529        1.989      330.039       74.780        0.051      346.897       25.470      863.876
07/23/2013  21:29:00      -99.827      276.475      -21.179       87.757      161.428       78.442     7701.225    26059.141     6153.224        6.338        1.996      293.946       70.580        0.058      346.902       25.480      863.882
07/23/2013  21:30:00     -147.768      356.796      -38.494       81.829      127.138       59.697     6696.013    16164.111     3563.690        8.852        1.321      386.185       57.974        0.023      346.888       25.453      863.878
07/23/2013  21:31:00     -125.534      262.662      -29.770       84.685      132.201       58.832     7171.508    17477.077     3461.200        5.687        1.405      291.119       65.868        0.051      346.893       25.463      863.887
07/23/2013  21:32:00     -147.159      293.848      -38.354       97.144       89.853       62.737     9436.938     8073.555     3935.917        6.546        1.072      328.637       54.606        0.028      346.910       25.493      863.892
07/23/2013  21:33:00     -114.676      160.408       -9.699       72.408       78.131       53.977     5242.986     6104.470     2913.524        2.662        0.713      197.183       49.087        0.062      346.919       25.509      863.890
07/23/2013  21:34:00     -121.211      242.705      -37.231       92.389      118.049       52.831     8535.763    13935.642     2791.114        5.012        1.263      271.289       56.836        0.044      346.882       25.445      863.901
07/23/2013  21:35:00     -127.921      204.805      -28.443       71.314       87.606       54.037     5085.705     7674.747     2920.018        3.740        0.784      241.473       50.270        0.043      346.840       25.373      863.907
07/23/2013  21:36:00     -188.947      230.104      -41.803      101.425      102.118       62.358    10286.998    10428.109     3888.534        5.749        1.230      297.739       54.023        0.033      346.837       25.368      863.936
07/23/2013  21:37:00     -228.249      345.594      -57.546      117.893      128.271       63.920    13898.773    16453.577     4085.760       10.463        1.722      414.165       69.732        0.028      346.806       25.315      863.952
07/23/2013  21:38:00     -143.564      238.041      -47.911       89.645      100.254       60.350     8036.267    10050.839     3642.079        5.065        1.086      277.982       60.941        0.048      346.829       25.356      863.965
07/23/2013  21:39:00      -79.711      230.638      -22.334       57.630      119.991       54.656     3321.258    14397.741     2987.227        4.037        1.035      244.024       47.316        0.038      346.841       25.377      863.972
07/23/2013  21:40:00      -69.681      242.680      -23.303       59.088       66.025       42.262     3491.343     4359.341     1786.078        3.696        0.482      252.486       33.442        0.018      346.847       25.385      863.986
07/23/2013  21:41:00      -58.519      253.038      -25.154       57.598       86.967       42.343     3317.534     7563.258     1792.910        4.038        0.634      259.716       42.677        0.027      346.878       25.438      863.993
07/23/2013  21:42:00      -26.091      312.117      -37.388       69.975       93.710       39.609     4896.515     8781.507     1568.865        5.737        0.762      313.206       39.501        0.016      346.863       25.412      864.013
07/23/2013  21:43:00       -4.783      248.842      -28.042       63.937      116.347       50.625     4087.973    13536.552     2562.855        4.146        1.009      248.888       62.672        0.063      346.845       25.383      864.016
07/23/2013  21:44:00      -32.494      271.821      -26.684       70.325      123.068       50.228     4945.633    15145.695     2522.844        4.913        1.131      273.757       63.086        0.053      346.860       25.408      864.037
07/23/2013  21:45:00      -70.663      212.453      -22.114       63.458      122.577       45.379     4026.910    15025.226     2059.294        3.586        1.056      223.896       56.357        0.063      346.893       25.465      864.050
07/23/2013  21:46:00      -40.143      303.277      -34.315       45.987       75.853       40.229     2114.768     5753.675     1618.334        5.212        0.474      305.922       28.391        0.009      346.905       25.482      864.062
07/23/2013  21:47:00      -30.622      206.916      -25.414       42.659       62.797       28.152     1819.808     3943.512      792.542        2.548        0.328      209.170       27.007        0.017      346.884       25.449      864.077
07/23/2013  21:48:00      -48.192      242.734      -30.881       48.642      100.397       41.975     2366.055    10079.613     1761.927        3.820        0.710      247.472       43.337        0.031      346.904       25.482      864.082
07/23/2013  21:49:00      -55.847      313.584      -30.282       67.041      125.619       44.458     4494.444    15780.119     1976.527        6.231        1.113      318.518       44.558        0.020      346.918       25.507      864.069
07/23/2013  21:50:00     -101.469      243.244      -33.086       73.496      107.319       48.293     5401.727    11517.426     2332.241        4.490        0.963      263.560       40.257        0.023      346.929       25.526      864.089
07/23/2013  21:51:00     -123.061      221.684      -26.165       71.017       71.956       48.732     5043.345     5177.665     2374.837        3.878        0.630      253.550       43.453        0.029      346.935       25.537      864.084
07/23/2013  21:52:00     -122.719      195.107      -34.235       71.933       77.098       45.172     5174.362     5944.139     2040.485        3.373        0.658      230.492       47.910        0.043      346.953       25.568      864.077
07/23/2013  21:53:00      -69.381      192.187      -20.297       53.736       97.971       38.551     2887.554     9598.309     1486.156        2.806        0.699      204.327       43.132        0.045      346.981       25.617      864.082
07/23/2013  21:54:00      -99.326      144.020      -19.851       57.566       61.689       35.339     3313.864     3805.522     1248.866        1.968        0.418      174.950       34.490        0.039      347.017       25.680      864.098
07/23/2013  21:55:00      -75.776       87.166      -12.898       57.605       43.840       25.853     3318.383     1921.989      668.367        0.971        0.295      115.499       21.640        0.035      346.998       25.648      864.095
07/23/2013  21:56:00     -107.116       55.717      -17.104       42.065       36.656       26.270     1769.475     1343.679      690.106        0.934        0.190      120.741       15.932        0.017      347.039       25.719      864.104
07/23/2013  21:57:00      -74.952      135.608      -10.186       50.604       63.098       35.411     2560.800     3981.390     1253.966        1.595        0.390      154.943       35.135        0.051      347.102       25.828      864.117
07/23/2013  21:58:00     -113.545      127.984      -23.775       59.270       77.338       36.674     3512.938     5981.182     1344.983        2.034        0.542      171.092       31.534        0.034      347.104       25.830      864.125
07/23/2013  21:59:00      -93.951       55.311       -6.448       84.882       47.551       35.113     7204.939     2261.128     1232.898        1.131        0.535      109.024       34.144        0.098      347.114       25.848      864.135
07/23/2013  22:00:00     -118.970      177.409      -20.982       90.073       74.597       49.131     8113.170     5564.657     2413.821        3.108        0.805      213.607       52.271        0.060      347.079       25.786      864.155
07/23/2013  22:01:00     -130.115      140.012      -30.983       75.875       69.776       37.739     5757.088     4868.642     1424.242        2.477        0.602      191.136       32.687        0.029      347.048       25.735      864.164
07/23/2013  22:02:00     -190.015      231.795      -37.410       98.638      126.077       63.777     9729.383    15895.413     4067.544        6.046        1.485      299.724       66.390        0.049      347.007       25.659      864.180
07/23/2013  22:03:00     -217.019      313.484      -54.265      119.995      126.548       65.461    14398.867    16014.333     4285.110        9.150        1.735      381.274       70.616        0.034      346.971       25.601      864.177
07/23/2013  22:04:00     -105.452      172.197      -19.733       88.271       96.328       60.305     7791.685     9279.179     3636.675        3.093        1.035      201.921       47.827        0.056      346.956       25.574      864.191
07/23/2013  22:05:00      -88.187      205.975      -15.645       72.916      112.463       56.228     5316.778    12647.891     3161.636        3.578        1.056      224.059       43.001        0.037      346.971       25.600      864.191
07/23/2013  22:06:00     -157.520      228.373      -37.306       92.416      101.921       53.961     8540.639    10387.828     2911.754        5.009        1.092      277.428       64.963        0.055      347.017       25.677      864.192
07/23/2013  22:07:00      -94.331      133.694      -24.682       71.291       62.665       42.549     5082.428     3926.959     1810.411        1.910        0.541      163.623       34.219        0.044      347.035       25.712      864.180
07/23/2013  22:08:00      -79.189      102.715       -6.960       73.800       75.031       40.372     5446.407     5629.647     1629.923        1.479        0.635      129.697       28.621        0.049      347.054       25.745      864.171
07/23/2013  22:09:00      -59.998      107.460      -11.695       65.875       66.517       45.668     4339.476     4424.453     2085.593        1.306        0.542      123.075       31.500        0.066      347.058       25.752      864.165
07/23/2013  22:10:00     -100.279      176.659      -22.606      116.517      124.120       70.603    13576.206    15405.829     4984.774        3.786        1.698      203.136       65.059        0.103      347.075       25.779      864.158
07/23/2013  22:11:00     -107.489      262.555      -29.217       82.168      142.763       53.048     6751.615    20381.380     2814.070        5.564        1.497      283.706       56.870        0.040      347.070       25.769      864.171
07/23/2013  22:12:00     -113.818      328.786      -33.671       91.835      109.172       49.806     8433.628    11918.452     2480.656        7.251        1.142      347.929       50.069        0.021      347.082       25.789      864.176
07/23/2013  22:13:00      -71.032      229.777      -24.293      103.057      155.889       57.289    10620.737    24301.286     3281.993        4.831        1.910      240.505       39.791        0.027      347.072       25.773      864.185
07/23/2013  22:14:00     -168.386      301.042      -48.909      114.599      122.664       65.433    13132.823    15046.509     4281.416        7.691        1.623      344.935       75.200        0.048      347.054       25.740      864.189
07/23/2013  22:15:00     -100.856      271.052      -42.067       63.912       97.743       49.849     4084.713     9553.682     2484.940        5.076        0.806      289.207       51.166        0.031      347.057       25.746      864.184
07/23/2013  22:16:00      -91.688      269.785      -32.752       87.166      106.909       57.466     7597.978    11429.520     3302.373        5.229        1.116      284.940       63.291        0.049      347.029       25.696      864.198
07/23/2013  22:17:00     -105.572      294.961      -29.777       81.966      103.947       52.695     6718.433    10804.926     2776.752        5.966        1.015      313.285       39.361        0.016      347.026       25.694      864.195
07/23/2013  22:18:00     -109.114      222.491      -22.637       84.406      101.605       50.347     7124.410    10323.588     2534.843        4.095        0.999      247.807       48.997        0.039      347.009       25.665      864.199
07/23/2013  22:19:00     -111.098      165.880      -23.943       87.038       76.752       52.919     7575.553     5890.905     2800.435        2.835        0.813      199.647       45.697        0.052      346.967       25.591      864.189
07/23/2013  22:20:00      -87.855      183.433      -19.738      106.878       97.421       62.113    11423.003     9490.851     3858.036        3.326        1.239      203.387       58.434        0.083      346.996       25.641      864.175
07/23/2013  22:21:00     -156.680      229.506      -31.951      135.626       95.494       60.865    18394.500     9119.067     3704.496        5.472        1.561      277.888       60.995        0.048      346.997       25.645      864.174
07/23/2013  22:22:00      -96.354      293.510      -30.168      107.134      136.925       65.045    11477.775    18748.411     4230.827        6.539        1.723      308.921       74.387        0.058      346.996       25.642      864.177
07/23/2013  22:23:00     -186.360      439.180      -51.956      123.579      137.841       70.902    15271.764    19000.086     5027.071       13.480        1.965      477.084       68.133        0.020      346.980       25.614      864.177
07/23/2013  22:24:00     -112.914      412.377      -51.774       97.379      139.439       60.445     9482.579    19443.128     3653.651       10.903        1.629      427.556       67.696        0.025      346.994       25.639      864.161
07/23/2013  22:25:00     -123.535      158.253      -30.060      121.056      165.682       60.051    14654.583    27450.493     3606.144        4.345        2.286      200.761       62.109        0.096      346.991       25.634      864.150
07/23/2013  22:26:00     -165.430      249.012      -33.287      125.929      138.090       74.436    15858.198    19068.730     5540.669        6.547        2.023      298.955       82.170        0.076      346.998       25.646      864.140
07/23/2013  22:27:00     -101.437      187.980      -11.735       81.332      109.115       58.203     6614.962    11906.101     3387.536        3.383        1.095      213.602       49.040        0.053      347.006       25.660      864.131
07/23/2013  22:28:00     -207.611      146.240      -36.102      143.493      100.920       57.365    20590.205    10184.882     3290.799        4.992        1.703      253.945       71.649        0.080      346.993       25.638      864.139
07/23/2013  22:29:00     -170.626      172.564      -17.730      113.172       98.109       61.335    12807.845     9625.397     3762.015        4.270        1.310      242.676       49.367        0.041      346.992       25.636      864.133
07/23/2013  22:30:00      -68.041      155.077      -13.336       79.625       79.887       49.678     6340.218     6381.965     2467.930        2.202        0.760      169.347       32.675        0.037      346.982       25.619      864.113
07/23/2013  22:31:00     -139.749      172.207      -24.623       73.323       61.117       54.248     5376.260     3735.228     2942.861        3.092        0.603      221.777       47.445        0.046      346.982       25.618      864.108
07/23/2013  22:32:00      -66.454      103.249      -12.793       74.515       95.157       37.457     5552.555     9054.896     1403.033        1.562        0.801      122.786       31.490        0.066      346.993       25.638      864.103
07/23/2013  22:33:00     -103.848      157.205       -4.189       96.008      127.644       57.355     9217.631    16293.089     3289.587        3.215        1.440      188.409       52.305        0.077      346.983       25.620      864.100
07/23/2013  22:34:00     -133.152      234.132      -24.198       88.076       85.517       47.533     7757.359     7313.235     2259.392        4.523        0.866      269.346       38.156        0.020      346.973       25.603      864.106
07/23/2013  22:35:00      -91.084      165.816      -13.520       76.395       80.949       47.169     5836.253     6552.781     2224.888        2.529        0.731      189.186       39.889        0.044      346.950       25.565      864.106
07/23/2013  22:36:00      -83.294      267.223      -28.802       75.955      103.664       45.222     5769.230    10746.293     2044.986        4.886        0.928      279.904       44.484        0.025      346.951       25.564      864.099
07/23/2013  22:37:00      -76.970      338.323      -34.351       88.355      125.393       42.894     7806.656    15723.490     1839.875        7.346        1.269      346.968       46.216        0.018      346.967       25.591      864.105
07/23/2013  22:38:00      -91.727      232.396      -18.934       80.710       93.781       50.441     6514.062     8794.840     2544.342        4.031        0.893      249.844       48.541        0.038      346.951       25.563      864.099
07/23/2013  22:39:00      -49.094      203.706      -17.378       65.692       71.272       39.651     4315.389     5079.741     1572.215        2.759        0.548      209.539       37.960        0.033      346.944       25.552      864.111
07/23/2013  22:40:00      -47.885      234.550      -28.992       83.029       71.348       41.091     6893.843     5090.486     1688.432        3.591        0.684      239.388       35.338        0.022      346.950       25.563      864.086
07/23/2013  22:41:00     -108.294      143.713       -2.621       88.439      112.770       54.864     7821.510    12717.090     3010.065        2.796        1.177      179.948       68.944        0.147      346.962       25.585      864.089
07/23/2013  22:42:00      -37.089      292.000      -26.718       72.152      104.830       47.004     5205.893    10989.314     2209.416        5.288        0.920      294.346       54.710        0.035      346.956       25.573      864.082
07/23/2013  22:43:00      -77.653      266.887      -23.699       91.707      110.489       56.209     8410.143    12207.839     3159.403        5.079        1.189      277.954       57.222        0.042      346.932       25.533      864.072
07/23/2013  22:44:00      -44.702      274.632      -23.023       68.400      109.986       48.529     4678.511    12096.909     2355.075        4.854        0.957      278.246       55.515        0.040      346.934       25.534      864.067
07/23/2013  22:45:00      -29.547      345.521      -29.261       81.640      117.381       48.203     6665.152    13778.292     2323.540        7.194        1.138      346.782       43.646        0.016      346.930       25.527      864.063
07/23/2013  22:46:00      -59.346      328.536      -34.844       61.135       76.268       42.822     3737.432     5816.820     1833.745        6.203        0.569      333.853       36.421        0.012      346.916       25.503      864.051
07/23/2013  22:47:00      -69.463      347.501      -29.577       59.761      104.194       39.730     3571.347    10856.322     1578.455        7.123        0.800      354.375       44.336        0.016      346.919       25.507      864.031
07/23/2013  22:48:00      -97.708      326.911      -36.448       83.044      146.740       51.392     6896.262    21532.604     2641.170        7.440        1.554      341.200       45.812        0.018      346.895       25.467      864.010
07/23/2013  22:49:00      -98.185      242.187      -36.464       70.791       73.673       42.048     5011.358     5427.638     1768.000        4.091        0.610      261.333       43.674        0.028      346.870       25.424      864.009
07/23/2013  22:50:00      -43.838      243.888      -23.992       64.222      105.299       45.771     4124.447    11087.855     2094.982        3.964        0.865      247.797       48.582        0.038      346.853       25.396      863.994
07/23/2013  22:51:00      -65.161      249.988      -22.057       61.176       78.747       41.469     3742.500     6201.071     1719.674        3.944        0.583      258.341       41.879        0.026      346.846       25.383      864.009
07/23/2013  22:52:00      -40.533      230.682      -20.775       67.846       67.262       49.162     4603.077     4524.168     2416.859        3.341        0.577      234.216       40.466        0.030      346.823       25.345      864.006
07/23/2013  22:53:00      -80.418      262.214      -20.778       99.243      132.327       64.406     9849.205    17510.353     4148.148        5.358        1.575      274.269       64.921        0.056      346.830       25.356      864.011
07/23/2013  22:54:00      -48.937      345.836      -43.627       76.264       84.468       45.531     5816.234     7134.768     2073.039        6.946        0.751      349.281       42.509        0.015      346.848       25.387      864.005
07/23/2013  22:55:00      -39.720      268.245      -26.900       52.279       80.557       35.489     2733.065     6489.439     1259.444        4.237        0.524      271.170       39.659        0.021      346.838       25.371      864.008
07/23/2013  22:56:00      -54.153      211.893      -25.400       84.808       68.084       46.033     7192.367     4635.477     2119.045        3.121        0.697      218.703       40.469        0.034      346.827       25.351      864.001
07/23/2013  22:57:00       23.634      209.933        3.061      143.195      146.260       77.726    20504.713    21391.983     6041.396        4.628        2.397      211.260       98.946        0.219      346.831       25.359      864.010
07/23/2013  22:58:00       14.866      237.183      -14.600       79.968      101.304       60.623     6394.847    10262.588     3675.153        3.851        1.017      237.648       63.185        0.071      346.815       25.331      864.018
07/23/2013  22:59:00      -32.015      202.953      -15.897       60.811       84.315       50.015     3698.003     7109.041     2501.507        2.789        0.665      205.462       52.633        0.066      346.823       25.344      864.030
07/23/2013  23:00:00      -25.472      214.857      -21.871       37.589       62.009       30.425     1412.952     3845.149      925.678        2.674        0.309      216.362       27.302        0.016      346.834       25.365      864.024
07/23/2013  23:01:00      -42.922      169.842      -12.795       47.313       61.653       34.031     2238.513     3801.035     1158.077        1.902        0.360      175.182       35.611        0.041      346.820       25.341      864.026
07/23/2013  23:02:00      -25.619      108.729        1.111       38.514       51.279       33.244     1483.356     2629.518     1105.183        0.885        0.261      111.706       33.501        0.090      346.792       25.295      864.019
07/23/2013  23:03:00        6.231       69.316       -1.289       25.516       41.343       22.560      651.084     1709.267      508.974        0.386        0.143       69.596       18.433        0.070      346.808       25.322      864.015
07/23/2013  23:04:00      -40.751      200.390      -24.144       52.726      106.770       29.784     2780.025    11399.900      887.111        2.873        0.753      204.492       37.629        0.034      346.788       25.287      864.031
07/23/2013  23:05:00       -5.281      178.827      -14.965       49.941       90.825       43.258     2494.061     8249.108     1871.252        2.242        0.631      178.905       46.243        0.067      346.757       25.232      864.033
07/23/2013  23:06:00      -10.027      278.811      -28.800       48.132       65.093       33.009     2316.696     4237.079     1089.589        4.315        0.382      278.992       25.532        0.008      346.780       25.269      864.040
07/23/2013  23:07:00      -38.186      204.094      -18.135       49.147       69.391       38.160     2415.468     4815.107     1456.169        2.606        0.434      207.636       40.262        0.038      346.762       25.241      864.052
07/23/2013  23:08:00      -92.777      211.616      -35.562       63.037       63.460       34.694     3973.656     4027.147     1203.660        3.193        0.460      231.060       25.374        0.012      346.756       25.231      864.066
07/23/2013  23:09:00      -46.486      195.027      -14.525       73.893       86.510       46.734     5460.248     7484.027     2184.104        2.776        0.756      200.491       32.727        0.027      346.717       25.162      864.063
07/23/2013  23:10:00        2.202      171.613       -9.267       74.286      128.030       58.552     5518.374    16391.745     3428.317        2.744        1.267      171.627       66.394        0.150      346.717       25.164      864.075
07/23/2013  23:11:00      -28.803      241.177      -24.522       78.141       89.107       46.253     6106.054     7940.006     2139.357        3.789        0.809      242.891       42.304        0.030      346.736       25.195      864.080
07/23/2013  23:12:00      -31.612      198.431      -14.950       42.650      130.762       40.487     1819.000    17098.609     1639.188        3.057        1.028      200.933       51.548        0.066      346.693       25.121      864.093
07/23/2013  23:13:00      -14.010      206.771      -17.610       66.791      101.506       44.219     4460.990    10303.565     1955.282        2.999        0.836      207.245       57.237        0.076      346.724       25.173      864.103
07/23/2013  23:14:00      -48.392      323.773      -33.153       46.467       65.990       32.783     2159.192     4354.633     1074.749        5.793        0.379      327.369       25.784        0.006      346.731       25.183      864.100
07/23/2013  23:15:00      -44.015      188.902       -7.770       53.876       90.170       38.583     2902.661     8130.576     1488.642        2.510        0.626      193.962       43.420        0.050      346.690       25.116      864.116
07/23/2013  23:16:00      -68.139      217.496      -27.057       76.750      133.879       41.718     5890.637    17923.639     1740.415        3.911        1.278      227.920       41.642        0.033      346.651       25.048      864.116
07/23/2013  23:17:00      -78.959      119.285      -15.891       53.943       76.329       36.497     2909.865     5826.100     1332.019        1.539        0.503      143.050       33.899        0.056      346.667       25.077      864.107
07/23/2013  23:18:00     -112.861      201.492      -29.367       58.526      105.108       46.426     3425.262    11047.732     2155.409        3.541        0.831      230.947       50.877        0.049      346.641       25.029      864.099
07/23/2013  23:19:00      -70.793      212.872      -32.163       58.514       96.288       37.230     3423.887     9271.287     1386.100        3.272        0.704      224.335       42.216        0.035      346.703       25.138      864.089
07/23/2013  23:20:00      -62.195      138.268      -11.484       51.723       55.526       33.773     2675.221     3083.170     1140.645        1.501        0.345      151.612       31.500        0.043      346.624       25.005      864.087
07/23/2013  23:21:00      -71.503      103.141      -12.981       36.543       38.575       25.052     1335.364     1488.031      627.616        0.968        0.173      125.501       21.285        0.029      346.627       25.011      864.107
07/23/2013  23:22:00       24.585      103.082       -5.818       69.628       37.539       36.772     4848.008     1409.205     1352.181        0.944        0.380      105.973       26.707        0.064      346.682       25.105      864.130
07/23/2013  23:23:00      -69.306      150.772      -19.458       60.022       44.282       34.559     3602.643     1960.919     1194.311        1.733        0.338      165.938       22.129        0.018      346.681       25.102      864.141
07/23/2013  23:24:00      -37.016      137.560      -19.260       46.897       61.786       27.094     2199.356     3817.518      734.089        1.371        0.338      142.454       23.867        0.028      346.670       25.084      864.148
07/23/2013  23:25:00      -39.953      159.661      -19.241       38.548      100.233       29.903     1485.920    10046.734      894.208        1.994        0.621      164.584       33.724        0.042      346.643       25.036      864.149
07/23/2013  23:26:00     -104.310      171.980      -20.249       59.415       91.201       42.183     3530.093     8317.703     1779.380        2.724        0.681      201.141       46.895        0.054      346.631       25.017      864.153
07/23/2013  23:27:00     -154.248      233.321      -47.318       76.097       86.367       47.911     5790.766     7459.239     2295.464        4.800        0.777      279.698       43.027        0.024      346.648       25.043      864.159
07/23/2013  23:28:00      -83.095      135.538       -8.639       54.607       55.281       33.862     2981.893     3056.037     1146.655        1.627        0.359      158.982       33.333        0.044      346.600       24.963      864.159
07/23/2013  23:29:00     -151.457      119.983      -30.351       57.611       73.059       44.552     3318.982     5337.585     1984.872        2.445        0.532      193.223       35.907        0.035      346.592       24.947      864.165
07/23/2013  23:30:00     -117.733      135.917      -24.154       78.904       86.418       55.220     6225.873     7468.048     3049.219        2.483        0.837      179.818       57.670        0.103      346.568       24.910      864.156
07/23/2013  23:31:00     -148.321      200.929      -41.042       77.630       63.898       42.465     6026.465     4082.943     1803.306        3.798        0.596      249.742       43.580        0.030      346.593       24.948      864.156
07/23/2013  23:32:00     -138.765      122.889      -18.305       64.594       65.072       38.559     4172.408     4234.399     1486.813        2.229        0.495      185.357       34.041        0.034      346.593       24.950      864.135
07/23/2013  23:33:00     -151.130       81.554      -24.682       70.981       68.281       38.374     5038.342     4662.292     1472.538        2.063        0.559      171.731       35.926        0.044      346.584       24.933      864.118
07/23/2013  23:34:00     -141.989       98.990      -30.834       88.144       60.080       31.753     7769.453     3609.607     1008.265        2.165        0.619      173.089       39.555        0.052      346.558       24.891      864.115
07/23/2013  23:35:00     -106.666      160.612      -20.699       84.611      108.869       50.453     7158.959    11852.523     2545.480        2.958        1.078      192.805       35.760        0.034      346.564       24.899      864.108
07/23/2013  23:36:00      -87.402      167.325      -17.942       88.109       81.467       45.102     7763.248     6636.886     2034.174        2.619        0.822      188.777       41.567        0.048      346.548       24.872      864.099
07/23/2013  23:37:00     -127.798      255.209      -27.737       61.415       50.268       43.339     3771.759     2526.887     1878.276        4.520        0.409      285.420       30.979        0.012      346.563       24.897      864.088
07/23/2013  23:38:00     -165.991      170.669      -34.496       79.558       75.965       46.858     6329.418     5770.707     2195.631        3.608        0.715      238.078       44.561        0.035      346.567       24.904      864.081
07/23/2013  23:39:00      -93.561      118.575      -12.846       64.564       69.018       34.674     4168.551     4763.496     1202.320        1.655        0.507      151.042       33.402        0.049      346.551       24.879      864.073
07/23/2013  23:40:00     -113.173      175.987      -37.060       70.560       82.448       38.546     4978.658     6797.607     1485.772        2.920        0.663      209.235       46.400        0.049      346.561       24.894      864.075
07/23/2013  23:41:00     -132.440      160.399      -39.448       64.018       50.401       35.638     4098.257     2540.304     1270.092        2.636        0.395      208.010       30.876        0.022      346.564       24.901      864.083
07/23/2013  23:42:00     -103.946      111.934      -19.927       43.167       75.401       33.349     1863.349     5685.356     1112.147        1.619        0.433      152.755       25.827        0.029      346.549       24.877      864.092
07/23/2013  23:43:00      -95.389       67.306      -16.450       54.804       40.575       23.712     3003.482     1646.337      562.237        0.955        0.261      116.744       23.316        0.040      346.547       24.874      864.084
07/23/2013  23:44:00     -118.300      132.299      -31.799       50.465       64.777       30.488     2546.670     4196.100      929.529        2.009        0.384      177.477       32.351        0.033      346.544       24.867      864.081
07/23/2013  23:45:00      -46.210      105.758        1.286       36.529       45.754       29.824     1334.336     2093.388      889.485        0.882        0.216      115.413       25.359        0.048      346.501       24.793      864.076
07/23/2013  23:46:00      -91.041       70.904      -25.755       47.602       64.320       25.386     2265.951     4137.015      644.440        1.051        0.352      115.394       29.819        0.067      346.538       24.859      864.081
07/23/2013  23:47:00      -92.748       41.273      -11.454       40.996       56.072       23.980     1680.685     3144.038      575.026        0.792        0.270      101.516       17.797        0.031      346.532       24.846      864.068
07/23/2013  23:48:00      -80.632       42.248      -10.104       56.548       26.721       23.688     3197.717      714.022      561.114        0.643        0.224       91.030       18.646        0.042      346.511       24.812      864.056
07/23/2013  23:49:00      -55.577       52.461      -12.771       34.277       30.059       21.331     1174.883      903.513      455.008        0.427        0.127       76.426       19.975        0.068      346.494       24.781      864.054
07/23/2013  23:50:00      -60.375       78.257      -10.221       40.480       39.510       25.757     1638.609     1561.059      663.430        0.687        0.193       98.839       23.201        0.055      346.512       24.813      864.062
07/23/2013  23:51:00      -51.974       59.670       -6.170       48.240       27.591       23.079     2327.136      761.278      532.648        0.496        0.181       79.131       20.679        0.068      346.503       24.796      864.070
07/23/2013  23:52:00     -148.902      113.256      -25.574       60.321       69.650       26.483     3638.673     4851.140      701.324        2.242        0.460      187.079       23.933        0.016      346.539       24.857      864.071
07/23/2013  23:53:00      -90.550       67.686      -18.233       44.819       42.737       22.676     2008.761     1826.417      514.203        0.873        0.217      113.052       23.552        0.043      346.535       24.851      864.074
07/23/2013  23:54:00      -45.137       92.354        1.859       36.777       61.824       25.048     1352.584     3822.183      627.393        0.818        0.290      102.794       14.958        0.021      346.484       24.765      864.086
07/23/2013  23:55:00      -38.774       42.097       -4.225       27.709       41.074       24.010      767.807     1687.077      576.496        0.316        0.152       57.233       29.718        0.270      346.493       24.780      864.095
07/23/2013  23:56:00      -52.239       63.447       -8.550       48.107       28.625       25.340     2314.277      819.399      642.138        0.530        0.189       82.186       19.495        0.056      346.499       24.788      864.110
07/23/2013  23:57:00      -48.091       37.491        0.385       26.960       34.450       18.209      726.852     1186.780      331.576        0.298        0.112       60.978        6.196        0.010      346.485       24.767      864.112
07/23/2013  23:58:00      -79.709       48.698       -3.846       32.102       26.978       20.954     1030.560      727.805      439.053        0.547        0.110       93.408       13.426        0.021      346.472       24.743      864.123
07/23/2013  23:59:00      -38.428       69.291      -14.303       30.544       28.008       17.998      932.911      784.456      323.931        0.426        0.102       79.234       17.107        0.047      346.480       24.761      864.124
